GFSNW_sfc_thetae_000.txt.gz
Theta_e
315 314 314 315 316 315 314 312 303 317 320 307 306 299 304 304 304 308 305 305 303 301 301 299 298 298 301 306 306 300 301 298 292 293 296 299 295 293 294 287 286 287 284 286
315 314 315 315 316 315 307 307 306 318 318 299 299 303 301 304 303 303 304 302 305 305 301 297 301 300 305 306 304 300 302 297 290 290 293 296 294 296 295 294 293 289 284 286
315 315 314 314 315 315 310 307 302 310 310 306 302 300 300 299 305 304 305 303 305 302 301 303 299 299 303 306 304 304 303 296 292 288 290 294 292 295 296 293 288 288 290 291
316 315 314 314 314 314 310 306 300 303 299 299 300 301 300 298 299 304 305 302 302 301 297 298 297 299 300 302 303 302 301 293 294 294 295 294 293 293 294 293 294 288 292 293
317 315 313 313 313 312 310 303 301 302 300 301 298 298 298 297 298 299 300 300 302 302 297 299 297 299 299 297 298 298 298 291 291 289 293 291 290 292 292 293 294 294 294 293
316 315 314 313 312 310 308 308 307 303 297 298 296 296 297 298 299 300 301 302 301 298 297 298 298 300 302 300 297 296 294 291 288 284 290 290 286 291 292 293 294 293 289 295
316 315 315 313 312 310 310 308 307 302 295 297 297 299 299 298 297 296 299 300 298 298 300 299 296 295 295 295 295 297 293 291 290 285 287 279 292 297 297 294 296 296 296 297
315 315 315 314 313 312 311 311 306 302 295 298 297 298 298 297 297 295 297 296 296 299 296 293 291 289 290 292 295 294 293 291 286 284 285 289 293 296 294 292 292 297 296 297
314 314 314 315 313 312 311 309 311 305 300 297 300 296 297 294 292 291 293 296 298 298 295 293 287 289 290 287 290 295 295 292 288 282 280 281 291 296 299 296 286 298 298 298
313 313 313 314 314 312 312 310 312 308 303 301 301 299 297 297 295 292 292 293 293 296 290 288 286 287 288 287 287 288 288 288 285 285 283 288 297 297 298 286 289 298 299 299
311 312 313 313 313 312 312 311 311 307 305 303 302 302 298 296 296 295 293 293 293 291 289 291 288 287 289 286 289 289 289 286 285 287 283 280 298 297 291 296 298 299 300 298
310 311 312 313 313 313 312 308 310 310 306 304 307 307 308 302 302 298 295 297 296 297 293 291 289 286 288 288 286 291 286 292 289 291 289 298 298 297 300 299 299 298 298 298
309 310 311 312 313 313 312 307 307 306 302 302 302 304 308 309 306 306 298 298 300 298 303 295 293 288 290 287 288 290 293 297 292 292 293 295 298 301 297 297 296 297 297 297
308 309 311 311 312 313 311 307 308 307 302 297 302 308 304 308 309 309 307 301 302 301 301 297 294 292 297 293 293 291 293 295 293 292 296 298 299 298 296 295 294 294 294 295
308 309 310 310 311 312 312 310 309 310 304 297 299 305 306 306 307 307 307 304 301 298 295 294 292 295 294 294 293 291 295 293 290 290 295 295 296 297 294 294 294 294 292 289
306 308 309 310 310 311 308 301 308 310 308 300 292 304 300 301 303 303 304 303 301 299 296 294 295 298 295 289 289 293 296 297 297 295 296 296 297 297 295 292 292 292 292 292
305 307 308 309 310 308 302 300 302 306 309 299 291 295 298 299 302 301 300 301 299 298 295 293 294 294 296 292 288 293 295 296 296 297 296 294 295 289 290 290 291 291 289 289
306 307 308 309 307 304 301 301 304 307 302 299 289 290 292 297 294 294 299 296 297 296 295 295 293 294 294 288 293 293 295 295 294 294 293 291 290 288 287 288 287 285 285 284
308 308 307 304 301 299 298 302 304 303 300 292 290 287 287 295 294 295 295 296 290 296 292 292 293 291 286 290 292 292 293 291 292 288 286 286 285 287 286 284 285 285 283 282
307 304 299 293 296 300 300 300 296 293 294 293 289 294 289 293 293 290 290 291 288 285 289 292 288 287 292 293 294 293 292 288 288 285 283 286 286 286 285 285 284 283 280 280
301 296 291 296 299 297 295 288 289 290 287 290 290 290 289 293 289 289 290 286 286 282 285 285 284 282 287 291 291 288 287 287 288 287 286 287 287 285 286 285 282 280 280 278
299 295 297 295 292 289 286 285 285 285 285 288 288 288 291 290 292 288 288 285 285 280 285 282 280 283 287 287 286 286 286 287 288 287 286 285 286 288 286 282 280 279 278 278
299 293 288 288 287 282 278 278 282 284 285 285 286 285 289 289 290 287 286 283 282 284 280 279 280 284 285 284 285 285 285 286 284 282 281 282 284 283 280 278 278 278 277 278
290 287 281 281 279 281 283 284 285 285 285 285 287 286 286 287 285 286 282 285 282 278 276 276 281 283 285 284 284 284 282 283 281 280 279 278 278 277 278 278 278 277 276 277
288 287 279 282 284 284 282 283 283 283 286 286 286 285 285 283 283 284 283 280 277 279 277 280 280 280 280 282 282 283 283 282 280 279 278 277 277 277 277 278 278 277 276 276
287 286 284 282 281 283 280 282 283 284 287 285 285 283 281 281 282 281 279 278 275 278 279 281 280 282 281 281 282 283 284 283 282 279 278 278 277 277 277 278 277 276 276 275
285 284 285 283 281 285 283 284 285 288 285 280 284 280 276 279 279 278 279 277 281 282 280 280 280 279 279 280 282 282 282 282 282 279 278 278 278 277 275 274 276 276 276 275

GFSNW_sfc_thetae_003.txt.gz
Theta_e
317 316 315 316 316 316 308 303 295 310 317 301 299 296 301 303 303 306 305 305 302 299 300 297 297 297 300 305 304 298 300 295 289 292 294 297 293 292 291 286 285 285 283 285
317 316 315 315 315 315 301 299 301 313 309 293 293 299 301 302 302 302 303 302 304 303 299 296 299 298 303 305 303 299 300 294 288 289 292 294 293 294 293 292 290 286 283 285
317 316 315 314 314 315 303 299 295 301 300 299 297 296 298 298 303 302 303 302 303 301 299 301 297 297 302 304 302 304 302 295 291 286 288 292 291 293 294 292 286 286 288 289
317 316 315 314 313 313 305 297 294 298 292 294 295 296 297 297 298 302 303 300 301 299 296 296 295 298 299 301 302 299 298 290 291 292 293 292 292 292 292 292 291 288 289 290
317 316 315 314 313 312 302 296 294 296 294 296 294 294 293 295 296 298 299 299 299 298 294 297 296 298 297 297 298 297 296 290 290 287 291 290 288 290 290 291 292 291 292 292
316 315 314 314 312 309 299 300 300 296 294 293 292 292 293 295 297 299 299 299 298 295 294 296 296 298 298 299 296 294 293 289 286 282 288 289 287 290 290 289 290 290 287 292
315 315 315 314 313 309 302 301 300 294 291 292 293 296 296 294 295 295 296 297 295 296 298 296 295 294 294 294 293 295 291 289 288 282 285 279 290 294 295 292 294 294 293 294
315 315 315 315 313 312 303 303 299 295 290 293 294 295 293 293 292 292 293 293 294 296 294 290 288 288 290 291 293 293 291 289 284 282 282 287 291 293 292 291 291 294 293 295
313 313 314 314 313 312 305 303 304 299 293 292 295 293 292 289 287 288 290 293 295 295 292 291 285 285 287 285 288 294 292 290 286 277 278 279 289 293 296 294 286 296 296 296
312 312 313 314 313 312 308 305 306 302 295 296 297 293 292 294 291 288 288 290 293 296 292 288 283 286 287 284 284 285 285 285 283 283 281 285 293 295 296 284 286 297 298 298
311 312 312 313 313 311 308 307 307 304 299 299 300 299 294 293 294 291 292 294 293 291 288 287 286 285 287 285 287 287 286 282 283 284 280 279 295 295 290 293 295 296 296 299
310 311 312 312 313 312 312 305 307 307 302 301 304 304 304 300 299 295 293 295 292 293 289 288 287 285 285 285 283 289 285 289 288 288 286 294 295 295 295 296 295 293 293 295
308 310 311 312 312 312 312 307 306 304 299 299 301 301 305 307 306 305 295 297 299 297 299 295 293 289 287 284 285 286 290 294 289 290 292 292 295 293 295 295 294 295 294 295
308 309 310 311 312 313 311 307 307 307 302 297 300 305 302 307 308 306 305 301 302 301 300 294 292 292 294 290 290 288 291 291 290 290 293 293 294 294 294 293 294 293 292 292
309 309 310 311 311 312 311 309 308 310 303 296 298 303 303 304 306 306 305 302 300 297 294 290 288 295 294 294 289 285 292 291 288 287 293 292 292 295 294 293 293 293 291 289
307 308 309 310 310 312 308 301 307 310 309 299 291 301 299 301 302 304 303 302 300 298 292 290 295 297 294 287 287 292 293 295 295 292 293 294 294 293 292 291 291 291 290 288
306 308 309 309 310 306 302 300 303 308 309 298 290 293 297 299 301 300 300 300 299 297 295 293 294 294 295 291 286 291 293 292 293 293 293 291 290 290 288 289 289 291 290 290
306 307 308 309 306 305 301 301 305 307 302 299 287 289 292 297 295 294 299 296 297 296 294 294 293 294 293 288 290 291 292 293 293 290 291 291 289 287 287 289 289 287 287 286
307 308 308 303 300 297 298 302 304 304 300 291 290 287 286 296 294 295 295 296 290 296 292 292 293 291 287 290 291 292 291 290 290 286 284 282 285 287 289 287 286 285 284 284
307 303 298 291 295 301 301 298 295 292 294 293 290 292 287 293 293 290 290 291 287 284 289 292 288 287 291 291 293 292 291 290 286 284 282 284 286 285 288 286 287 287 286 283
300 293 290 295 299 296 292 288 288 290 286 290 290 290 287 291 288 287 288 286 286 282 284 285 283 282 286 290 289 285 283 285 286 285 284 285 286 286 288 287 287 284 281 278
298 294 296 295 290 286 284 284 285 285 284 288 287 288 291 289 290 286 288 284 284 278 286 282 278 282 286 286 285 284 286 286 286 286 285 283 286 286 285 284 279 279 278 277
297 290 287 287 286 281 280 277 281 282 284 285 286 285 288 289 290 287 286 281 280 282 280 278 279 284 284 282 284 284 284 285 284 282 281 281 283 284 282 279 278 277 276 276
289 286 282 280 277 278 276 277 280 283 283 284 286 284 285 284 285 284 279 284 281 276 276 276 280 281 284 284 283 283 282 283 283 281 279 277 277 277 277 277 276 276 275 276
287 286 278 277 279 279 275 275 278 279 283 285 282 283 284 283 282 283 280 278 276 277 276 279 278 277 278 282 282 282 282 282 282 280 278 277 277 276 276 276 276 276 276 276
286 285 281 283 280 281 279 278 278 281 284 279 280 282 280 278 281 280 278 277 274 278 279 279 276 282 282 281 281 281 282 281 281 280 278 277 276 275 275 276 276 276 276 275
284 283 282 278 281 282 281 282 282 285 280 275 280 275 273 277 278 276 276 276 280 278 278 278 279 280 282 281 280 280 281 281 281 280 279 277 277 276 275 274 275 275 276 275

GFSNW_sfc_thetae_006.txt.gz
Theta_e
317 317 317 316 316 315 306 301 295 311 314 299 298 298 302 303 304 306 304 302 298 298 299 297 295 295 298 303 303 297 298 292 286 289 293 294 292 291 289 285 283 283 282 285
316 317 317 316 315 313 300 296 301 311 310 296 294 299 300 302 302 302 303 302 304 303 299 295 298 298 303 304 301 298 299 292 286 287 291 293 291 292 291 290 288 285 283 286
316 316 316 316 315 314 302 297 295 300 299 297 296 297 296 298 304 303 303 302 304 300 298 299 296 297 301 302 301 304 301 292 290 288 289 292 290 293 292 290 285 285 286 287
316 315 315 315 314 313 303 295 293 296 294 294 294 296 298 296 297 302 303 300 300 299 295 295 295 297 298 300 302 298 296 290 290 290 291 291 291 292 292 290 289 287 287 289
316 314 315 314 313 312 299 295 293 295 293 294 293 293 292 295 296 298 298 296 296 297 294 295 295 297 296 296 297 296 295 290 290 287 290 290 288 289 289 290 291 291 290 291
316 315 314 314 313 308 297 298 298 294 293 291 290 291 293 295 298 298 297 299 296 292 293 295 296 298 298 298 296 294 292 289 286 283 288 289 286 288 288 287 288 289 285 290
315 314 314 314 313 308 300 299 298 292 289 291 292 294 294 294 294 294 294 296 294 295 296 296 295 294 294 295 293 294 290 287 286 283 284 279 287 292 293 290 291 291 292 293
314 314 314 314 314 312 301 301 297 293 288 292 293 292 292 292 291 291 292 292 292 294 293 290 288 288 289 290 293 292 291 287 284 282 281 286 289 292 291 290 289 293 293 294
313 313 313 314 314 312 303 301 301 296 292 290 294 292 290 289 288 288 289 292 294 293 292 291 284 284 286 285 288 292 290 289 286 278 278 280 287 293 295 292 284 294 295 294
312 312 312 313 313 312 307 303 304 301 293 294 294 290 291 291 289 287 287 289 290 293 290 288 284 286 287 285 285 284 284 284 282 282 280 284 291 294 294 284 284 294 295 294
310 311 312 312 313 311 308 304 304 302 296 296 299 298 293 293 291 291 291 292 292 290 288 288 285 285 286 284 286 285 284 281 281 282 279 278 293 293 289 291 293 293 293 293
310 311 311 312 313 312 311 304 305 305 301 299 302 302 302 298 299 293 291 294 291 292 289 287 286 285 283 284 283 287 285 288 286 286 285 292 293 293 294 295 294 292 293 293
308 309 311 312 313 312 310 304 303 303 299 298 299 299 304 305 303 302 294 294 296 295 296 290 289 287 286 283 284 284 288 291 289 289 290 291 293 293 293 294 294 295 294 293
308 309 310 311 312 312 311 306 307 306 301 294 298 304 301 305 306 305 302 300 302 301 300 295 293 292 291 287 288 287 289 290 289 288 291 292 292 293 293 293 293 292 292 292
308 310 310 311 311 312 310 308 308 309 302 296 297 301 302 303 306 304 304 302 300 297 295 293 292 295 292 288 287 288 290 289 287 286 291 291 291 292 293 292 292 293 291 290
308 308 309 310 311 311 307 300 307 309 307 298 288 299 298 302 304 303 302 301 300 298 295 292 294 296 290 285 286 290 291 293 293 291 292 292 292 291 291 290 291 291 288 287
307 308 309 309 308 305 301 297 302 306 308 296 289 292 297 299 301 300 300 300 298 298 295 293 293 293 291 287 286 290 291 293 291 291 292 289 290 289 289 289 289 290 290 291
307 308 309 307 306 305 300 301 305 307 301 298 287 289 292 298 295 294 299 296 297 296 294 294 292 293 292 287 289 289 291 290 290 290 291 290 288 287 286 289 289 287 287 287
307 308 307 303 300 297 297 303 304 304 300 291 290 286 286 296 294 295 295 296 291 295 292 292 292 289 287 288 289 289 290 289 289 287 284 281 285 286 286 287 287 286 286 285
307 303 298 292 296 301 301 298 295 292 294 294 289 293 288 293 293 290 290 290 288 285 289 292 289 287 290 290 292 292 291 290 287 283 280 276 277 285 284 285 286 285 287 286
300 293 290 295 299 296 292 288 286 289 287 291 291 291 289 293 288 288 290 285 286 281 280 285 283 280 284 288 288 285 283 285 286 285 283 284 285 285 285 285 285 286 284 280
298 294 296 295 290 287 283 284 285 285 282 288 288 288 290 290 291 287 288 284 284 279 286 283 279 282 285 286 284 284 285 286 286 286 285 284 285 285 285 285 284 282 279 277
296 291 287 287 286 280 279 275 280 281 283 286 286 286 288 289 288 286 285 282 281 285 281 276 278 282 283 282 284 283 282 283 283 282 282 282 284 284 283 281 279 278 276 276
289 286 282 280 278 279 278 276 277 280 284 287 287 285 286 286 285 285 281 283 283 278 275 275 280 281 283 283 283 282 281 282 283 282 281 279 279 280 279 279 277 275 275 276
286 285 279 279 275 279 277 281 281 282 285 286 284 283 283 283 282 283 282 279 276 276 276 280 278 276 277 282 281 281 281 281 281 281 280 279 277 276 275 276 275 275 275 275
286 283 276 279 281 280 273 269 282 283 284 282 279 282 278 279 278 279 276 275 274 278 280 278 275 281 280 281 282 281 281 281 281 281 281 280 277 276 275 275 275 275 275 275
284 278 281 276 276 280 277 279 281 286 279 275 281 271 272 280 276 273 276 277 280 281 277 275 278 280 282 283 282 281 280 280 280 280 280 280 278 275 274 274 275 275 275 275

GFSNW_sfc_thetae_009.txt.gz
Theta_e
317 317 317 317 316 314 304 298 293 310 313 301 301 297 302 301 301 306 304 300 297 294 294 295 296 294 296 303 301 296 295 289 286 287 292 292 290 289 288 284 282 281 280 284
316 316 317 316 316 312 299 295 300 311 309 295 296 301 301 304 303 303 302 298 300 301 296 295 295 297 301 302 300 298 298 290 285 286 290 291 290 290 289 288 287 283 281 284
316 315 316 316 315 313 301 296 292 300 304 298 299 297 298 299 304 303 303 302 303 298 296 297 294 296 300 301 300 303 300 291 288 286 288 291 289 291 290 289 284 284 284 286
316 315 315 315 315 313 302 294 292 294 290 293 297 297 299 297 298 303 303 301 301 299 294 293 294 297 297 300 301 298 295 289 289 288 290 291 291 291 290 288 287 286 286 287
315 315 314 314 314 311 299 293 292 293 292 293 294 294 294 295 296 300 299 298 298 299 296 295 294 296 296 296 296 294 293 288 288 284 288 288 286 288 291 290 290 289 289 289
314 314 314 314 313 307 296 296 297 293 292 290 290 291 294 296 296 297 299 298 295 294 293 295 296 297 296 296 295 293 291 288 285 281 286 286 283 287 287 287 288 289 286 289
313 314 314 314 313 306 299 298 297 292 289 290 291 293 293 295 295 294 294 296 294 295 297 295 297 296 295 295 293 293 289 287 286 282 284 280 287 292 292 290 291 291 294 294
313 314 314 314 314 311 299 299 296 292 288 290 291 291 290 291 291 291 291 292 293 294 294 292 290 290 291 291 292 291 292 289 285 284 282 285 288 291 290 290 290 294 294 295
313 313 313 314 314 312 301 300 300 294 291 291 293 291 289 288 287 288 289 292 293 294 292 290 284 284 286 285 288 291 290 289 287 281 280 281 288 293 295 293 286 293 294 294
312 312 312 313 313 312 305 301 302 298 291 293 292 290 291 290 290 288 287 289 290 293 290 287 282 285 287 284 285 284 285 285 284 284 282 285 291 293 294 284 284 292 293 293
311 311 312 312 313 311 307 303 303 301 293 294 297 297 292 292 292 291 290 292 292 289 288 287 286 286 286 285 285 284 283 281 282 283 281 281 292 292 289 290 292 293 292 292
310 311 311 312 313 312 309 302 304 303 298 297 300 300 300 297 297 292 290 293 291 292 288 286 285 285 283 284 283 286 285 288 286 286 285 291 291 292 293 294 293 292 292 293
310 310 311 312 313 312 310 302 302 301 298 297 298 297 302 304 302 300 294 293 295 294 294 289 287 286 285 283 283 283 287 290 288 288 289 290 291 292 293 294 293 294 293 292
309 310 310 312 313 312 311 303 304 302 298 294 297 303 299 303 304 302 300 298 299 298 296 291 290 289 289 285 287 286 288 290 288 288 289 290 291 291 292 293 292 291 291 291
308 309 310 311 312 311 310 308 306 307 300 296 295 299 300 302 304 301 301 300 297 295 292 291 292 294 293 288 287 288 289 289 287 286 290 290 290 292 292 291 291 291 290 289
308 309 310 310 311 311 307 299 306 307 307 298 290 299 296 300 301 300 299 299 298 295 294 292 294 296 291 285 282 288 290 292 292 291 291 291 292 291 290 290 289 289 288 287
308 309 309 310 309 304 300 295 301 306 307 296 290 291 297 298 300 299 300 300 298 298 295 293 293 293 292 286 284 288 290 292 290 290 292 290 289 288 287 288 289 290 289 288
308 309 309 307 307 304 299 301 305 305 301 296 287 288 291 298 295 294 298 296 297 296 294 294 292 293 291 285 288 287 289 290 290 290 290 289 288 287 286 286 288 288 287 288
308 308 307 303 299 297 298 303 304 303 298 289 289 286 285 296 294 295 294 295 291 295 292 291 292 289 285 287 288 289 290 288 289 284 282 283 284 285 284 283 284 286 286 287
307 302 295 291 296 301 301 298 296 292 293 293 287 292 288 293 292 290 290 290 288 285 289 292 289 288 291 289 291 290 290 290 287 283 283 280 275 278 282 283 284 288 287 284
300 292 290 295 300 296 292 288 288 289 284 291 289 290 288 293 288 288 289 285 285 281 283 286 283 278 282 285 285 284 283 287 286 285 282 282 283 284 284 284 285 284 284 283
298 294 296 295 290 287 284 285 285 285 281 286 288 288 291 290 291 287 287 284 284 278 284 283 276 278 282 284 282 283 284 285 285 285 286 283 283 283 284 284 284 284 283 278
296 291 287 288 286 280 279 277 280 281 283 287 287 286 288 289 289 286 285 281 280 284 281 278 276 279 281 281 283 282 282 284 284 284 282 283 283 283 283 283 282 280 277 276
288 285 281 282 279 278 278 275 278 280 286 287 288 285 286 287 285 286 282 283 283 277 272 271 275 278 283 283 282 282 282 282 282 282 282 281 280 280 281 281 280 277 276 276
285 285 281 280 275 276 271 279 284 284 289 287 285 284 283 282 282 283 282 279 277 276 272 275 276 277 279 282 282 281 281 280 280 280 280 280 279 277 276 276 276 275 275 275
285 282 275 279 276 279 279 278 283 285 286 282 282 280 279 280 281 280 279 275 271 274 274 277 274 280 280 281 282 281 280 280 280 279 280 280 279 278 276 275 274 274 274 274
284 281 281 275 272 278 281 282 285 287 287 280 280 272 273 280 276 273 275 275 276 275 274 273 277 280 280 281 282 283 282 280 279 279 280 280 280 277 274 274 274 274 275 274

GFSNW_sfc_thetae_012.txt.gz
Theta_e
317 317 316 317 317 314 305 297 292 311 312 298 299 292 299 301 301 305 302 300 297 293 295 294 293 293 297 302 300 293 293 288 284 287 291 291 289 288 287 284 281 280 280 283
316 316 316 316 316 311 298 294 301 311 309 295 296 301 300 302 301 301 301 297 300 299 296 293 297 298 302 302 299 295 295 288 284 288 290 290 289 288 287 287 285 280 280 284
315 315 315 315 315 313 300 294 292 302 304 302 297 298 298 298 304 302 303 300 301 298 296 298 295 295 300 301 301 303 301 290 287 285 286 290 287 288 287 288 283 282 283 286
314 315 314 314 315 314 300 293 291 296 293 295 296 298 300 298 298 303 303 299 299 297 292 293 294 295 295 297 302 297 295 289 288 287 290 291 290 291 288 287 288 286 287 287
314 314 314 314 314 311 298 292 291 292 292 294 296 294 296 297 296 299 298 297 298 298 296 295 293 295 295 293 294 294 293 288 287 284 287 287 286 290 289 288 288 286 287 288
314 313 313 313 314 308 296 295 298 293 293 292 292 293 295 296 297 298 297 299 297 293 294 294 296 295 295 296 294 292 290 287 286 282 285 285 282 286 289 288 289 290 287 290
313 312 313 314 314 307 299 297 296 291 289 292 292 294 295 296 295 296 294 297 297 296 296 296 297 296 295 295 292 293 289 287 286 281 283 277 285 290 289 288 288 289 291 292
312 312 313 314 314 311 298 298 296 292 287 290 290 291 291 291 291 291 292 293 294 296 294 293 292 291 293 290 290 290 290 288 284 282 280 284 288 289 289 290 289 293 293 294
311 312 313 313 314 312 300 298 298 293 290 290 291 290 289 289 287 288 291 293 295 295 294 291 286 286 289 286 287 290 290 290 287 282 280 280 286 292 294 294 287 294 295 294
311 312 312 312 313 312 304 300 301 295 290 292 291 289 290 290 288 287 288 289 291 293 290 288 285 286 288 284 285 284 285 284 283 284 282 285 291 293 294 285 286 294 294 293
312 312 312 312 313 312 307 301 301 299 292 293 297 296 291 291 291 288 289 291 291 290 288 287 285 285 286 284 286 284 284 282 282 283 281 281 291 292 288 290 291 293 293 293
311 311 312 312 312 312 309 301 303 302 296 295 299 300 299 297 297 291 290 292 290 292 289 287 286 285 283 285 284 286 285 287 285 286 285 291 291 292 293 294 292 292 292 292
310 310 311 312 313 313 311 304 301 300 296 296 296 296 301 303 301 300 294 292 294 293 293 288 287 286 285 284 284 283 285 289 288 288 289 290 292 293 293 294 293 293 292 292
309 310 310 312 313 312 311 306 306 302 297 293 295 301 297 301 302 300 299 298 298 296 294 290 289 288 288 285 287 286 288 289 288 287 288 290 291 291 293 293 292 292 292 290
309 309 310 311 312 311 309 307 307 307 301 295 296 300 299 301 301 300 300 298 296 293 292 290 289 289 289 285 286 286 288 288 287 286 290 290 290 292 292 292 291 290 289 287
309 309 310 311 311 310 306 301 306 306 305 296 291 299 296 301 301 299 298 298 295 293 291 289 290 293 289 282 283 288 289 290 291 290 290 290 291 291 289 289 288 287 287 286
308 309 309 310 309 304 299 296 300 306 306 297 290 290 297 298 300 299 299 300 298 295 292 289 289 290 290 285 283 288 289 291 290 290 291 289 287 288 287 287 289 290 289 288
309 309 309 308 307 304 300 302 304 304 300 296 287 288 293 298 295 294 298 296 297 295 293 292 291 291 292 285 287 287 289 289 289 288 288 289 287 286 285 285 285 284 284 287
309 308 307 303 299 297 300 304 303 299 298 289 288 286 284 296 294 295 294 295 291 295 292 291 292 290 284 288 287 288 288 289 288 284 283 282 283 286 282 282 281 282 284 287
307 302 296 291 296 302 300 296 293 290 289 290 287 289 288 291 292 289 290 290 288 285 290 292 288 286 290 289 290 290 290 289 286 283 282 279 276 276 281 283 284 284 285 287
299 292 290 296 300 295 289 287 285 288 284 291 287 287 288 293 288 287 289 284 283 276 282 286 280 280 282 284 285 285 286 288 286 286 283 283 283 282 283 283 283 284 284 283
297 295 297 295 290 285 282 285 281 285 281 285 289 288 288 289 291 287 286 282 279 279 285 284 275 279 281 283 281 282 286 286 285 284 285 284 284 283 283 283 283 283 283 282
296 292 288 289 286 280 281 279 281 276 280 287 287 286 289 288 288 285 280 280 278 283 281 280 277 277 279 280 282 281 282 284 284 284 283 283 283 283 282 282 282 280 280 278
288 285 281 284 280 281 281 276 277 280 286 288 288 285 284 287 285 286 281 282 282 278 276 272 274 278 282 282 282 282 282 283 283 282 282 280 280 280 280 281 280 279 277 277
285 286 281 280 275 276 272 273 283 285 290 287 285 283 285 283 282 281 278 279 276 279 272 275 275 278 280 281 281 281 280 281 280 280 280 280 279 278 278 278 277 277 276 276
285 282 278 279 274 278 279 282 284 286 287 285 284 278 279 278 279 279 275 274 273 274 273 274 275 279 281 282 281 281 280 280 279 279 279 280 279 279 278 276 275 274 274 274
284 281 280 274 270 275 281 284 285 287 287 279 279 277 278 281 278 277 274 273 274 272 272 273 278 281 281 281 282 282 281 280 279 278 279 279 279 277 276 276 276 274 274 274

GFSNW_sfc_thetae_015.txt.gz
Theta_e
316 316 317 316 316 312 306 296 295 311 312 296 295 291 294 298 300 301 299 298 294 290 290 290 291 292 295 303 300 291 292 288 286 287 292 293 292 291 290 286 283 283 283 286
315 315 316 316 315 310 297 294 301 310 308 292 291 296 296 297 300 299 300 298 298 295 291 291 294 296 300 302 300 294 295 288 284 288 291 292 289 288 289 288 287 282 283 287
315 315 315 315 315 312 300 294 296 301 302 301 297 297 297 297 304 302 303 298 299 295 294 298 293 296 300 302 300 303 300 290 288 286 287 290 288 288 288 290 285 284 284 288
315 314 314 314 314 313 300 293 291 297 293 295 296 299 299 295 297 302 303 299 298 295 292 294 294 296 296 299 303 298 296 290 288 287 290 291 290 290 288 288 290 289 289 288
315 314 314 313 314 312 298 292 290 292 293 294 297 297 297 297 298 299 298 297 298 299 293 294 293 295 296 295 296 294 294 289 288 285 288 290 289 290 290 290 288 289 289 289
315 314 313 313 313 309 296 295 295 293 295 292 294 294 296 297 298 300 296 299 297 297 294 295 300 299 297 297 294 291 292 287 287 284 286 286 284 287 289 290 289 292 288 294
314 313 312 313 313 308 300 296 295 292 290 292 293 294 297 296 296 298 294 297 296 297 296 297 298 297 295 297 292 293 292 288 287 282 284 278 288 290 292 291 289 291 291 291
313 312 312 313 314 312 302 298 296 292 289 292 292 293 292 291 293 292 293 293 294 296 295 297 294 293 292 291 291 290 290 290 285 282 281 285 288 289 289 289 289 291 292 293
312 312 312 313 313 313 302 298 298 294 289 288 291 290 291 289 287 291 291 294 297 297 295 292 288 286 290 287 288 291 291 292 288 283 282 280 288 292 294 294 287 295 295 294
312 311 311 312 313 313 305 300 299 294 290 291 289 289 290 291 288 289 290 291 293 297 293 288 286 286 289 285 284 285 285 285 283 284 282 285 291 293 294 286 288 295 295 294
312 311 312 312 312 313 308 302 300 297 293 293 295 294 289 291 290 289 290 293 292 292 291 290 287 287 287 286 286 285 285 284 283 283 282 281 292 293 289 291 292 294 293 293
311 311 312 312 312 312 310 303 302 301 295 295 298 298 298 295 296 291 290 292 290 293 289 287 286 285 284 286 284 286 285 287 285 286 286 291 292 292 293 294 293 293 293 293
311 311 311 312 312 313 310 305 301 298 295 297 296 295 301 302 300 300 294 293 294 293 292 288 287 286 285 284 285 284 286 289 287 287 289 289 291 292 293 294 293 294 294 293
310 310 310 311 312 313 311 305 305 301 296 292 295 300 296 301 301 300 298 296 297 295 294 290 288 287 287 284 287 286 287 289 287 286 288 290 291 291 292 292 292 292 292 292
310 310 310 311 311 312 310 307 307 307 299 295 296 299 298 299 299 299 299 298 295 293 291 290 290 290 289 285 286 285 288 288 287 286 290 290 290 292 293 292 290 291 291 289
309 309 310 310 311 310 306 301 306 306 306 298 291 298 297 298 299 298 297 296 294 292 291 288 289 291 288 283 284 288 288 290 291 290 290 290 290 290 290 289 288 288 288 288
308 309 309 310 310 305 300 298 302 306 306 296 290 291 297 298 300 298 297 297 296 296 292 289 288 289 289 285 283 288 289 290 289 290 291 289 288 288 288 288 290 291 288 288
308 309 309 308 307 305 300 303 304 304 299 296 287 288 293 298 295 294 298 296 297 294 293 292 289 290 288 284 287 286 288 288 288 287 288 290 287 286 286 286 285 284 284 286
309 308 307 303 300 298 300 304 303 302 299 289 288 286 286 296 294 295 294 295 291 295 292 292 292 288 282 287 286 287 287 288 287 283 284 285 285 285 284 282 282 284 284 285
307 302 297 292 297 302 302 296 295 292 293 291 287 289 288 293 292 289 290 291 288 286 290 292 289 287 289 289 289 290 290 289 286 285 281 280 277 281 282 283 284 285 284 285
299 293 290 296 300 295 290 287 283 287 285 290 289 288 288 292 287 287 289 284 284 281 284 287 283 281 285 286 286 286 287 289 289 288 286 286 284 282 282 283 283 284 284 285
297 295 297 295 290 286 282 280 282 285 282 287 288 286 287 287 289 286 284 278 277 273 285 285 278 281 282 283 284 285 287 287 285 284 284 284 284 283 283 283 283 283 283 283
297 293 288 288 286 281 277 279 280 275 279 287 287 285 287 285 285 281 279 274 273 282 280 278 279 279 279 280 282 283 285 285 283 283 282 283 283 283 282 282 282 281 281 280
289 286 283 284 281 280 279 278 278 281 285 288 287 285 285 284 279 283 275 279 281 274 271 274 276 277 281 281 281 283 282 283 283 282 282 282 281 281 281 282 281 280 279 279
285 286 282 282 277 276 271 274 283 285 290 287 284 282 283 282 282 280 279 278 277 278 273 274 274 275 279 281 281 281 281 281 280 280 280 280 279 279 278 278 278 278 278 277
285 283 279 279 275 277 280 279 285 286 288 285 282 277 275 278 278 279 271 274 272 274 275 275 275 281 281 281 281 280 280 280 279 279 279 280 279 279 278 276 276 275 275 275
284 279 280 276 272 277 281 284 286 288 288 276 277 276 275 279 276 278 274 273 275 273 273 275 278 282 281 281 281 280 280 280 279 279 279 279 279 277 276 276 276 274 274 273

GFSNW_sfc_thetae_018.txt.gz
Theta_e
317 317 317 317 317 314 309 304 296 310 310 293 293 289 293 297 296 298 295 296 293 291 292 291 291 291 296 301 301 296 300 297 292 293 296 301 302 298 299 292 289 292 292 294
316 316 316 316 316 311 303 300 301 310 308 290 291 294 294 295 294 295 294 296 296 296 292 289 293 295 300 304 301 298 300 295 290 290 295 296 295 300 301 299 295 292 291 294
316 315 315 315 316 313 305 302 296 300 301 301 296 293 292 293 299 299 299 299 300 294 292 296 292 296 300 304 303 304 302 297 294 290 293 297 294 297 298 298 293 293 293 296
316 315 314 315 315 313 304 300 298 300 292 293 296 296 296 294 296 302 303 299 298 295 290 294 295 300 300 303 304 303 300 294 296 295 296 297 296 295 295 295 297 294 297 295
316 314 314 314 314 312 302 298 297 298 300 299 297 295 295 296 296 298 296 297 299 299 295 297 295 299 299 299 302 301 301 295 294 292 294 296 293 296 297 298 299 298 298 297
315 314 313 313 313 310 301 300 301 299 298 296 296 296 297 299 299 300 299 302 300 298 300 304 305 306 304 303 300 299 299 297 293 291 292 292 290 295 295 296 298 298 294 300
315 314 313 313 313 310 304 301 303 297 293 295 295 295 299 298 300 297 297 304 300 299 302 304 305 304 301 298 295 303 298 295 294 291 290 284 296 296 300 298 299 300 300 299
314 314 313 313 313 312 305 302 303 299 295 295 294 294 295 295 295 293 296 294 297 299 298 300 294 293 294 293 293 294 298 294 292 288 288 292 292 293 294 295 296 299 299 298
313 313 312 312 313 313 306 302 306 300 295 295 294 293 295 294 293 293 293 296 299 301 298 298 289 287 290 287 291 293 294 298 294 290 285 285 293 296 298 299 292 299 300 299
311 312 312 312 312 313 307 303 306 302 296 297 296 296 295 296 294 292 292 294 297 299 296 290 290 290 293 289 288 288 290 292 292 290 288 291 295 297 299 290 293 299 300 300
312 312 311 311 312 312 308 305 306 305 298 300 301 299 294 295 297 295 294 295 295 295 294 292 291 290 293 291 293 293 291 291 290 290 288 286 298 296 294 298 300 301 301 301
309 312 311 311 312 312 310 304 306 306 302 301 303 304 303 300 298 295 294 297 295 298 295 293 293 290 290 292 288 292 291 295 292 293 293 295 297 297 298 302 299 298 299 299
308 312 312 312 312 313 311 306 305 303 303 302 302 300 305 305 304 305 298 297 299 297 300 296 295 293 294 290 291 291 292 294 293 292 293 294 296 297 299 300 298 299 299 299
307 312 312 312 312 313 311 305 307 306 303 298 299 304 302 305 304 304 302 301 300 300 300 298 296 294 293 293 293 294 295 295 293 291 293 295 296 298 298 297 298 297 298 298
306 311 311 311 311 311 311 308 307 309 304 298 298 302 302 304 304 302 303 302 301 300 299 299 296 294 294 293 294 293 295 295 294 295 298 299 298 298 299 297 297 298 296 295
306 310 310 310 310 311 307 301 306 307 308 301 295 301 300 302 304 303 302 301 300 300 300 297 297 296 297 295 294 297 297 297 298 298 299 297 299 298 298 297 296 296 296 296
309 309 309 309 310 308 302 300 304 307 307 297 291 294 299 301 302 302 302 303 301 301 297 296 297 296 296 294 293 296 297 298 296 297 296 293 296 295 296 295 295 294 294 294
309 309 309 310 308 305 301 304 305 307 301 298 288 289 294 300 297 297 300 300 301 298 297 296 296 295 295 291 296 293 295 295 295 296 294 298 295 294 292 293 292 290 290 291
308 309 308 304 301 299 301 304 304 303 300 291 290 288 288 299 295 296 296 297 293 297 295 295 296 294 291 296 295 293 293 295 293 290 291 292 291 290 289 289 289 289 289 290
308 304 298 293 298 303 303 300 299 295 294 293 290 294 290 294 293 291 292 292 290 288 291 293 290 291 296 295 296 296 295 294 291 288 286 286 285 286 289 289 290 290 290 290
300 294 292 297 301 297 293 289 292 291 288 292 291 292 291 294 290 289 291 288 287 286 288 289 288 286 291 291 292 294 294 293 295 296 295 294 292 290 288 288 289 289 289 289
298 297 297 296 292 290 287 287 286 286 286 290 290 290 292 291 293 289 288 285 285 283 289 286 283 288 286 290 290 292 293 293 291 293 292 290 289 289 289 289 288 289 289 289
298 294 289 290 288 283 283 281 283 282 286 288 288 287 290 290 291 286 285 283 283 287 283 282 286 285 284 287 289 290 291 288 288 288 288 288 287 288 288 288 288 288 288 287
289 286 284 285 283 285 284 285 285 287 288 288 289 286 288 288 287 286 282 283 284 279 277 279 285 285 286 286 288 290 287 287 287 286 287 287 287 287 287 287 287 287 286 285
286 288 284 284 282 280 278 281 285 288 292 289 287 287 287 284 284 284 283 280 278 279 279 283 285 284 284 285 288 289 286 285 284 285 285 285 284 284 283 284 284 285 283 282
285 284 280 280 281 280 281 283 286 288 291 288 289 284 282 280 283 280 279 278 277 282 284 285 283 284 285 285 288 287 285 286 285 285 284 284 284 284 284 282 281 281 281 280
284 281 283 280 280 281 283 286 288 291 289 285 285 283 282 283 280 279 280 279 283 283 282 283 286 285 284 284 284 284 283 283 283 283 283 283 283 282 282 282 279 279 278 278

GFSNW_sfc_thetae_021.txt.gz
Theta_e
314 316 317 317 317 317 309 302 293 310 311 294 294 288 290 296 295 297 295 296 294 292 292 291 291 290 294 299 299 294 298 295 286 291 296 304 302 299 300 294 291 295 294 293
310 315 316 317 317 313 304 299 301 309 306 289 289 292 292 294 294 296 294 294 297 296 293 290 293 295 299 301 299 296 300 294 287 287 292 297 298 300 302 301 298 294 291 294
309 314 315 316 316 313 305 300 295 300 300 300 295 291 291 291 298 295 297 296 299 295 293 295 293 295 300 303 300 304 303 297 294 290 293 296 295 298 300 300 295 295 296 296
309 313 315 315 315 313 305 299 297 300 292 293 295 296 295 293 293 298 298 297 297 295 290 292 293 296 299 301 303 302 301 294 296 297 298 299 298 298 299 298 300 295 298 297
307 312 314 314 315 314 302 296 296 302 298 297 295 294 293 293 294 298 295 295 297 298 292 293 294 297 299 298 302 300 303 295 297 294 297 298 295 298 299 299 300 299 299 299
309 311 313 313 314 310 302 302 303 301 299 299 296 296 294 294 297 299 301 299 299 297 297 300 305 305 304 304 301 298 298 296 295 291 295 295 291 296 297 298 300 300 296 302
307 309 312 313 313 312 305 302 303 297 293 296 296 298 298 297 299 298 300 302 300 304 307 308 305 303 304 304 304 304 299 297 296 292 293 285 297 299 301 299 300 302 303 304
306 307 313 313 313 312 306 303 301 299 295 297 297 296 297 296 297 295 298 299 302 302 305 299 294 293 295 295 295 300 303 298 293 290 290 295 297 295 296 297 298 303 302 303
305 307 313 313 313 313 308 304 305 301 297 297 298 297 297 296 294 294 295 299 303 301 301 298 288 287 290 289 291 294 300 301 295 292 287 286 294 298 300 302 293 304 304 303
305 306 309 312 312 312 308 305 306 303 298 301 299 297 297 299 297 293 296 298 301 301 298 295 292 290 294 289 288 287 291 293 290 291 290 295 297 299 301 291 294 300 303 303
304 306 310 312 312 312 309 305 305 304 301 303 302 301 297 296 300 296 295 298 297 299 295 295 293 293 294 295 295 291 290 290 290 292 290 287 300 298 294 299 302 302 303 303
304 305 306 312 312 312 311 304 306 309 305 303 306 305 305 301 300 298 295 297 298 301 296 297 297 291 293 295 290 297 293 298 294 297 296 298 300 300 301 304 303 303 302 302
303 305 307 312 312 313 311 305 305 306 302 304 303 302 306 307 306 305 298 297 300 298 300 298 297 294 297 293 294 295 296 296 296 294 296 297 298 299 301 304 302 302 302 301
304 305 307 312 312 312 311 305 306 308 306 299 301 307 304 307 307 304 304 302 302 300 301 299 297 296 296 296 296 296 296 296 296 294 295 296 298 300 301 301 301 300 301 301
303 304 306 311 311 312 312 309 307 310 305 299 298 304 305 306 305 303 303 303 302 302 299 299 298 297 296 296 296 295 297 297 294 295 300 300 299 300 301 299 298 299 298 298
303 304 306 310 310 311 308 301 307 309 309 302 295 303 302 304 306 304 303 303 303 304 304 301 299 299 299 297 295 300 300 301 301 300 302 301 301 301 302 300 300 300 299 298
303 305 308 309 310 310 303 301 305 309 308 300 293 295 301 303 304 304 304 305 303 304 301 300 300 299 299 297 295 300 300 300 299 300 300 298 299 297 300 299 298 298 297 297
304 306 309 309 309 306 303 304 306 307 301 299 289 291 296 301 300 300 303 303 304 301 300 299 299 298 298 295 300 299 300 299 298 299 298 300 301 299 297 297 295 294 293 294
305 309 308 306 302 300 302 304 304 304 301 291 291 288 288 300 297 299 299 302 298 300 298 299 298 298 294 299 299 296 298 297 297 295 296 297 295 293 293 293 293 292 291 292
308 305 299 294 299 304 304 300 297 294 295 295 293 297 291 296 294 291 294 294 292 288 292 296 293 294 301 300 300 300 299 298 294 290 288 287 287 289 291 292 292 292 291 291
301 295 295 298 303 298 294 290 293 294 290 293 293 296 292 296 291 290 292 289 290 288 291 291 292 290 295 294 297 299 299 296 297 299 296 296 294 293 292 291 291 291 291 291
299 298 299 297 293 292 289 289 288 288 289 292 291 293 296 292 294 290 289 288 288 285 292 288 284 291 289 292 294 297 296 296 296 297 296 296 294 292 291 290 290 291 291 290
299 296 289 293 289 286 285 282 284 285 289 289 289 288 292 292 294 288 289 285 286 289 285 284 288 288 288 292 294 294 295 293 294 291 291 291 290 291 290 289 290 291 290 290
290 288 284 287 284 287 288 289 289 291 290 289 291 289 291 291 289 289 285 286 286 282 280 282 288 288 289 291 292 290 289 289 288 289 289 288 288 288 289 290 290 289 288 287
286 289 285 285 285 283 283 286 288 290 293 291 290 290 289 287 285 287 284 281 280 282 283 287 288 287 288 290 291 288 287 287 288 289 288 287 287 287 286 287 287 287 286 284
285 285 283 283 284 282 283 285 287 292 292 293 294 286 285 282 285 282 282 281 281 286 288 288 287 287 288 291 288 287 286 286 287 287 287 286 286 286 284 284 284 283 283 282
285 283 286 285 286 285 286 288 289 294 290 289 289 285 284 285 282 282 285 283 287 287 286 288 288 287 289 290 286 285 285 286 286 285 286 285 285 285 285 283 281 280 280 279

GFSNW_sfc_thetae_024.txt.gz
Theta_e
309 309 310 313 317 316 311 302 294 309 311 295 295 289 292 295 294 297 294 294 293 291 291 289 289 289 293 298 296 290 292 289 285 289 296 300 300 297 296 288 288 290 287 286
308 308 309 313 316 315 306 298 300 309 307 289 289 293 292 293 293 294 293 292 295 296 292 288 291 293 298 300 296 294 295 290 285 286 294 299 296 299 297 297 295 289 285 286
307 308 308 310 316 314 307 300 294 299 300 299 294 291 290 289 295 294 296 295 296 294 292 293 291 293 299 300 297 302 301 292 288 287 291 296 294 296 297 295 289 289 289 289
306 308 309 309 315 313 306 299 296 298 290 292 294 295 293 291 289 295 296 294 294 294 289 290 290 294 297 300 300 300 299 292 294 295 297 297 296 296 296 295 295 289 292 292
305 305 307 311 315 312 303 295 295 299 298 296 294 294 292 292 293 295 294 292 296 296 291 291 289 295 295 294 299 296 298 292 295 292 297 297 295 297 297 297 297 296 296 294
305 306 307 313 314 311 302 302 302 299 297 296 294 294 293 294 296 296 298 297 296 296 297 297 301 300 300 301 297 296 296 294 292 288 293 292 288 293 297 298 299 298 294 298
304 304 306 307 312 312 306 302 302 296 291 294 295 297 298 296 296 295 298 300 297 302 305 305 303 301 301 301 301 300 294 294 295 290 288 280 293 295 298 296 297 299 299 299
303 304 306 308 313 313 307 303 302 299 293 297 296 296 297 297 298 298 298 302 302 300 301 297 294 293 294 294 294 297 300 296 291 287 286 291 292 293 293 294 294 299 298 300
303 303 305 307 313 313 308 304 306 301 296 294 298 295 298 294 294 294 295 299 301 302 299 295 286 286 290 287 291 295 299 300 291 284 282 282 290 294 297 297 288 297 299 298
304 303 305 307 310 313 309 305 307 303 296 300 298 295 295 300 296 293 295 297 299 301 296 292 288 288 294 287 288 288 292 292 290 288 286 289 294 294 297 287 289 297 298 299
304 303 305 307 307 312 310 305 307 304 299 301 302 302 297 297 299 294 296 296 298 297 294 294 291 291 292 292 292 291 290 289 289 290 287 284 296 294 291 295 296 297 298 298
303 303 305 306 311 312 311 304 306 307 301 302 305 305 305 301 301 299 296 297 297 300 295 294 294 290 291 292 288 296 291 294 292 293 293 297 297 297 297 300 298 298 297 297
303 303 305 306 309 312 310 305 305 304 300 301 302 300 305 306 304 305 297 298 300 298 299 297 294 291 293 288 289 290 295 296 291 292 292 294 296 296 296 299 298 298 298 298
303 303 304 305 307 312 311 305 306 306 303 296 299 306 303 307 305 304 304 303 303 301 301 298 296 294 294 294 293 292 293 293 292 290 292 294 295 296 298 298 298 298 298 297
302 302 303 304 307 311 311 309 307 309 303 297 298 303 304 305 304 302 302 303 301 300 298 297 296 296 294 293 293 291 294 293 291 291 296 295 294 297 298 297 296 297 296 295
301 302 303 304 308 310 307 300 307 308 308 300 293 302 301 302 303 302 301 301 301 301 300 299 297 298 296 290 290 298 296 298 298 296 297 298 298 298 298 296 296 296 295 295
301 302 303 305 309 309 302 300 304 309 308 299 292 294 300 302 303 302 301 302 301 301 298 297 296 295 295 293 292 298 297 296 297 298 298 294 295 294 296 296 296 297 294 293
301 302 304 306 309 307 303 305 307 308 302 299 289 290 295 301 299 297 300 299 300 298 297 295 295 294 294 291 297 296 296 296 295 295 295 296 296 295 293 292 292 290 290 291
301 304 305 306 303 300 301 305 305 304 301 291 290 287 287 299 296 298 297 298 296 297 295 295 295 294 288 295 296 294 295 293 293 291 292 293 292 290 289 289 289 289 288 289
304 303 300 294 299 305 304 300 297 294 294 295 291 296 290 295 294 291 293 293 291 287 291 293 292 290 297 298 297 295 295 293 292 289 287 288 287 288 289 288 288 289 288 288
301 296 293 299 304 299 296 290 290 292 288 292 293 294 291 295 291 289 292 288 287 286 288 289 288 287 292 291 293 295 294 293 293 293 291 291 291 290 288 287 288 288 288 287
300 297 298 297 294 291 288 287 287 287 286 291 291 293 294 292 294 289 289 286 285 284 289 286 284 286 286 289 290 293 292 293 294 294 293 292 290 289 288 288 287 287 287 287
299 295 289 292 288 285 283 282 284 284 289 288 288 287 290 291 291 287 285 280 280 286 284 283 283 283 286 288 291 291 292 294 293 292 291 289 288 288 288 287 287 287 286 286
290 288 284 286 284 284 284 284 285 286 289 289 288 287 288 288 286 286 277 282 282 277 276 277 282 283 286 288 288 287 286 288 288 288 288 287 287 286 287 287 287 286 284 283
285 287 285 284 284 283 284 286 286 289 292 289 288 286 286 284 284 283 282 280 275 278 278 281 281 281 284 286 286 287 287 287 287 287 286 285 285 284 283 283 283 283 281 280
285 285 283 284 284 281 283 285 286 290 291 288 288 284 277 280 280 278 274 274 274 278 281 280 280 284 286 284 284 285 287 286 286 286 285 284 282 281 280 280 280 280 280 279
284 283 285 285 284 283 284 287 288 293 290 285 283 278 276 283 279 274 279 277 279 279 278 279 280 282 284 284 284 285 285 285 285 284 282 281 281 281 279 277 277 277 276 276

GFSNW_sfc_thetae_027.txt.gz
Theta_e
306 307 308 308 309 310 312 303 295 308 309 293 293 289 291 295 294 297 294 293 292 290 290 287 286 287 291 297 295 289 292 289 283 286 296 298 296 292 292 283 285 288 285 284
306 306 307 308 309 310 306 299 300 308 306 288 289 293 293 294 293 293 292 291 293 294 290 288 288 290 297 298 294 291 292 286 284 286 291 296 292 294 294 293 294 289 283 284
306 306 306 307 308 309 308 300 293 299 301 299 293 291 291 290 295 293 294 293 295 294 290 292 289 289 296 297 296 299 296 290 286 286 290 292 289 293 297 295 289 289 288 289
306 305 305 307 308 310 306 300 295 297 290 292 294 294 293 290 288 293 295 291 294 292 288 289 289 293 295 297 299 298 297 288 291 292 292 295 295 295 295 293 294 291 289 291
305 304 305 306 307 313 303 296 296 298 294 295 293 293 292 292 292 293 291 291 294 293 290 290 287 293 294 294 297 295 297 289 292 292 297 295 294 296 296 296 296 295 294 292
305 305 304 307 307 310 302 301 302 300 297 294 292 292 292 293 295 295 297 295 295 293 294 297 297 298 298 298 295 292 294 292 292 286 294 294 289 294 295 295 295 296 292 295
304 305 304 306 306 310 305 303 301 296 292 295 294 296 296 294 296 293 297 297 296 299 302 303 299 300 299 301 299 298 292 292 293 288 287 281 292 294 298 298 298 298 298 299
304 305 304 306 306 312 306 302 302 298 292 295 295 295 295 297 297 296 296 300 302 299 298 294 291 293 294 294 293 298 296 294 290 284 283 288 291 292 291 292 292 297 299 298
303 305 304 305 306 309 307 304 306 301 296 294 297 294 296 292 293 293 296 299 302 301 297 293 286 286 290 289 291 297 297 297 291 282 281 281 288 293 294 294 287 294 294 296
303 304 304 305 306 309 308 304 307 303 295 299 299 294 294 299 297 293 295 297 298 301 295 291 286 287 293 285 287 289 291 292 289 286 284 287 294 294 295 285 287 295 295 296
303 304 303 304 306 308 309 304 307 304 298 300 302 301 296 296 298 293 296 296 297 296 292 292 288 290 292 290 288 288 290 289 289 287 286 282 294 292 288 292 294 295 294 294
302 303 304 304 306 307 310 302 307 308 301 301 305 304 304 301 301 300 296 296 297 299 295 295 292 289 292 293 288 291 287 292 292 292 291 296 295 294 296 298 296 294 294 294
302 303 303 304 305 307 311 304 305 304 300 300 301 300 303 305 303 305 297 298 300 297 299 295 293 289 291 288 289 288 293 297 292 292 294 293 295 294 296 297 296 295 296 295
302 303 303 304 305 307 309 304 306 305 302 295 297 304 301 305 304 303 304 303 303 301 302 298 295 292 293 292 292 291 293 294 292 290 290 292 293 294 296 296 296 296 296 296
302 302 302 303 305 306 310 307 306 308 302 296 297 301 302 303 303 302 302 304 302 300 298 297 295 297 296 293 291 289 292 292 291 291 295 294 294 296 297 296 296 296 295 293
301 301 302 303 304 305 307 300 307 308 308 299 293 302 300 301 301 301 299 301 301 301 300 298 298 298 295 289 289 294 294 295 297 295 296 295 296 296 296 295 294 295 295 295
301 301 302 303 304 305 301 299 304 309 308 299 291 293 300 302 301 300 299 301 300 300 298 296 296 294 294 292 291 297 294 295 296 296 297 294 294 293 295 295 295 295 293 293
300 301 301 304 305 307 302 305 307 309 303 299 288 290 293 300 297 295 299 296 297 297 296 295 294 293 293 290 295 294 294 294 294 294 295 296 294 293 292 292 292 290 290 290
300 301 302 302 303 300 301 305 305 304 301 292 290 287 287 298 296 297 297 297 293 295 293 294 294 292 288 293 295 293 293 294 292 291 292 293 291 290 289 289 289 289 288 288
300 300 297 294 300 305 305 301 297 294 295 295 291 295 290 295 293 291 293 293 290 287 291 293 290 290 295 295 294 294 293 293 292 290 287 288 288 288 288 288 288 289 289 288
299 296 293 299 305 299 296 290 290 291 288 293 293 294 291 295 291 290 290 286 286 286 287 288 286 287 291 290 291 292 292 292 292 292 291 292 291 289 287 286 287 288 288 287
298 298 298 298 294 290 288 287 287 288 287 290 291 292 294 292 294 290 290 286 284 284 287 285 283 286 286 288 288 289 290 291 291 292 291 291 288 288 287 287 286 287 287 286
298 294 289 291 287 284 283 283 284 284 288 289 289 287 290 290 291 287 284 279 280 284 282 281 282 283 285 287 288 289 290 291 292 292 291 289 288 288 288 287 287 286 285 284
289 285 283 285 283 285 285 286 283 285 286 288 289 287 288 288 286 284 276 282 281 276 275 276 278 281 285 286 286 287 286 289 288 288 288 287 287 286 287 286 285 285 284 282
285 285 284 284 282 282 284 284 287 286 291 289 287 285 283 285 284 283 281 279 276 277 277 279 278 279 281 283 283 285 287 287 287 287 287 286 286 285 283 283 283 282 281 280
285 285 282 284 283 281 283 285 286 288 290 286 286 283 275 279 279 277 271 273 273 278 279 277 277 283 283 283 284 285 287 286 286 286 285 284 283 282 280 280 279 279 278 277
284 281 284 283 281 279 284 286 288 292 287 283 280 276 276 277 271 271 275 275 278 284 275 276 277 280 281 282 284 285 285 285 284 284 282 280 280 279 278 276 275 276 276 276

GFSNW_sfc_thetae_030.txt.gz
Theta_e
305 305 307 307 308 308 307 302 291 307 308 294 292 288 291 295 293 297 294 293 292 290 291 288 284 284 288 294 293 287 291 288 282 284 291 292 289 287 287 280 278 284 283 283
306 305 307 306 307 308 302 299 298 306 305 286 288 292 292 294 293 293 292 291 293 294 290 287 287 289 294 296 294 291 292 286 280 284 287 293 287 290 289 289 289 282 281 283
305 305 306 306 306 307 303 299 291 298 300 298 292 290 290 290 296 294 294 292 294 292 290 292 289 289 293 296 296 298 295 288 284 282 287 291 288 289 291 288 283 283 285 288
304 305 306 306 308 307 304 299 294 297 289 291 293 293 293 290 290 294 295 290 291 291 288 288 287 291 293 296 298 296 293 286 286 287 288 290 292 291 292 288 289 284 287 289
303 305 305 305 307 308 303 296 295 296 293 295 294 293 291 291 292 292 290 289 292 293 290 289 285 290 292 293 295 294 296 286 287 288 295 292 291 293 293 292 291 288 295 294
302 305 306 305 306 306 302 301 300 298 294 294 292 292 292 293 295 295 296 293 292 292 293 296 296 296 296 297 295 292 292 290 287 287 293 292 287 289 294 291 296 298 293 295
302 304 305 305 306 306 305 303 299 297 292 293 293 294 294 293 294 293 296 297 295 298 302 299 297 296 296 296 297 297 292 290 292 288 287 281 291 293 298 297 298 298 297 295
301 303 305 305 305 307 306 303 301 298 292 296 295 295 295 295 297 295 296 298 300 302 299 292 291 288 291 291 292 297 298 291 290 284 282 287 290 291 291 294 293 297 297 295
301 303 304 305 305 307 306 304 306 302 296 294 298 295 296 293 292 293 296 300 302 300 296 293 284 283 289 288 291 294 295 294 292 282 279 280 287 291 293 293 287 293 294 294
301 302 305 305 305 306 306 305 306 302 296 299 299 294 295 297 295 292 295 296 297 300 294 290 286 287 292 286 286 287 291 289 287 284 283 286 293 292 294 285 286 293 294 295
300 302 304 304 304 306 306 305 307 303 298 300 302 301 296 297 297 291 295 296 297 296 291 292 288 286 292 286 286 291 289 286 287 288 282 280 294 292 288 291 293 294 293 293
300 301 303 304 304 306 306 302 307 308 301 300 306 305 305 303 301 299 297 296 297 299 294 291 293 290 291 292 283 288 288 291 290 289 289 294 293 293 295 296 295 293 292 294
300 302 303 303 304 306 306 304 305 305 300 300 300 299 304 305 304 307 297 298 300 299 298 294 292 288 289 287 288 286 290 295 291 292 294 292 293 294 296 296 294 293 294 294
300 302 303 303 303 304 306 304 306 305 301 294 297 304 300 305 304 305 305 304 303 301 301 297 294 291 291 289 290 290 292 293 291 290 290 291 292 293 294 294 295 294 294 293
300 301 302 302 303 304 305 307 306 308 302 295 297 301 302 303 302 301 303 303 302 301 298 297 294 295 294 292 291 289 292 293 292 291 295 294 293 295 296 295 294 294 293 291
301 301 301 302 302 303 302 300 306 307 307 298 293 301 300 300 301 300 299 301 302 301 299 298 298 298 296 291 291 295 295 296 298 296 296 294 295 295 296 294 294 294 293 293
300 300 301 301 302 302 300 299 302 308 308 299 291 293 299 302 300 299 298 300 300 300 298 297 297 295 296 292 290 296 294 295 295 297 297 294 294 293 294 294 294 294 293 292
300 301 301 302 303 303 301 305 308 308 302 299 288 290 294 300 297 294 299 296 297 297 297 295 295 293 293 289 294 293 294 294 294 294 294 295 294 293 292 293 293 291 290 289
300 300 301 301 300 299 301 306 306 304 301 292 290 287 287 298 296 297 296 297 292 294 292 293 293 291 288 293 294 293 293 294 291 290 292 293 291 290 290 290 289 289 288 288
300 298 296 293 300 305 305 301 297 295 295 295 291 295 291 295 293 291 293 292 290 286 290 293 290 289 295 296 294 293 293 292 292 290 286 287 287 288 288 289 289 289 288 287
298 294 293 300 305 300 297 291 290 291 288 293 294 294 291 295 290 290 291 287 287 285 288 289 286 286 289 288 290 292 292 292 292 293 292 292 292 289 287 287 287 287 288 287
293 293 296 298 294 290 288 287 287 288 287 291 292 292 293 292 294 291 289 286 286 284 287 286 283 284 284 287 288 288 290 290 290 291 290 289 288 288 287 287 286 287 287 286
296 294 289 290 288 286 284 283 284 285 288 289 289 288 290 291 292 287 286 285 284 284 282 281 283 282 284 285 287 288 289 289 289 289 288 288 287 289 288 286 288 287 285 284
288 285 283 285 284 286 286 285 285 285 286 289 290 287 288 289 286 286 275 283 281 274 276 278 279 282 285 285 286 287 287 288 287 287 288 288 287 286 287 287 287 286 283 281
285 284 282 284 284 283 283 283 286 287 290 290 287 286 287 285 284 283 282 279 274 278 279 278 275 279 279 282 283 284 286 287 287 288 287 286 286 285 283 284 283 282 281 280
285 284 282 284 283 282 283 285 286 288 290 287 287 284 283 283 283 275 274 274 274 280 280 275 276 281 281 282 283 284 287 287 287 286 286 285 284 283 280 280 279 279 279 277
284 280 283 283 283 279 284 286 288 291 287 286 278 279 277 276 271 272 274 275 278 275 275 274 276 280 281 282 283 284 285 284 285 284 283 281 280 280 279 276 275 276 275 276

GFSNW_sfc_thetae_033.txt.gz
Theta_e
302 304 306 307 307 308 305 299 288 307 308 288 291 288 290 294 293 295 293 293 291 289 289 288 284 283 287 292 291 286 289 287 281 283 290 292 290 286 286 279 275 279 280 280
302 304 305 307 307 307 301 292 296 306 302 284 286 292 291 294 292 292 291 291 293 294 290 288 288 287 292 293 291 288 291 285 279 282 286 289 287 288 287 286 284 278 275 279
302 303 305 306 306 307 301 293 287 297 296 296 291 290 290 289 295 294 294 292 294 291 290 292 287 288 292 294 293 298 295 288 283 280 284 287 285 287 287 285 281 281 282 284
301 303 304 305 306 307 303 295 290 293 286 289 291 292 290 289 290 294 296 292 291 290 288 288 288 289 291 294 297 296 293 284 287 287 288 289 288 286 286 284 285 282 285 285
302 302 304 306 306 307 300 293 295 297 293 294 292 291 290 290 292 292 290 290 291 291 289 289 285 289 290 290 295 294 294 286 287 285 290 289 287 289 288 289 287 288 290 288
301 301 304 306 305 306 299 300 301 297 295 293 291 291 292 292 295 295 295 293 292 291 293 296 296 294 295 294 293 292 290 288 286 284 289 289 285 290 288 290 291 289 286 292
301 301 303 305 306 305 302 301 300 296 290 293 292 294 294 293 295 293 296 296 293 297 302 301 299 296 295 294 294 297 291 290 288 286 287 281 290 296 295 292 293 295 294 296
300 301 302 304 306 306 302 304 300 294 292 293 293 294 294 295 296 295 295 297 299 302 299 293 288 285 288 290 293 295 296 293 289 286 281 287 289 293 292 290 290 296 295 297
300 300 302 303 305 305 303 304 305 299 292 294 298 295 296 293 293 293 296 300 302 300 296 292 284 281 284 287 290 293 295 296 290 286 279 279 287 291 294 294 288 297 298 296
300 300 301 303 305 305 304 305 306 302 294 298 298 293 295 297 295 292 294 296 297 299 292 289 285 284 291 284 286 287 290 290 287 284 284 286 291 293 293 284 286 293 294 294
301 300 301 304 304 304 304 303 307 304 297 299 302 301 296 297 296 291 294 294 297 295 290 290 285 284 289 285 286 290 289 285 285 288 282 279 293 292 287 291 292 292 292 293
300 300 301 303 304 304 305 302 307 308 300 300 305 305 305 303 302 298 297 295 296 298 292 291 291 286 287 287 283 287 286 289 287 288 287 293 293 293 295 295 294 292 292 293
299 300 301 303 303 304 304 302 306 304 300 300 299 299 305 307 305 307 295 298 300 299 297 294 293 288 289 286 287 285 290 293 290 291 291 291 293 294 295 295 293 293 293 293
300 301 302 302 303 303 304 301 306 305 300 294 296 304 301 305 305 305 305 303 304 302 300 297 293 289 291 288 289 289 291 292 290 289 291 293 292 293 294 293 293 293 292 293
301 301 301 301 302 303 303 303 305 307 301 295 296 302 302 303 303 302 304 302 301 301 298 295 293 295 292 290 289 287 291 292 291 291 295 294 292 295 295 294 293 293 292 290
300 301 301 301 302 302 300 300 305 306 307 298 292 302 300 300 301 299 299 300 301 300 299 297 298 297 296 291 291 296 294 295 298 297 296 294 294 295 295 294 293 293 292 291
299 300 301 301 301 300 297 297 301 307 307 299 291 293 299 301 299 298 298 300 299 300 298 297 296 295 296 293 290 295 293 295 295 295 295 293 293 292 294 294 293 293 290 290
299 300 301 301 301 302 299 304 307 307 302 300 288 290 294 300 297 296 298 297 298 297 297 296 295 294 294 289 293 294 292 293 293 293 294 295 294 293 292 293 292 290 288 288
300 301 301 300 299 297 301 307 306 304 301 292 290 287 286 298 296 297 297 297 291 294 292 293 294 292 288 293 293 292 292 294 291 290 291 292 291 290 290 290 289 288 287 287
300 297 296 292 299 306 305 302 298 294 295 295 292 294 291 294 294 291 293 292 290 286 290 291 289 288 293 295 295 294 294 292 292 290 286 287 287 288 288 289 289 289 288 286
295 293 291 296 305 300 297 291 290 291 288 293 291 294 291 294 290 290 290 287 287 283 285 289 285 286 288 288 290 291 292 292 291 292 292 292 292 289 287 286 287 288 288 287
293 292 295 295 294 291 288 287 288 288 286 291 292 291 292 292 294 292 290 285 286 282 286 286 283 284 285 286 287 287 290 291 291 291 291 290 289 289 288 287 286 286 286 285
296 292 286 288 288 285 285 283 285 286 285 289 289 288 291 292 292 288 287 285 285 284 282 280 281 281 284 284 287 287 288 289 288 287 288 288 287 288 287 286 286 286 284 283
287 284 282 284 284 285 285 285 286 286 286 289 290 287 288 289 287 286 283 284 281 275 274 275 278 281 284 284 285 286 286 287 286 286 287 287 287 285 286 285 285 284 282 280
285 284 281 284 284 283 284 285 285 287 288 289 288 287 288 285 284 282 281 280 276 278 278 277 276 277 278 282 284 285 285 285 285 286 285 285 286 284 283 284 284 282 281 279
285 284 282 284 283 283 284 285 285 288 288 287 288 285 284 284 283 275 275 275 276 281 277 275 272 280 280 281 283 284 285 286 286 286 286 285 284 283 281 281 281 280 279 277
284 279 281 281 283 283 284 286 288 292 288 286 284 283 284 277 276 272 274 277 280 273 278 273 275 277 280 281 282 283 284 284 285 284 282 282 282 282 281 277 276 276 276 276

GFSNW_sfc_thetae_036.txt.gz
Theta_e
303 303 303 305 307 307 305 298 288 305 308 289 289 287 291 294 292 294 292 290 289 287 288 287 286 283 287 291 290 286 289 286 280 281 289 292 289 286 286 279 275 278 275 278
303 302 303 305 306 307 300 293 294 306 303 283 285 291 291 292 292 291 290 289 291 292 289 286 289 288 292 292 290 287 289 284 276 277 286 289 286 287 287 286 285 278 273 277
302 302 303 304 306 307 301 293 288 295 295 294 290 289 288 288 294 292 293 291 293 291 290 291 287 289 293 293 292 295 294 287 282 279 283 287 284 286 286 285 280 279 279 281
302 302 302 304 306 307 301 293 288 292 285 287 292 292 291 288 288 292 294 291 291 289 288 288 288 291 290 293 295 294 292 285 286 287 288 288 287 287 286 284 284 279 282 283
302 301 302 304 305 306 300 293 292 295 290 293 291 292 287 288 290 290 290 289 291 291 289 290 287 289 290 289 292 291 293 286 288 285 289 289 286 288 288 287 287 285 285 284
302 301 302 303 305 305 297 300 300 293 291 292 290 290 290 290 293 293 293 293 292 290 292 295 296 295 295 293 292 292 291 288 286 283 289 288 285 287 288 288 289 288 283 288
302 301 301 303 304 305 300 300 298 292 290 291 291 293 293 293 293 291 295 296 292 297 301 301 298 297 295 295 294 295 290 289 288 284 287 280 290 295 294 290 291 291 290 292
302 301 301 302 304 306 301 302 300 296 291 293 293 294 293 295 296 295 295 297 300 302 298 293 289 288 287 290 292 292 293 291 288 285 284 286 288 292 291 287 289 294 293 294
301 301 301 302 304 305 302 301 304 300 293 292 296 293 295 293 292 293 296 301 302 300 294 290 284 280 283 285 286 293 293 294 290 286 283 279 287 290 296 296 289 297 296 295
301 301 300 301 304 304 302 301 307 301 293 296 298 294 294 298 294 291 294 296 296 299 291 288 285 283 290 285 285 288 289 290 287 287 284 286 292 293 295 284 286 294 297 297
301 301 300 301 303 304 302 301 305 303 295 296 300 300 296 297 296 290 294 293 295 293 289 289 287 282 287 283 286 289 287 287 286 286 284 279 294 292 288 290 291 293 292 293
300 300 301 301 303 304 303 300 307 308 300 299 304 305 303 302 301 298 297 295 295 297 291 291 291 284 285 285 281 286 285 289 286 288 287 293 293 294 295 295 294 291 291 291
299 301 302 302 302 303 302 300 303 303 299 298 299 298 303 307 306 307 296 297 300 299 299 295 292 289 287 284 285 284 288 292 289 290 291 292 292 293 294 294 293 292 292 291
299 301 301 302 302 303 303 299 303 303 298 292 294 304 301 305 306 306 306 302 303 302 301 297 294 288 290 287 288 288 290 291 290 290 292 292 293 292 292 292 293 292 292 290
299 300 300 301 302 302 302 301 303 307 300 295 296 302 303 304 304 303 304 302 299 299 297 296 293 296 291 289 289 287 291 292 290 289 296 293 292 293 293 292 291 291 290 289
299 299 299 300 301 302 299 299 305 306 306 298 291 302 300 300 302 300 300 300 300 300 299 297 297 296 296 289 290 294 293 293 295 295 294 294 294 294 294 292 292 292 290 289
298 299 300 300 301 299 294 296 301 304 306 298 291 293 299 300 300 299 298 300 299 299 298 297 297 296 296 293 287 294 294 293 293 294 295 293 294 293 293 293 292 292 289 289
299 300 300 300 301 301 297 302 304 304 302 299 288 290 294 299 297 295 299 297 298 298 297 296 295 294 294 290 294 293 292 292 292 292 294 295 294 293 291 291 291 289 287 287
299 301 301 298 298 296 301 307 307 305 301 292 290 287 287 297 296 297 296 297 293 295 293 294 294 292 289 293 292 292 292 293 290 290 291 292 292 290 290 290 289 287 286 286
300 298 295 292 298 305 306 302 298 294 295 296 292 293 290 293 294 291 293 292 291 286 291 292 290 290 292 293 294 293 293 291 291 290 287 288 288 289 289 289 289 288 287 285
294 289 289 294 299 300 297 291 290 292 288 293 290 292 291 294 291 290 291 287 287 285 284 288 286 286 286 287 289 292 292 291 291 291 292 293 293 290 288 287 287 287 287 285
294 293 295 294 293 290 288 287 287 288 287 291 292 291 292 291 294 291 290 287 286 281 285 286 282 285 285 286 287 289 290 291 291 291 290 290 290 290 289 288 286 285 284 284
294 291 285 287 287 284 285 282 285 286 286 288 289 287 291 292 292 288 287 285 285 284 282 281 281 282 284 285 286 287 288 289 288 288 289 289 288 289 288 286 285 285 283 283
287 284 282 283 284 285 285 284 284 284 286 288 290 287 288 290 287 287 285 284 283 276 277 276 278 280 283 284 285 286 285 286 286 286 287 286 286 284 285 285 285 283 281 280
285 284 281 284 285 284 284 285 285 287 289 288 288 287 288 285 285 284 282 280 278 278 278 278 276 276 277 282 283 284 284 284 284 285 285 285 285 284 283 283 283 281 280 279
285 284 282 284 282 283 284 285 285 288 289 288 288 285 284 284 281 278 275 274 276 282 277 275 271 280 280 281 283 283 284 284 285 285 285 285 284 283 281 281 281 280 279 277
283 281 282 282 282 282 284 286 288 291 288 286 285 283 285 278 272 273 277 277 281 275 276 276 274 275 280 280 282 283 284 284 285 285 284 282 282 281 280 277 276 276 276 276

GFSNW_sfc_thetae_039.txt.gz
Theta_e
304 303 303 304 305 307 303 297 287 304 307 287 286 286 289 295 292 293 291 291 288 286 287 286 286 285 286 291 290 287 289 286 278 280 288 290 288 286 285 279 278 281 279 279
303 303 303 304 305 306 299 291 291 305 301 283 285 291 291 293 292 291 290 289 291 291 288 285 288 289 292 291 289 286 289 285 278 277 284 288 286 287 288 286 284 280 276 279
303 303 302 303 305 307 301 292 286 291 294 292 288 288 288 289 295 292 292 291 292 291 289 291 288 289 293 292 292 295 293 286 280 277 282 287 284 286 286 284 280 281 281 282
303 303 301 303 304 306 301 293 287 291 285 288 291 291 290 288 287 292 292 289 290 289 286 287 287 290 290 292 294 293 291 284 286 286 287 288 286 286 286 283 284 281 284 283
303 302 301 302 305 306 298 291 289 294 290 291 291 291 289 289 289 290 289 288 290 291 288 289 286 289 289 288 292 291 293 286 288 285 289 289 286 289 288 288 287 285 286 285
302 302 302 302 304 304 296 297 299 293 292 290 290 290 289 290 292 291 292 292 290 290 291 294 295 296 295 294 292 291 291 288 286 282 288 288 286 289 288 288 289 288 284 288
302 302 302 301 303 304 300 298 297 291 288 291 290 291 292 290 291 291 293 293 292 296 301 300 298 296 295 294 293 295 290 288 288 284 287 279 290 295 295 290 291 292 291 291
302 302 302 301 303 305 300 300 297 294 290 291 292 292 291 293 294 293 293 296 298 302 298 291 289 288 289 290 293 292 293 290 287 284 284 287 289 290 292 289 290 294 292 293
302 302 301 300 302 304 301 299 302 298 293 291 294 291 292 289 291 291 294 300 302 300 294 290 285 277 283 282 286 291 292 292 288 285 283 280 287 291 296 294 288 295 294 294
302 301 300 302 302 304 301 299 304 301 294 293 295 291 291 296 294 292 294 296 297 299 291 287 285 281 287 283 285 288 288 287 284 285 284 285 292 292 295 285 289 294 297 297
301 300 301 302 303 304 301 298 303 300 294 294 298 300 294 294 295 291 294 293 294 293 288 288 287 283 285 283 284 289 288 287 286 287 284 280 293 291 288 291 294 295 295 297
299 300 301 302 303 303 303 297 302 304 299 296 301 302 302 300 301 297 296 294 294 295 291 289 289 284 285 284 281 285 285 288 285 287 287 293 294 294 295 295 294 294 293 294
299 299 299 301 301 303 302 298 300 303 299 298 297 296 302 306 305 307 296 297 299 298 300 295 294 289 286 283 284 283 287 291 289 290 292 292 294 294 294 293 293 292 292 291
299 301 300 300 300 301 303 297 300 299 298 290 293 304 300 305 307 306 305 302 303 301 300 297 294 289 292 286 287 287 289 291 290 290 293 293 293 294 292 292 293 291 290 289
299 299 299 300 300 301 301 299 301 302 300 294 296 302 302 304 305 304 305 303 300 298 296 296 293 295 291 288 287 286 290 291 290 290 295 293 292 294 294 292 291 290 289 287
298 299 299 300 300 300 298 296 304 306 306 297 291 301 300 301 302 301 301 301 300 299 298 297 297 295 294 291 287 293 292 294 296 295 293 293 293 294 294 292 290 290 288 287
298 299 300 300 300 298 293 294 299 302 301 297 291 292 299 301 300 299 299 300 299 298 298 297 297 295 295 291 287 294 294 295 294 294 294 292 294 293 293 292 291 290 288 287
299 300 301 301 301 300 296 300 303 302 301 299 289 289 293 300 296 295 298 296 298 298 297 297 295 295 294 291 294 294 292 291 291 292 294 295 294 293 291 291 290 288 286 286
299 301 300 297 295 294 299 307 305 306 300 292 290 287 287 297 296 297 296 297 293 296 293 294 294 292 289 292 293 292 293 292 291 291 292 293 291 290 290 290 289 287 285 285
300 299 296 292 297 300 304 302 298 295 295 296 292 294 290 293 294 292 293 292 290 286 291 292 290 290 293 292 293 293 292 291 292 289 288 288 288 289 289 290 290 288 286 284
292 289 288 294 298 300 297 290 290 291 288 292 292 290 289 294 291 290 290 287 287 285 286 287 286 286 287 287 289 290 291 291 291 292 293 293 293 291 288 287 287 286 285 283
293 293 295 294 293 291 288 287 287 288 287 290 291 292 292 292 294 289 290 287 286 282 284 285 282 285 285 285 286 287 289 291 290 290 291 291 290 290 288 287 286 285 284 283
294 291 285 287 287 283 285 283 285 285 287 288 289 288 292 292 292 288 288 286 284 283 283 282 282 283 285 285 286 286 288 289 288 288 288 289 288 289 287 285 285 284 283 282
287 285 280 283 283 284 285 281 278 283 286 288 290 287 288 290 287 287 285 285 284 280 278 275 278 280 283 284 285 287 286 286 286 286 287 286 286 285 285 285 284 283 281 280
285 284 278 282 284 285 284 283 285 286 289 288 288 287 288 286 285 284 283 281 279 278 277 278 275 275 276 282 283 284 284 284 284 285 285 284 284 283 282 283 283 282 280 279
285 285 279 283 283 283 284 285 285 286 290 287 287 286 284 284 284 281 279 274 276 280 277 275 270 280 280 281 282 283 283 283 284 284 284 284 283 282 280 281 280 280 279 278
284 282 283 282 279 281 283 285 287 291 288 286 286 284 282 280 278 277 277 277 282 279 275 279 276 275 280 280 281 282 283 283 284 284 284 282 281 281 279 276 277 277 277 276

GFSNW_sfc_thetae_042.txt.gz
Theta_e
304 304 304 303 304 306 304 296 286 304 307 288 287 288 289 295 293 296 294 293 291 289 290 288 288 288 290 295 295 290 292 287 282 284 292 293 292 288 287 281 280 282 282 282
304 304 304 303 304 306 299 292 290 304 303 286 287 291 292 294 293 293 292 291 294 294 290 287 290 291 295 295 293 291 292 285 281 284 288 290 287 289 289 288 286 281 279 283
303 303 303 302 304 306 302 292 286 292 295 295 292 289 290 290 296 293 295 293 295 293 290 292 289 290 294 295 294 296 295 288 285 282 286 289 285 287 288 285 282 284 284 286
303 303 303 302 304 306 301 290 287 292 287 290 292 293 292 290 289 294 295 292 292 291 288 289 289 291 292 294 294 294 292 285 287 288 289 289 289 287 287 285 285 282 287 287
303 303 303 302 303 306 298 288 287 292 292 293 292 293 291 291 291 292 291 291 292 292 290 291 288 290 290 290 294 292 293 286 288 285 290 290 287 291 291 291 290 287 287 287
303 302 303 302 303 304 296 297 298 293 292 291 291 290 292 292 294 294 295 294 293 291 293 296 296 296 296 295 293 291 290 287 286 283 290 289 288 291 291 291 290 290 285 291
303 302 303 301 302 304 300 298 296 291 288 290 291 293 294 293 294 293 295 296 294 297 302 301 299 296 295 295 295 296 291 289 288 284 287 282 292 297 295 293 293 293 293 295
302 302 301 302 303 303 300 300 296 293 289 292 292 293 294 295 296 294 296 297 300 303 298 292 289 290 289 291 293 293 294 291 286 284 284 289 292 294 293 291 291 298 296 297
302 302 301 303 303 304 302 300 301 297 291 291 295 294 295 293 294 294 296 302 305 301 294 290 285 284 287 286 290 294 293 292 287 286 281 282 292 296 297 297 290 296 297 298
301 300 301 302 303 304 302 298 302 299 294 298 297 294 294 298 297 294 296 298 297 300 291 287 285 286 290 286 287 287 287 288 284 284 283 289 297 296 299 288 290 296 297 299
300 299 300 301 301 303 301 298 302 298 297 301 302 302 299 299 299 293 296 295 294 293 288 288 288 288 290 290 292 291 288 286 284 285 285 283 298 298 293 296 298 297 297 299
298 299 300 300 301 301 302 296 302 302 297 301 305 306 306 304 303 299 298 296 294 296 291 290 293 290 291 291 288 294 289 294 292 292 292 299 299 299 301 299 298 297 296 297
299 300 301 300 300 301 300 298 299 301 300 303 302 301 306 309 307 308 297 297 300 298 301 296 296 290 294 290 291 293 296 297 295 294 299 299 300 299 298 296 296 295 294 296
299 299 300 299 300 301 300 298 300 298 297 295 297 306 303 307 308 307 306 303 303 302 300 296 295 292 295 294 293 294 297 296 296 296 299 301 299 298 297 295 294 293 292 293
299 299 300 300 300 300 301 300 300 302 298 294 297 303 304 305 305 305 305 303 301 299 296 294 294 298 294 295 294 293 297 297 296 296 299 299 297 296 296 295 292 292 291 290
298 298 299 300 300 299 298 297 303 304 302 297 292 303 302 302 303 303 302 302 300 299 297 297 299 301 298 294 292 300 299 300 301 300 299 297 297 297 296 293 292 291 290 290
298 299 300 300 301 299 293 295 300 302 300 298 293 293 300 301 301 300 299 301 299 299 298 297 298 298 298 296 292 299 300 301 300 300 299 296 297 296 295 293 291 290 289 289
298 300 302 302 300 299 295 301 303 302 299 300 290 292 294 300 297 295 299 297 298 297 297 298 296 296 295 291 299 300 300 298 297 298 298 298 296 293 291 292 290 288 287 286
299 301 301 300 297 294 299 302 304 305 301 294 292 289 288 298 297 298 297 298 293 297 294 295 294 294 291 297 299 298 299 297 296 295 295 295 293 291 290 290 290 288 286 286
299 299 296 293 298 300 300 302 298 296 297 298 293 296 292 297 296 294 294 293 291 287 293 294 291 292 299 297 296 298 297 297 295 293 290 290 290 290 290 290 289 290 287 286
295 291 289 295 299 299 297 291 291 292 289 295 294 294 293 297 292 292 293 289 288 287 288 289 290 289 293 292 292 294 295 296 296 296 296 296 296 293 292 290 290 288 287 285
293 293 296 294 293 291 288 287 288 288 288 293 292 294 294 295 296 292 292 288 288 284 288 286 284 291 290 290 291 292 294 295 295 295 295 296 295 293 292 290 288 287 286 284
295 291 286 289 287 284 285 284 286 286 290 290 290 291 294 295 294 290 290 286 286 288 286 284 288 290 289 289 290 291 293 293 293 292 294 294 292 292 290 288 287 286 285 284
288 285 281 284 284 286 285 285 284 287 288 289 291 289 290 292 289 289 286 286 285 284 281 284 289 286 286 288 289 290 290 291 291 291 291 290 290 289 288 287 287 285 283 283
286 285 279 283 286 286 286 286 287 289 291 290 289 289 290 288 287 286 285 284 282 283 284 289 287 283 283 287 288 289 289 289 289 290 289 288 287 287 286 287 286 284 283 282
285 285 283 285 284 285 286 286 287 290 291 288 288 287 287 287 287 284 285 282 281 287 287 287 283 284 286 287 287 287 288 288 288 288 288 287 286 285 284 284 283 283 282 280
285 283 284 284 283 283 285 286 287 290 288 286 286 284 286 285 284 283 284 283 289 287 286 283 282 283 285 285 286 286 286 286 287 286 287 285 284 284 282 281 281 281 281 280

GFSNW_sfc_thetae_045.txt.gz
Theta_e
305 304 304 305 304 305 303 296 287 304 307 289 289 288 291 295 294 297 295 294 292 290 291 289 290 289 292 297 297 291 293 289 284 286 293 294 292 289 288 281 282 284 283 284
304 304 304 305 304 305 300 292 290 306 304 287 288 292 292 294 293 294 294 293 294 295 291 288 291 293 296 297 296 293 293 287 282 285 288 292 288 290 290 289 287 282 280 284
304 304 304 304 304 306 302 291 287 293 295 297 291 290 289 291 297 295 297 295 296 294 292 294 291 292 294 297 296 297 296 289 286 284 287 290 285 289 290 286 282 284 285 287
304 304 303 303 303 306 302 290 288 292 288 291 292 294 292 290 290 296 297 294 294 293 289 291 291 293 293 295 296 295 293 286 288 289 289 290 289 289 290 286 286 282 286 287
304 303 304 302 303 306 299 290 289 292 294 294 293 293 292 291 292 293 292 293 294 294 291 292 290 293 292 291 294 293 293 286 288 285 290 291 290 292 293 292 291 290 290 288
303 303 303 302 304 305 297 298 297 293 293 293 292 292 293 293 295 295 296 296 294 292 294 297 298 298 297 297 293 291 290 287 285 283 290 290 288 293 293 292 293 291 287 293
303 303 302 303 304 304 302 299 296 291 288 292 292 293 295 294 296 294 296 297 295 298 303 301 300 298 296 296 295 296 290 289 287 285 289 282 293 299 297 294 294 296 296 296
303 302 301 303 304 305 302 302 296 293 288 292 292 294 294 297 297 297 296 298 301 304 300 294 290 290 291 292 294 294 295 291 287 284 284 288 292 296 293 292 292 296 297 299
302 301 301 301 302 303 303 300 301 297 290 293 296 294 296 294 294 295 297 302 305 302 296 291 284 285 288 287 289 295 293 293 288 286 281 280 293 297 298 299 290 299 297 299
300 300 300 300 301 302 301 300 302 297 292 299 299 295 294 298 297 295 297 298 298 300 292 287 286 285 291 286 287 286 286 287 284 283 283 288 297 299 301 289 291 298 297 298
299 299 300 301 301 301 300 299 303 297 294 298 301 302 299 299 300 295 298 295 295 294 289 288 288 288 290 290 293 290 288 285 284 287 284 282 300 300 294 298 300 299 298 298
300 299 300 301 300 301 301 297 302 302 295 299 307 307 308 305 305 301 300 298 296 297 292 291 293 289 293 291 287 296 289 293 291 291 291 300 302 301 303 302 300 300 298 299
300 300 300 300 300 300 301 298 300 300 300 303 303 302 308 310 309 309 299 301 301 298 302 296 294 291 295 289 291 294 297 300 295 295 300 301 303 305 301 299 299 298 296 299
300 300 299 301 301 300 300 298 300 297 295 295 299 308 305 309 310 308 308 304 304 303 301 296 294 291 299 294 295 295 298 298 297 297 300 303 300 300 299 297 296 295 295 297
299 299 299 299 300 301 300 300 301 301 296 293 298 305 306 307 307 305 306 303 301 299 296 293 292 298 295 298 296 295 300 298 296 295 301 301 299 299 299 297 293 294 294 294
299 298 299 300 301 301 297 297 301 303 302 296 293 305 303 304 304 303 303 303 301 299 296 295 298 303 299 295 293 300 303 304 304 301 302 300 299 299 298 295 293 293 293 293
298 299 300 301 301 300 293 294 298 303 300 297 293 295 301 302 301 301 300 301 299 299 297 296 297 298 299 295 292 299 302 303 304 304 301 299 299 298 296 293 291 292 291 291
298 299 301 302 302 299 296 301 303 303 298 300 292 292 296 301 297 295 300 297 297 297 297 298 297 298 298 291 298 301 303 303 302 301 301 300 299 296 294 292 291 289 288 288
298 300 301 300 297 293 298 301 303 303 301 295 293 290 289 299 297 298 297 298 291 298 293 295 295 294 290 296 300 302 302 300 300 298 298 297 295 292 291 290 290 288 288 288
298 300 296 293 298 300 300 301 298 297 298 299 293 298 293 298 297 296 295 294 292 287 292 294 291 292 299 302 301 301 301 300 298 295 292 292 290 290 290 290 290 289 288 287
297 292 290 296 299 298 297 293 292 294 290 295 296 294 294 299 293 293 294 290 288 286 288 289 291 291 296 295 295 297 298 299 299 300 300 297 295 293 290 290 290 290 288 286
293 292 296 294 294 292 288 288 289 289 288 294 293 294 296 297 298 292 292 289 289 285 291 287 285 293 292 292 293 295 296 297 298 297 297 297 298 296 294 290 290 289 287 286
297 292 287 289 289 285 285 284 286 287 291 290 290 291 294 296 296 291 291 286 286 290 286 285 290 293 291 291 292 293 295 296 295 295 297 298 297 297 294 291 289 287 286 286
290 286 283 285 285 286 286 286 286 289 289 290 292 291 290 293 291 292 287 289 287 285 282 285 292 288 288 290 292 293 292 293 293 293 294 294 293 292 292 290 288 287 285 284
287 286 282 284 287 288 287 288 288 291 292 290 291 290 291 290 288 289 288 285 284 285 286 292 290 287 287 289 291 292 292 292 292 292 292 291 290 289 288 288 287 286 284 284
286 285 284 286 285 286 288 287 288 292 291 290 289 287 287 288 289 286 285 284 283 289 291 290 288 287 288 289 289 289 291 291 291 291 291 290 289 288 287 287 286 285 284 282
285 285 286 286 286 286 287 288 289 291 289 287 286 285 286 287 286 285 288 285 287 286 287 287 286 285 285 286 288 288 289 289 290 289 289 288 287 286 285 283 283 283 283 282

GFSNW_sfc_thetae_048.txt.gz
Theta_e
305 305 305 305 304 307 303 294 286 304 306 288 288 287 289 293 293 297 295 294 292 289 290 288 288 287 292 296 296 290 293 289 283 284 291 293 292 287 286 276 274 279 276 280
305 304 304 305 304 306 300 291 291 304 302 283 284 291 291 292 293 294 294 293 294 293 290 286 291 291 295 297 295 292 292 286 279 283 286 291 285 288 288 287 284 279 277 280
304 304 304 304 304 306 300 292 286 293 295 294 290 289 288 290 296 296 297 294 295 292 291 293 290 290 294 296 296 299 296 289 280 277 284 288 281 286 287 286 281 281 282 283
304 304 304 304 306 307 301 292 288 291 287 289 292 293 291 289 290 296 297 294 294 292 289 290 289 292 292 295 296 293 291 283 285 287 288 288 287 286 287 285 285 282 284 286
304 304 303 303 306 307 299 290 288 290 291 294 292 293 290 291 292 293 292 292 294 294 291 292 289 291 291 289 292 292 293 283 287 281 288 288 285 288 289 289 290 289 290 290
304 303 302 303 305 305 297 298 297 293 293 292 291 291 291 293 295 296 297 295 293 292 294 296 296 297 296 295 291 290 290 287 284 281 288 288 284 289 290 292 294 293 288 293
303 302 302 302 304 304 300 299 296 291 288 291 292 293 295 294 295 293 296 297 294 297 301 300 298 296 295 294 294 294 289 288 287 280 284 278 289 297 296 292 295 296 295 297
301 301 301 301 302 303 299 300 296 292 288 292 293 293 294 296 297 295 295 298 300 302 298 292 289 289 290 291 293 293 294 291 286 282 282 286 290 294 291 291 292 297 295 298
300 300 300 301 302 302 299 300 301 296 290 290 295 294 295 293 293 294 297 301 303 300 294 290 284 280 286 286 288 294 293 293 287 283 279 277 288 294 297 297 288 298 297 297
300 300 300 301 302 301 299 298 302 297 291 295 297 293 294 298 296 294 297 297 297 299 292 288 283 283 289 283 285 286 287 287 284 283 282 284 292 297 299 288 289 297 298 297
300 300 300 300 301 301 299 297 302 297 293 295 300 302 298 297 297 293 296 293 294 293 289 288 287 285 287 286 288 287 284 283 283 284 282 278 296 296 292 296 298 300 298 298
300 300 300 300 301 301 300 295 301 301 294 295 304 306 307 305 304 300 299 296 294 296 291 291 292 287 288 288 284 293 287 289 286 287 286 294 297 297 299 299 297 297 296 297
300 300 300 300 301 302 300 296 298 298 296 299 301 301 307 310 307 308 297 297 299 297 300 295 293 289 291 286 287 290 292 295 291 291 295 295 297 299 297 296 295 295 294 297
300 300 300 299 300 300 300 296 299 297 294 293 299 307 303 308 308 307 306 302 303 301 300 295 293 290 295 289 291 291 294 295 293 292 295 296 297 296 296 295 294 294 293 296
300 299 299 299 300 301 300 298 299 300 294 292 296 303 305 306 305 304 304 302 300 298 295 293 291 295 293 295 293 290 295 293 291 291 297 296 293 295 296 294 292 293 293 294
299 299 299 300 300 301 297 293 301 302 300 295 292 302 301 301 302 302 303 302 301 299 296 294 296 299 297 292 290 296 297 299 300 296 297 296 296 295 294 292 291 292 292 292
299 299 299 300 301 299 292 293 297 302 299 295 292 293 300 302 301 301 300 301 299 299 296 295 296 296 298 293 288 295 297 299 299 299 298 295 295 292 291 291 290 291 291 290
298 299 300 302 302 300 294 299 302 301 296 298 290 290 294 300 296 295 300 296 297 297 296 297 295 296 296 291 294 297 299 298 297 298 298 297 294 292 290 289 289 287 286 286
298 299 301 299 296 293 297 301 303 303 299 293 291 288 287 299 297 298 296 297 290 296 292 294 295 293 289 293 295 297 298 296 295 295 295 293 291 289 289 288 289 287 286 285
299 299 295 292 297 300 300 299 296 295 298 298 292 296 291 296 296 294 294 294 291 286 292 294 291 291 296 297 296 296 297 296 295 292 288 288 287 288 288 289 289 288 287 286
294 290 290 295 299 297 297 292 291 292 289 294 295 294 292 298 291 292 293 288 287 285 287 288 288 289 291 290 291 293 294 295 296 296 294 294 293 291 290 289 289 288 287 284
293 292 295 294 293 291 288 287 289 288 287 293 292 292 294 295 297 292 292 287 287 284 289 286 284 289 289 289 289 291 292 293 294 294 296 296 295 293 292 290 289 287 285 284
297 292 287 289 289 285 285 283 285 286 289 288 289 289 293 294 294 290 289 285 285 289 285 284 285 288 287 287 289 290 292 293 294 294 296 297 295 294 291 289 288 285 284 284
289 286 283 284 284 285 285 286 286 288 288 289 290 289 290 292 289 290 286 287 285 283 282 283 285 284 285 287 289 291 292 292 292 292 293 293 292 291 290 287 286 285 284 283
286 285 281 283 286 287 286 286 287 289 290 289 289 288 289 287 286 287 285 284 283 284 282 285 284 284 284 286 287 288 290 290 290 290 290 290 289 288 287 286 285 284 283 282
286 285 283 285 284 285 286 286 286 290 290 289 288 286 286 285 286 284 284 282 282 284 283 283 284 283 284 284 285 287 288 288 289 289 289 288 287 285 285 285 284 284 283 281
285 282 285 283 284 285 286 287 288 290 288 286 286 284 285 285 283 283 286 284 283 278 281 281 282 282 283 283 284 286 287 287 287 287 287 286 285 284 283 282 281 281 281 281

GFSNW_sfc_thetae_051.txt.gz
Theta_e
305 305 305 304 306 307 304 293 286 300 303 285 287 286 289 289 291 296 294 292 289 287 289 287 288 286 289 294 293 288 293 288 280 281 289 291 289 286 284 272 271 273 277 278
305 304 305 304 306 307 300 292 292 300 297 280 282 290 288 289 293 294 294 292 293 292 289 285 289 290 294 296 294 291 291 286 279 282 287 290 285 289 287 284 280 272 273 277
304 304 304 305 306 307 296 292 284 291 293 293 289 287 287 288 296 295 296 294 294 292 289 291 289 288 294 296 296 299 296 287 277 275 280 285 280 284 285 285 277 279 278 282
304 304 303 304 306 307 299 292 288 290 286 288 291 291 290 289 290 295 296 292 293 292 289 290 289 290 290 294 296 294 291 279 283 285 287 287 285 284 285 280 284 281 284 284
304 303 302 303 305 305 294 291 288 291 289 293 291 291 290 290 292 292 291 290 294 292 289 290 288 290 288 288 289 289 290 279 285 279 286 287 284 286 286 287 287 287 287 287
302 302 302 302 303 303 295 297 297 292 290 292 290 289 290 292 294 295 295 293 292 291 292 294 294 294 294 292 289 289 289 284 282 277 286 285 280 286 287 287 290 291 287 293
301 300 301 301 303 302 297 298 296 290 285 290 290 293 294 294 295 291 294 296 293 296 299 298 296 294 293 292 290 292 289 287 283 277 282 277 287 293 294 290 293 296 296 297
301 301 300 301 303 302 297 298 296 292 287 290 291 292 294 295 295 293 295 297 298 300 296 291 289 288 289 289 291 293 293 288 285 280 280 283 290 293 291 289 290 298 296 297
300 301 300 300 301 302 297 298 301 295 290 286 292 292 294 292 289 291 295 300 301 298 293 289 281 280 284 285 288 293 293 292 286 282 276 276 289 293 295 296 288 297 298 297
300 300 300 301 301 301 298 297 301 296 291 293 292 290 290 296 292 291 295 296 295 296 290 286 280 281 287 283 283 286 286 287 284 282 279 283 290 294 297 285 286 296 298 299
300 300 300 300 300 300 297 295 301 295 291 292 296 300 294 295 294 290 294 291 293 292 286 287 287 283 285 284 286 286 284 282 282 284 281 276 293 294 290 294 295 297 297 297
300 300 300 300 300 301 301 294 299 301 292 293 298 301 304 302 300 297 298 294 293 295 291 290 291 285 286 286 281 287 285 286 284 285 284 291 293 295 295 296 294 293 296 296
300 300 300 300 299 300 299 295 297 297 294 297 298 298 306 307 305 307 297 298 298 295 299 294 291 288 290 284 285 286 290 293 289 290 294 294 295 294 295 294 292 292 294 296
300 300 299 299 299 300 299 295 298 296 292 290 297 305 300 305 306 305 304 300 300 299 298 294 292 290 293 289 289 288 292 292 291 291 294 293 294 295 293 292 292 292 292 295
300 300 299 299 299 300 298 297 298 298 292 291 292 299 301 303 303 301 300 299 296 294 295 294 291 295 293 291 290 287 292 291 290 290 297 296 293 293 293 291 291 291 293 292
299 299 299 299 300 301 296 291 300 301 299 294 290 301 297 298 299 301 301 300 300 299 296 294 296 299 296 290 289 293 294 295 297 295 296 295 294 292 292 290 290 291 292 292
299 299 299 300 301 297 291 292 297 301 299 294 291 292 297 299 297 300 300 301 299 299 296 294 295 295 297 291 288 293 297 296 298 299 297 293 292 291 290 290 290 291 289 290
299 299 300 301 302 299 293 297 301 300 295 296 289 289 291 299 296 294 300 296 297 296 295 296 294 295 294 289 293 294 296 298 296 296 296 295 292 289 288 288 287 286 286 286
299 300 300 299 294 291 296 301 302 302 297 292 291 286 285 298 297 297 296 296 290 295 292 293 295 292 288 293 294 296 297 297 294 293 292 291 289 287 287 286 286 285 285 285
301 299 294 291 296 300 300 298 296 294 296 296 292 295 288 294 295 293 294 294 290 286 291 294 291 290 296 291 290 292 293 295 295 294 290 287 285 286 287 287 287 287 286 285
291 289 289 294 299 297 295 291 290 292 289 294 294 293 291 297 291 292 293 288 287 284 287 287 286 288 290 288 289 290 291 291 292 294 296 294 291 289 288 288 288 288 286 284
292 292 294 294 293 291 288 287 287 288 287 292 291 292 293 294 296 291 291 286 286 283 290 286 283 287 286 286 287 289 291 291 292 295 295 294 293 291 290 289 287 286 284 283
295 292 287 289 288 284 284 283 284 285 289 288 288 289 292 294 293 290 288 285 285 289 285 284 285 285 286 286 287 289 291 291 292 293 296 295 293 293 291 289 287 285 283 283
288 285 279 283 283 285 286 285 285 287 287 288 290 288 289 292 289 290 285 288 286 282 281 282 283 284 284 286 287 288 289 291 291 291 293 294 292 290 290 288 286 284 283 283
283 285 280 282 285 286 285 285 286 288 289 289 289 287 286 286 286 287 284 283 281 283 282 283 283 283 283 284 284 286 287 288 290 290 290 290 288 287 285 285 285 285 283 282
285 284 283 284 282 284 285 285 285 288 289 288 287 286 285 284 285 284 283 281 281 283 281 282 282 283 283 283 284 285 286 287 287 288 288 287 286 285 284 284 283 283 282 280
284 281 285 284 284 285 285 287 287 290 287 285 285 284 284 285 283 283 284 283 281 280 281 278 280 281 281 282 284 284 284 285 285 286 286 285 284 283 282 281 282 282 282 281

GFSNW_sfc_thetae_054.txt.gz
Theta_e
305 305 304 306 307 309 302 291 286 298 303 284 286 284 288 289 289 295 294 291 290 287 287 286 285 285 288 292 292 287 290 285 281 284 288 290 288 285 282 272 270 270 277 276
305 305 304 305 306 307 294 292 289 298 296 282 284 288 288 289 291 294 294 290 291 291 287 285 287 287 293 294 291 289 289 283 276 279 284 290 284 286 286 282 278 271 271 276
304 304 303 303 305 307 294 287 283 288 291 291 289 286 286 289 295 294 294 291 292 290 288 290 287 289 294 295 295 299 294 285 277 275 279 283 278 284 285 283 274 276 276 280
302 302 303 303 304 305 294 292 287 290 285 288 290 291 291 291 290 294 294 291 291 290 288 288 287 290 291 294 297 294 290 279 281 283 286 286 285 283 283 281 283 276 281 282
302 301 301 302 304 304 297 290 289 291 290 293 291 291 290 290 291 292 291 290 293 292 289 289 287 289 288 287 291 291 290 279 284 279 285 285 283 286 285 285 285 284 285 284
302 301 301 302 304 301 294 296 297 292 290 289 290 289 290 292 293 294 295 295 292 290 292 293 293 293 292 291 288 287 287 282 282 276 284 283 278 284 286 285 287 288 284 289
301 301 301 301 303 301 297 296 296 290 283 288 289 291 292 292 293 291 295 295 293 295 297 297 296 294 292 291 290 291 286 286 283 277 280 275 285 291 291 287 289 292 294 297
301 301 301 301 301 302 296 298 296 292 284 287 289 291 292 293 294 293 294 296 297 299 296 289 287 286 289 290 291 292 291 286 284 281 278 281 288 291 290 289 289 295 296 298
301 300 300 301 301 301 297 298 300 295 289 284 291 289 293 290 288 290 294 299 300 297 291 288 280 280 284 284 287 293 293 292 284 283 274 275 286 291 295 295 286 296 298 297
301 300 300 300 301 301 297 296 300 295 290 292 293 289 291 297 293 288 291 294 293 294 287 284 279 281 287 282 283 285 287 288 284 282 280 281 289 291 296 282 285 295 296 296
300 300 300 300 300 300 297 295 300 295 290 292 295 298 293 294 293 288 291 289 291 289 284 287 285 282 284 283 285 286 284 283 283 283 280 276 292 293 289 292 295 295 295 297
300 300 300 299 299 300 299 291 299 300 292 292 296 298 299 300 299 295 295 293 293 295 291 289 290 286 285 284 280 287 284 285 282 284 283 290 291 293 297 295 294 293 292 294
300 300 300 299 299 299 298 294 297 297 293 294 295 297 302 303 303 304 293 295 298 295 299 293 290 285 288 285 283 283 288 292 288 288 293 291 294 294 294 293 292 292 292 294
300 300 300 299 299 298 299 293 298 295 291 289 294 304 299 305 304 303 302 299 299 297 297 293 292 289 290 287 288 287 290 292 290 289 294 294 293 294 293 292 291 292 292 295
299 299 299 299 298 299 299 295 298 298 292 289 293 297 299 301 302 299 299 298 295 293 294 293 291 295 292 289 288 285 290 289 288 288 296 297 296 293 293 291 290 291 292 293
299 299 299 298 299 300 295 289 298 299 297 291 289 300 300 296 297 297 297 297 296 298 296 294 296 298 294 289 289 292 294 294 296 293 296 295 293 292 291 290 289 290 292 293
300 299 299 299 300 297 290 291 297 301 299 292 290 292 298 297 300 300 299 301 299 299 296 295 295 294 296 292 285 292 296 297 296 299 297 293 293 292 290 290 290 291 290 292
299 299 300 301 302 299 293 297 300 300 294 294 289 289 290 298 296 294 299 296 297 297 295 296 294 295 294 289 291 292 294 297 295 294 294 293 290 288 287 287 287 287 286 286
298 301 301 296 291 287 294 302 302 300 296 291 291 286 281 298 296 297 296 296 290 295 291 293 294 292 288 290 290 291 293 293 294 295 293 290 288 287 286 286 285 285 284 284
299 299 294 289 294 300 300 297 295 294 295 294 292 294 288 293 294 293 294 294 289 285 290 294 291 289 291 289 289 290 289 290 291 291 292 290 288 286 286 285 285 286 285 283
289 287 289 293 299 296 294 291 290 291 288 293 293 293 291 296 290 291 294 288 286 284 287 287 286 287 286 287 286 287 288 289 289 290 292 294 294 289 288 287 288 287 286 284
291 290 294 294 292 291 287 286 288 288 287 292 291 292 293 294 296 291 292 286 285 283 289 285 283 287 285 285 285 286 290 291 291 291 292 295 295 292 290 289 287 287 285 283
295 292 287 288 288 283 282 281 285 285 289 288 288 288 292 294 293 290 288 285 285 289 285 283 285 284 285 285 286 286 289 290 291 290 294 294 292 292 290 288 286 285 284 284
288 284 281 283 283 284 286 285 285 287 287 288 290 288 289 292 288 289 285 288 286 282 281 282 283 283 283 284 285 285 287 288 289 291 292 294 292 290 289 288 286 285 283 283
283 285 279 282 284 286 285 285 286 287 289 289 289 287 288 286 286 286 285 283 281 283 282 281 282 282 283 283 284 285 285 286 288 289 289 291 290 289 287 286 286 284 282 281
284 284 282 284 282 284 285 285 285 288 288 288 287 286 285 284 285 283 283 281 280 282 281 281 281 282 282 282 283 284 285 285 286 287 288 288 287 286 284 285 284 283 282 281
281 277 284 284 283 284 285 287 287 289 287 285 285 284 284 285 283 282 283 282 281 281 278 277 279 279 280 281 283 283 284 284 284 284 284 285 284 283 282 281 282 283 282 281

GFSNW_sfc_thetae_057.txt.gz
Theta_e
305 305 304 304 305 308 299 289 279 297 300 284 285 282 287 290 290 295 293 291 289 286 288 286 286 285 287 292 291 286 289 284 283 285 288 290 287 284 281 272 271 271 275 275
303 303 303 304 305 306 292 287 286 296 295 280 283 289 289 290 291 292 292 289 291 291 286 284 286 286 292 293 291 288 289 281 272 281 286 289 284 285 282 280 276 269 270 276
303 302 302 303 305 305 293 286 281 288 289 290 288 286 287 289 293 291 292 290 291 289 287 289 286 287 293 293 293 298 293 283 277 274 278 282 276 283 283 283 274 274 275 278
302 302 302 303 305 304 293 289 286 291 285 286 290 292 292 289 288 292 293 290 291 290 286 287 286 289 290 292 297 292 289 279 281 283 285 285 283 283 283 280 281 275 278 281
302 302 302 302 304 303 294 290 288 292 290 293 290 291 289 290 290 291 290 289 291 291 288 288 286 288 287 287 289 289 288 279 282 278 284 285 282 285 284 284 285 284 285 284
302 301 301 301 302 300 293 296 297 292 287 286 287 288 289 290 292 295 296 294 291 290 291 292 292 292 291 290 288 286 287 281 280 274 283 283 278 283 284 285 285 287 283 288
302 301 300 301 301 301 296 296 295 287 282 285 286 289 291 292 292 291 294 295 291 294 297 296 295 293 291 290 289 290 285 283 284 278 280 276 283 288 289 287 288 289 291 293
302 301 300 300 301 301 296 298 295 291 285 285 287 289 291 292 293 292 294 296 296 298 294 289 286 287 288 290 290 289 289 285 283 280 278 280 286 290 287 286 288 292 291 294
301 301 300 300 301 301 296 297 299 295 288 283 289 289 290 288 287 289 293 298 298 296 290 287 280 281 283 284 287 293 291 291 283 282 276 274 283 290 294 294 286 295 297 297
300 301 300 300 300 300 295 296 299 295 290 291 294 289 288 293 289 287 290 293 293 293 286 283 279 282 288 282 283 285 287 287 284 282 280 280 287 290 295 283 285 296 294 295
301 300 301 300 300 300 295 293 300 295 290 291 293 295 292 293 294 289 290 288 289 288 284 283 283 281 284 282 284 286 284 283 283 284 280 275 290 292 288 293 296 297 295 296
300 300 301 300 299 299 297 288 299 300 291 290 294 296 298 298 297 296 292 291 292 294 290 288 290 286 286 283 280 285 283 285 282 283 282 289 292 293 296 297 295 294 293 294
300 300 300 300 299 299 297 293 295 296 292 293 294 293 300 299 298 301 291 293 298 296 298 293 291 284 286 283 285 282 287 290 286 287 291 291 293 293 293 295 292 291 292 295
301 300 300 300 299 299 298 292 295 295 290 287 293 302 298 303 304 302 300 298 297 295 297 293 291 289 289 284 285 285 289 290 290 289 291 294 295 295 296 294 291 290 291 294
300 299 300 299 299 299 296 297 296 297 290 288 291 297 297 300 301 300 298 297 294 292 293 293 291 294 292 291 288 284 289 288 286 285 292 294 294 296 295 292 291 291 292 293
299 300 300 299 299 299 296 287 294 298 296 289 289 299 297 297 296 296 295 296 294 296 296 294 295 297 294 289 288 291 293 293 293 292 293 295 295 294 292 291 290 290 292 294
300 300 299 299 300 296 290 290 296 299 297 290 289 290 298 300 297 297 298 298 299 298 296 295 295 294 296 292 286 291 293 295 297 297 297 294 292 292 290 289 290 292 290 292
300 299 299 301 302 299 293 297 299 300 294 294 288 289 290 298 295 294 299 296 297 297 295 296 294 294 294 289 291 291 291 292 295 294 293 292 290 287 287 287 287 287 287 288
299 299 302 294 292 286 292 302 302 299 294 290 290 287 280 298 296 297 296 297 290 294 291 292 294 292 287 287 286 287 289 289 290 292 293 293 291 289 286 285 285 285 284 285
298 297 291 288 290 300 300 297 293 292 294 293 290 293 288 294 293 291 294 293 289 285 290 294 290 289 289 288 288 288 288 288 289 288 288 292 290 290 289 285 286 286 284 284
289 286 285 291 298 295 293 289 288 290 288 293 292 291 290 295 290 291 292 287 286 284 287 287 286 287 286 287 285 286 286 288 288 288 289 290 291 292 291 288 288 286 285 285
289 290 293 293 292 290 287 287 287 287 285 291 291 292 293 294 296 291 291 286 285 282 288 285 282 285 284 284 283 284 285 289 290 291 291 290 291 293 293 290 288 287 286 284
295 291 287 288 288 283 282 281 283 284 288 288 288 288 292 294 294 290 288 284 284 288 284 283 284 283 284 283 283 284 287 289 290 290 291 292 291 291 289 288 287 285 284 284
288 284 279 282 282 284 285 285 285 287 287 288 290 288 289 291 289 289 285 288 286 281 280 281 282 281 282 283 283 284 285 287 288 288 289 293 292 289 288 286 285 285 283 284
283 284 276 277 283 285 285 285 286 288 289 289 288 287 288 286 286 286 285 283 281 282 280 280 281 282 282 282 283 283 284 285 285 287 287 289 289 289 287 287 286 285 284 283
283 283 281 282 282 281 285 285 285 288 289 289 288 286 285 284 285 283 283 281 280 280 281 280 278 281 281 282 282 283 284 284 284 285 285 287 288 287 286 286 285 282 281 279
282 280 282 283 282 283 285 287 288 289 287 285 285 284 279 285 283 282 284 282 280 277 280 276 278 278 278 279 282 283 283 283 283 283 283 282 283 284 284 283 283 283 283 281

GFSNW_sfc_thetae_060.txt.gz
Theta_e
303 304 303 304 306 306 298 288 278 295 297 285 285 285 288 290 291 293 291 290 288 285 286 284 284 284 287 292 291 286 288 285 282 284 287 289 287 284 280 273 272 273 274 276
303 303 303 303 305 305 294 284 285 295 296 284 285 289 290 291 291 291 290 288 291 290 285 283 285 286 291 292 291 288 288 281 277 281 286 288 284 284 282 279 276 274 271 275
303 302 303 302 304 305 292 286 282 288 292 292 289 288 287 287 292 291 291 289 291 289 286 288 286 287 292 292 292 297 292 282 277 275 278 282 277 283 282 279 272 274 274 278
303 302 302 302 303 304 292 287 285 290 286 289 290 292 291 288 287 292 293 290 290 288 285 286 286 288 288 292 297 290 288 280 280 282 284 284 283 283 282 278 279 275 278 279
303 302 301 302 302 303 295 289 288 291 289 290 288 290 289 289 290 290 289 288 290 290 287 287 285 287 285 286 288 287 287 278 281 278 284 284 282 284 283 283 284 282 283 283
302 302 301 301 302 300 292 295 296 292 286 284 284 285 288 290 291 294 294 293 290 288 290 291 291 291 289 289 287 286 285 281 278 274 282 282 278 283 284 283 284 285 280 288
302 301 301 301 301 300 296 295 294 289 282 284 286 288 290 291 292 291 294 294 291 294 296 294 294 292 290 289 288 289 284 284 282 279 279 275 283 287 288 286 287 287 289 291
301 301 301 300 300 301 294 297 294 291 285 284 289 288 289 290 292 291 293 295 296 297 293 289 287 287 286 289 289 289 290 287 283 279 278 280 285 288 286 285 287 290 289 292
301 300 301 300 300 300 293 297 298 294 288 283 289 288 288 286 285 288 292 296 297 295 290 286 280 280 283 284 287 292 291 289 282 281 276 274 282 289 292 292 288 295 294 293
301 301 300 301 299 300 294 293 298 294 290 291 293 289 288 291 288 287 289 292 292 292 285 283 279 282 287 282 283 283 286 286 282 280 280 279 286 290 293 285 285 295 296 294
301 300 301 301 300 299 294 290 298 293 289 290 291 293 293 293 290 287 289 287 289 287 283 282 281 280 284 282 283 285 284 282 283 283 279 275 288 292 289 293 295 295 293 294
302 300 300 300 301 299 297 287 295 299 290 289 293 295 297 298 300 296 292 289 291 292 289 286 288 286 285 281 278 283 283 284 283 283 282 288 292 294 296 296 295 293 291 292
301 301 300 300 301 299 297 292 294 292 291 292 293 291 297 299 297 299 290 292 297 295 297 293 290 283 285 281 282 280 284 288 286 285 290 289 292 293 293 294 293 292 290 293
301 301 300 300 300 299 298 290 292 294 290 286 292 301 297 302 299 299 298 297 296 294 297 293 291 288 288 283 284 284 287 288 287 287 289 292 293 296 296 295 293 291 291 293
300 300 300 300 300 299 296 292 293 296 290 286 289 296 298 301 303 301 298 296 293 291 292 292 290 293 291 289 286 283 288 287 285 284 290 291 292 296 296 294 292 291 290 292
300 300 301 300 300 299 295 287 290 296 294 287 287 298 294 296 300 299 297 295 294 296 295 294 295 297 293 285 285 290 290 293 294 292 291 293 294 294 292 291 291 290 290 292
299 300 300 299 300 296 290 286 295 298 296 288 287 289 297 300 299 298 298 299 298 298 296 294 294 294 295 291 286 289 290 290 291 294 295 294 294 291 291 290 289 291 289 291
300 300 299 300 301 299 291 295 299 299 291 291 286 289 290 299 296 294 299 296 298 296 294 295 293 294 294 288 292 287 288 289 290 290 292 292 291 289 287 287 287 287 288 288
300 298 300 294 292 289 289 300 300 298 292 286 289 287 284 297 296 296 296 297 291 294 291 292 294 291 287 289 287 287 288 288 287 290 291 292 291 291 290 288 287 286 286 286
297 295 293 288 288 297 300 296 290 289 291 291 289 292 287 295 294 293 293 293 289 285 289 294 290 288 288 287 287 288 287 287 286 287 288 289 289 291 291 288 288 288 286 285
288 284 284 291 297 295 292 288 287 288 287 291 292 292 290 294 289 290 293 287 286 284 287 288 286 286 286 286 286 285 284 285 288 289 289 288 288 288 289 292 290 288 287 286
288 289 293 293 291 289 286 286 287 286 285 291 291 292 293 293 295 290 291 285 285 282 288 285 283 284 284 284 284 283 284 287 289 290 290 291 291 290 290 291 291 288 287 285
295 291 287 287 287 282 282 279 283 284 288 288 288 289 292 293 294 290 288 285 284 288 284 282 283 283 284 283 283 282 286 288 288 289 289 290 292 289 289 288 287 286 284 283
288 284 280 282 280 284 285 285 279 287 287 288 290 288 289 291 288 289 285 288 286 280 274 276 282 282 282 282 283 283 285 286 287 287 288 288 290 289 287 286 286 285 284 284
284 284 278 279 282 284 285 285 286 288 289 289 289 287 288 286 285 286 285 283 281 281 279 278 280 280 281 282 282 283 284 284 285 286 285 286 288 288 287 286 286 285 284 283
284 283 281 282 282 282 284 285 285 288 289 289 287 286 285 283 284 283 282 280 278 278 280 278 278 281 281 280 282 283 283 283 284 284 284 284 285 286 285 286 285 284 284 282
282 280 282 282 283 282 284 287 287 289 287 284 285 283 282 285 283 282 284 281 277 275 279 280 279 279 279 279 281 283 282 282 282 282 282 282 282 284 285 284 284 282 282 281

GFSNW_sfc_thetae_063.txt.gz
Theta_e
304 303 304 304 305 306 298 287 280 294 296 288 287 286 289 292 291 293 291 289 288 285 285 284 283 284 287 291 291 286 288 285 282 284 288 290 287 284 281 275 274 275 275 278
304 303 303 304 305 305 296 284 284 294 294 285 286 290 291 292 290 289 289 288 289 288 285 283 285 286 291 292 291 288 288 281 279 281 285 288 285 285 283 281 279 275 274 278
304 303 302 303 304 305 291 286 282 288 289 291 290 288 284 286 292 290 290 289 290 287 285 287 285 287 291 292 293 296 291 283 279 277 280 284 279 283 283 281 277 277 276 279
303 303 302 302 303 304 292 287 285 290 285 285 288 288 288 287 287 291 292 289 289 287 284 285 285 287 288 292 294 290 288 280 281 283 285 285 283 284 282 278 280 278 280 280
303 302 301 302 303 302 293 287 288 290 288 286 286 288 287 287 289 289 288 287 289 289 286 286 284 286 285 285 288 287 287 280 282 279 284 284 283 284 284 283 284 282 283 283
302 301 301 301 302 300 291 294 296 292 286 283 284 287 287 288 290 293 293 291 289 287 288 290 290 290 289 289 287 285 285 282 279 276 282 283 279 283 284 284 285 286 282 287
302 301 301 300 301 299 296 295 294 289 284 286 287 288 289 290 291 290 294 294 290 293 295 293 293 291 290 289 288 289 284 283 282 278 280 275 283 287 288 286 286 288 288 291
303 301 300 301 300 301 293 297 293 291 284 285 289 288 287 289 290 289 291 294 295 296 292 288 287 286 286 289 290 288 290 288 283 279 277 280 286 287 286 286 287 290 289 292
303 301 301 300 300 300 292 296 298 293 287 282 288 288 287 285 284 287 290 295 296 294 289 286 280 279 282 283 286 292 291 289 282 278 274 274 282 291 292 292 288 296 293 294
303 300 300 301 300 299 292 292 297 294 289 292 292 289 288 293 287 286 287 291 291 291 286 283 280 283 287 281 283 284 285 286 281 279 276 280 286 290 291 284 288 296 296 296
302 302 300 301 300 299 292 289 296 293 288 289 290 292 291 295 291 286 289 287 288 286 283 282 282 281 286 283 285 285 283 282 282 283 277 275 288 291 289 295 294 295 294 295
301 302 300 300 300 300 297 286 293 296 290 287 291 293 295 296 296 296 292 288 289 290 285 283 286 285 285 282 281 286 282 283 283 283 282 289 292 292 296 295 293 293 293 293
301 301 301 300 300 300 297 291 293 290 289 289 291 289 295 296 297 301 290 291 296 295 297 292 290 283 285 280 284 282 284 287 286 286 290 288 292 294 294 295 295 292 292 292
300 301 300 299 299 300 299 292 290 292 290 285 288 300 295 301 299 298 297 297 297 296 297 293 290 287 287 282 284 283 286 287 286 286 289 291 293 294 296 297 295 293 292 293
300 300 300 300 301 301 297 292 291 293 288 285 287 292 297 301 299 298 299 297 293 293 293 292 290 293 290 285 285 285 287 286 284 284 290 290 291 294 297 296 295 294 291 291
300 300 299 301 300 299 294 286 292 293 294 287 283 297 295 295 300 300 298 295 295 296 295 294 294 296 291 284 282 288 289 290 292 291 294 292 293 293 293 293 292 291 291 292
300 299 300 300 299 296 288 284 294 297 295 287 284 288 295 300 299 299 298 298 298 297 296 294 294 293 295 289 284 289 290 288 289 291 292 291 293 292 292 290 290 292 291 291
300 300 300 299 300 299 294 293 299 297 291 289 284 287 290 299 295 294 299 296 297 296 294 295 293 294 293 288 292 289 287 288 289 288 289 290 290 291 291 288 288 288 289 289
300 299 298 294 289 286 287 298 300 296 291 284 287 285 284 297 295 296 296 296 291 295 292 292 293 290 287 290 288 288 288 286 287 287 289 291 291 292 292 289 289 287 288 287
297 293 292 286 287 295 299 295 289 289 289 288 286 293 287 294 294 292 292 293 289 286 289 294 290 289 286 287 287 288 287 287 286 286 287 288 287 289 290 291 290 289 289 288
287 285 284 290 296 295 291 287 285 286 285 289 290 291 290 294 290 290 293 288 287 284 286 288 286 286 286 286 285 286 285 285 285 288 289 290 289 288 287 288 291 292 290 288
288 288 292 293 291 289 285 284 286 285 284 290 290 291 292 293 294 289 291 286 284 281 288 285 282 285 284 284 284 284 284 287 288 289 289 289 290 291 291 290 289 290 290 288
294 290 287 286 286 282 281 279 283 284 288 288 288 288 292 292 294 290 288 284 284 287 284 281 281 284 283 282 282 282 286 287 287 288 289 289 290 291 288 286 288 288 286 285
287 284 279 282 279 283 283 284 281 287 287 288 290 288 289 291 288 288 284 287 285 282 278 279 281 282 282 283 283 283 284 285 286 286 286 287 288 289 287 286 285 283 284 284
285 284 277 279 283 284 285 285 286 288 289 289 289 287 288 286 285 286 286 283 281 282 279 278 278 279 281 282 283 283 283 283 284 284 284 284 286 286 287 287 286 285 284 284
282 283 280 280 282 282 284 285 285 288 289 289 287 285 284 284 284 283 281 280 278 280 281 278 280 280 280 280 282 283 283 283 283 283 283 283 283 283 285 286 285 285 285 283
281 279 282 281 282 282 283 287 287 289 286 284 284 281 281 284 282 281 278 277 278 275 276 281 281 280 280 279 281 282 282 281 281 282 282 282 283 283 283 282 283 283 282 282

GFSNW_sfc_thetae_066.txt.gz
Theta_e
306 304 304 304 305 306 302 296 294 302 304 294 292 289 290 293 292 295 293 293 292 290 290 288 288 288 291 295 294 290 293 290 285 286 291 293 291 289 288 285 281 283 283 284
305 304 303 304 305 305 300 294 294 303 302 287 288 293 292 294 293 293 292 291 293 293 289 287 289 290 294 295 294 292 293 288 282 283 288 291 288 289 287 286 286 282 283 283
305 303 303 303 304 305 300 295 290 297 299 296 291 289 291 291 295 294 294 293 294 292 290 292 288 290 293 295 295 296 295 288 286 283 284 288 285 287 287 287 284 284 285 286
304 303 303 302 304 304 300 296 289 292 288 292 291 294 293 291 290 295 296 293 293 291 287 288 288 290 292 295 295 294 293 286 286 286 287 287 287 287 286 284 287 286 286 286
304 303 302 302 304 302 299 291 290 292 292 291 293 293 291 291 293 293 292 291 292 293 290 290 288 291 291 291 293 292 292 286 287 284 287 287 285 287 288 287 288 287 287 287
304 302 301 301 302 301 297 297 298 294 291 291 292 289 290 292 294 296 296 294 293 291 292 294 295 295 295 294 292 290 290 288 286 282 285 285 283 286 287 288 289 289 286 292
304 303 301 301 301 300 299 296 294 291 289 291 289 291 292 292 295 293 296 297 294 295 299 298 298 297 295 295 293 293 289 288 287 284 284 278 286 291 291 289 290 292 292 293
303 302 302 301 301 301 297 299 295 291 287 289 290 290 291 294 295 295 295 297 299 301 297 293 289 290 290 291 293 293 294 290 285 283 282 285 289 289 289 289 292 294 293 294
302 303 301 301 301 300 297 299 299 294 288 290 291 290 291 291 293 294 295 299 301 299 295 291 284 282 285 284 288 294 292 292 288 284 278 278 288 294 296 295 289 297 295 296
302 302 301 301 301 300 297 296 298 294 289 293 293 289 291 295 294 292 294 296 296 297 293 289 287 285 289 283 283 285 287 287 284 284 282 285 291 292 295 287 291 299 298 298
302 301 302 300 301 301 297 295 297 293 288 290 293 294 293 295 294 291 295 293 294 293 290 288 288 287 289 287 288 287 286 285 284 285 281 279 293 294 291 297 299 297 298 299
301 301 302 302 300 300 298 293 296 297 290 290 294 295 297 297 297 295 297 294 294 295 292 291 292 288 289 288 283 290 286 289 287 288 288 293 295 297 299 299 296 297 298 299
301 301 301 301 300 300 299 295 296 294 288 289 290 290 296 298 297 300 294 297 299 298 301 296 294 288 292 286 287 289 292 293 290 290 294 294 296 299 299 299 299 298 298 298
301 301 301 301 300 300 300 295 297 294 289 282 288 298 296 302 300 298 300 299 301 299 301 296 294 289 293 290 290 290 293 293 292 291 295 297 297 299 300 300 299 298 297 297
301 301 301 300 300 301 300 298 296 297 289 283 285 292 295 297 300 297 297 297 297 298 296 295 292 295 293 293 291 290 293 292 290 289 296 296 297 299 298 298 299 299 297 296
301 301 301 300 301 299 297 289 295 296 295 285 281 294 295 300 300 298 296 297 298 299 297 297 298 298 296 290 288 293 294 296 297 295 297 297 299 299 297 296 297 296 296 297
300 301 300 300 300 299 291 288 295 297 296 286 281 285 295 300 300 300 299 299 298 299 297 296 296 296 297 292 287 294 295 296 296 296 296 296 297 296 296 296 295 294 295 296
300 301 301 300 299 299 294 296 299 298 291 288 281 284 291 300 295 294 299 296 298 297 296 296 294 296 295 288 293 294 293 293 293 293 293 293 294 295 295 295 292 292 293 295
300 300 299 297 294 291 293 297 300 299 292 284 286 285 286 297 296 297 297 297 291 297 292 293 295 291 288 292 294 294 291 291 291 291 291 291 292 293 293 294 293 290 291 292
298 295 293 288 291 296 299 293 288 288 288 288 284 290 286 293 294 292 293 294 290 286 290 295 290 290 293 290 289 289 288 287 288 287 289 290 289 291 292 292 293 294 293 291
291 289 288 293 297 294 291 286 285 286 284 286 288 291 288 295 287 289 293 288 288 285 288 289 287 286 288 288 287 287 287 287 287 288 290 290 290 290 290 291 293 293 294 292
291 291 294 294 291 288 284 284 286 285 284 290 289 291 293 294 296 292 291 287 286 283 290 286 283 287 285 286 285 285 286 288 289 290 289 290 290 290 290 291 292 294 294 295
294 290 287 286 286 282 280 280 284 285 288 289 289 286 293 294 295 291 288 284 284 288 285 283 286 286 285 284 285 286 288 288 288 287 288 288 289 290 289 286 287 289 292 294
287 284 280 281 281 283 284 285 285 288 288 289 289 290 290 292 288 289 285 288 286 283 281 283 285 285 284 285 285 286 285 286 286 286 287 286 286 287 289 288 287 287 287 287
285 285 278 281 285 286 285 285 287 288 290 289 289 289 289 287 286 286 285 284 282 283 283 286 285 284 284 284 285 285 284 285 285 285 285 285 285 285 286 287 286 286 285 285
285 284 281 283 283 284 285 285 285 289 289 289 287 286 285 284 285 284 282 282 282 286 286 285 284 283 283 283 284 284 284 283 283 284 284 285 284 284 285 286 286 284 285 284
281 280 284 283 284 283 285 287 288 289 287 284 285 283 283 285 283 282 285 284 287 287 284 285 285 284 283 282 283 282 282 282 282 283 283 283 284 284 283 282 282 284 283 282

GFSNW_sfc_thetae_069.txt.gz
Theta_e
306 304 304 304 305 307 304 302 296 306 308 294 293 292 292 294 295 296 294 295 293 292 292 291 291 290 293 296 296 292 295 292 285 288 293 294 293 291 291 286 283 285 285 284
306 304 304 304 304 305 300 297 299 309 307 288 292 295 294 296 295 295 294 293 295 295 291 288 291 292 296 296 295 294 295 290 283 284 289 292 289 291 291 289 289 284 283 284
306 304 303 303 304 304 303 298 291 301 303 298 291 290 292 292 297 296 296 294 296 293 292 294 290 291 294 297 296 297 297 291 287 284 286 290 287 289 290 286 285 286 287 286
305 303 303 303 303 304 303 298 292 293 292 295 294 295 295 292 292 297 297 294 294 292 289 290 290 292 293 296 295 296 295 287 288 289 289 289 288 288 288 284 288 287 288 288
304 304 303 303 303 304 300 292 290 293 294 297 295 294 292 292 294 295 293 292 294 294 290 291 289 292 293 292 295 294 295 288 289 285 288 288 286 289 289 288 289 289 289 289
304 304 302 302 302 303 297 298 299 294 295 295 293 291 291 292 296 297 298 296 295 293 293 296 297 297 297 296 293 292 292 290 287 284 287 287 284 288 289 290 291 291 286 292
303 303 302 302 302 300 299 297 295 291 291 294 292 293 294 294 295 294 297 298 295 296 301 300 300 298 297 296 295 296 291 290 289 285 286 279 288 293 293 291 292 293 293 295
303 304 302 302 302 301 298 299 295 292 287 293 294 293 294 297 297 296 297 298 301 303 299 293 290 291 291 291 294 294 295 291 287 283 283 287 289 291 290 290 291 295 293 295
302 303 302 301 302 300 298 299 300 294 288 292 293 292 294 292 295 296 297 301 303 301 297 292 284 282 286 284 288 295 293 293 288 285 280 279 290 295 298 297 289 298 297 297
302 302 302 302 301 301 298 297 299 295 287 293 294 291 292 296 294 294 296 297 298 299 295 289 286 285 290 284 284 286 287 288 285 285 283 286 293 294 296 287 290 298 298 299
302 302 302 302 301 300 298 296 299 293 289 290 292 295 294 295 296 292 297 296 296 295 291 290 290 288 289 288 290 288 287 285 284 285 282 280 297 295 290 297 300 300 300 300
302 302 301 301 302 301 299 294 298 297 290 289 294 294 298 297 297 295 297 296 296 298 293 293 293 289 291 289 284 293 286 290 288 289 288 296 297 298 299 300 299 299 300 301
303 302 302 302 302 300 299 296 298 295 289 289 290 290 296 296 296 300 293 299 301 299 303 298 295 289 293 287 288 290 293 295 291 291 295 295 297 300 302 300 300 300 300 299
303 302 302 301 301 301 300 297 299 295 289 283 287 297 296 302 301 298 297 298 301 302 302 298 294 290 295 290 291 291 294 295 293 293 296 297 299 300 302 300 301 299 299 300
303 302 302 301 301 300 301 300 299 299 289 283 285 290 292 294 296 301 298 296 296 296 297 296 292 297 294 295 293 290 295 293 291 290 296 297 298 301 300 299 299 299 299 300
303 301 301 301 300 300 297 289 298 298 297 287 280 292 292 298 297 299 298 297 296 297 297 296 298 300 296 290 288 295 297 298 298 295 299 299 300 301 300 298 299 299 297 299
302 301 301 301 300 300 292 290 296 298 297 286 281 284 294 297 299 298 297 298 298 299 297 296 296 297 297 292 288 295 297 298 299 299 298 297 299 298 298 298 298 298 297 298
300 299 299 301 300 299 294 298 299 298 291 289 281 283 289 299 294 293 299 296 297 297 297 297 295 297 296 290 294 296 297 297 297 297 296 296 296 297 297 298 297 295 295 296
299 298 299 297 294 292 295 298 300 298 292 284 285 283 285 294 295 296 296 296 288 296 292 293 295 292 289 293 295 296 296 294 295 295 295 294 293 294 295 295 295 295 295 295
298 296 291 288 293 300 299 294 289 288 288 288 283 288 286 290 292 292 291 294 291 285 291 296 290 289 295 295 293 293 292 290 290 289 290 291 291 292 293 293 295 295 295 296
293 289 288 294 298 294 290 286 284 284 282 285 286 287 287 294 287 287 293 286 288 285 289 289 287 287 291 291 289 289 289 289 289 289 290 291 292 291 291 292 294 294 295 295
292 291 294 294 291 288 284 283 285 283 283 289 288 290 292 292 292 289 291 287 286 283 291 287 284 289 288 288 287 287 288 289 290 291 290 290 290 291 290 290 291 291 292 294
292 289 287 286 286 281 281 280 284 285 289 289 288 286 292 293 295 291 289 285 284 289 285 284 287 288 288 287 288 288 289 289 289 288 288 288 288 289 289 289 288 287 287 290
287 284 280 281 281 283 284 285 286 288 289 289 288 287 290 292 289 289 284 287 286 283 282 284 288 286 286 287 287 288 287 288 287 286 286 287 286 287 288 288 288 287 287 288
285 285 279 281 286 287 286 286 287 289 290 289 288 288 289 288 287 287 286 284 283 284 284 289 288 286 286 286 286 287 285 286 286 285 286 286 286 286 286 287 287 286 286 285
285 285 282 285 283 285 287 286 286 289 290 290 287 286 285 285 285 283 283 282 283 288 291 289 287 286 286 286 287 286 285 284 284 285 285 286 285 285 285 286 285 285 284 283
281 280 285 284 285 284 285 287 288 290 288 284 285 283 283 286 284 282 285 285 289 289 288 288 287 285 285 285 285 284 283 283 283 283 284 284 285 285 285 283 283 284 284 283

GFSNW_sfc_thetae_072.txt.gz
Theta_e
306 305 305 305 306 307 305 301 294 306 309 292 293 290 293 294 295 297 294 295 293 291 291 290 290 289 291 296 295 291 294 289 284 287 292 294 291 291 289 279 278 281 279 277
305 305 304 304 305 306 300 296 298 309 307 287 289 293 294 296 295 295 294 293 295 295 291 287 291 291 295 297 294 291 293 286 280 283 287 290 287 290 290 287 286 282 277 278
305 306 304 304 304 306 303 297 288 297 300 297 292 291 291 293 298 296 296 295 296 293 291 293 289 290 295 296 294 297 296 288 282 277 283 287 281 287 288 285 280 282 281 283
305 305 304 303 304 306 303 296 290 293 290 293 294 294 293 292 291 297 297 294 294 291 288 289 289 291 293 295 297 294 292 282 284 287 288 288 287 286 286 279 284 278 284 285
304 304 303 303 304 306 298 292 289 292 291 296 293 293 291 290 292 294 293 292 294 294 290 290 288 290 290 289 291 290 292 283 285 281 288 287 284 288 288 287 286 286 287 286
304 305 303 303 303 303 295 295 297 293 292 293 292 291 291 292 295 297 297 296 294 292 292 295 295 294 294 293 290 290 289 286 282 277 285 285 280 286 287 288 288 288 283 288
304 304 303 302 302 300 298 296 295 291 287 291 291 293 294 293 295 293 297 298 294 295 300 299 296 294 294 293 291 293 288 287 285 279 281 275 285 290 292 289 291 291 291 292
303 303 303 302 302 302 297 298 294 291 285 289 290 292 292 295 297 296 296 298 299 301 297 292 289 289 289 290 291 290 291 288 283 278 279 284 287 289 288 287 288 292 291 292
304 303 303 303 301 301 298 297 298 294 286 289 290 289 292 290 291 293 296 300 300 298 294 291 283 281 285 284 287 292 291 290 284 283 277 277 288 293 295 295 288 293 293 293
305 303 303 302 302 301 298 296 298 293 287 289 292 289 289 295 293 291 295 296 295 296 292 286 285 284 288 282 282 284 286 286 281 282 279 283 293 294 294 286 288 297 296 296
305 304 303 302 302 302 298 295 298 291 287 288 290 291 290 292 294 290 295 293 293 292 287 287 287 285 287 284 285 284 285 283 283 284 280 276 294 292 288 295 298 298 298 297
306 304 303 302 302 302 299 293 298 297 289 287 292 292 292 291 293 293 295 294 295 296 289 289 289 286 286 285 282 288 283 286 284 284 284 292 295 295 296 296 296 296 297 297
307 305 303 302 302 302 300 295 296 295 289 288 288 289 294 295 293 296 291 295 299 297 298 294 292 286 288 282 284 285 289 291 287 287 291 292 294 297 297 297 296 297 298 296
308 306 304 302 302 301 300 295 298 295 290 282 285 294 292 295 296 293 294 296 297 298 299 293 291 288 291 286 288 286 289 290 289 288 291 292 294 296 297 297 297 296 298 297
308 306 304 302 301 301 299 298 299 298 290 282 283 289 291 293 292 293 293 293 292 294 293 292 289 292 290 290 289 286 290 289 286 286 292 292 294 296 298 296 295 295 295 296
308 305 302 301 301 300 297 289 297 298 297 287 279 289 288 290 293 290 296 296 293 295 294 291 294 298 292 286 285 291 292 294 295 291 295 295 296 297 296 295 294 295 294 295
307 303 301 300 299 298 292 288 294 298 296 287 280 281 291 295 296 294 297 297 295 295 294 293 293 294 295 289 285 291 293 294 294 296 295 293 295 293 294 294 295 295 294 294
304 301 299 298 299 298 293 296 299 298 291 288 278 280 286 297 292 291 297 293 294 295 294 293 291 293 292 287 291 293 293 293 294 294 294 293 292 293 293 294 294 292 292 292
301 299 299 296 293 289 293 300 300 297 291 283 283 280 280 292 293 293 294 296 289 294 291 292 293 289 287 291 291 292 293 291 291 293 292 291 291 291 292 292 292 291 291 292
299 295 290 287 292 300 299 293 289 288 287 287 281 286 283 289 290 289 288 292 288 285 289 294 290 287 293 292 290 289 289 288 288 287 286 288 290 291 291 289 290 291 291 291
292 288 287 294 298 294 289 285 284 285 282 285 285 285 283 293 287 287 292 286 288 283 287 288 285 284 288 288 286 288 288 288 287 289 289 290 290 290 290 289 291 292 292 292
291 291 294 294 289 287 283 283 285 283 280 287 286 289 288 291 292 287 289 285 285 282 290 286 280 285 285 286 285 287 288 290 290 290 289 289 289 289 289 289 290 290 289 288
293 289 286 286 285 278 279 276 280 283 288 288 286 285 289 292 292 289 287 284 283 289 284 282 284 284 285 285 287 287 289 288 287 287 288 288 287 288 288 287 289 288 287 288
286 282 277 280 279 280 282 283 283 287 288 288 288 285 288 290 287 287 284 286 285 281 280 280 286 286 286 287 287 288 287 287 287 286 286 286 286 286 288 288 288 287 286 287
284 283 276 279 284 283 285 285 285 288 289 288 287 287 288 286 285 286 285 283 279 282 282 285 285 286 285 285 285 286 285 286 285 285 285 285 286 286 286 286 285 285 285 285
282 284 280 283 279 280 282 283 281 289 289 289 287 285 284 282 284 281 281 279 280 283 285 283 284 285 285 286 286 286 285 284 284 284 284 285 284 284 284 286 285 284 284 283
277 275 282 282 283 282 283 284 287 290 287 284 284 282 282 284 282 281 284 282 285 283 283 281 283 283 284 285 285 285 283 282 282 282 282 282 282 283 284 281 282 283 284 284

GFSNW_sfc_thetae_075.txt.gz
Theta_e
306 307 306 305 306 308 300 293 286 301 302 287 289 289 293 295 295 296 294 292 291 288 288 287 287 286 290 295 294 291 293 289 283 287 293 294 293 290 288 278 278 280 276 279
305 306 305 305 306 307 297 289 291 301 298 281 288 290 293 295 293 293 293 291 293 292 288 285 289 289 294 296 293 290 292 284 279 282 287 290 286 290 290 286 284 279 277 278
305 305 305 305 305 307 296 291 284 290 294 294 291 290 290 292 296 294 295 293 293 290 288 290 288 289 294 295 293 298 295 286 279 276 281 284 280 286 286 281 275 279 279 282
305 305 304 304 305 307 296 290 290 292 284 287 292 293 293 291 290 294 295 293 291 289 285 286 286 289 291 293 296 292 290 281 283 285 287 287 285 285 284 278 283 278 284 284
305 305 304 304 305 305 292 286 287 289 287 290 292 291 289 290 292 292 292 291 293 291 287 287 285 288 287 287 289 288 290 281 283 278 286 286 283 286 286 285 286 285 285 285
305 304 303 303 303 300 288 290 292 291 289 288 290 290 291 291 294 295 296 294 292 289 290 293 292 291 291 290 288 287 287 283 279 275 284 283 278 284 285 286 287 286 282 287
305 304 304 303 303 300 292 294 292 287 282 286 288 288 290 292 293 292 296 295 291 293 298 297 294 292 291 291 289 291 286 285 283 277 279 273 283 289 290 288 289 289 289 290
305 304 303 303 302 302 292 292 288 286 279 285 287 289 289 290 294 295 295 296 296 297 295 292 288 288 289 289 289 289 290 286 281 277 276 281 285 287 287 286 286 291 290 291
306 304 303 302 302 301 292 291 292 289 283 280 287 286 289 286 286 291 295 297 298 296 292 291 282 281 285 283 286 290 290 287 282 281 274 276 286 289 292 292 286 292 292 291
307 305 303 302 302 302 294 291 293 287 284 286 286 285 287 291 292 290 292 295 293 294 289 286 283 283 286 281 280 283 283 282 278 279 276 282 290 292 293 286 285 294 294 294
309 307 305 302 302 302 294 291 294 288 282 284 287 288 287 289 288 288 293 293 290 289 284 284 285 283 286 282 284 283 282 283 283 283 280 275 292 291 288 293 296 298 297 295
310 308 306 304 302 302 298 288 295 297 289 286 291 290 291 290 290 289 290 293 293 295 289 287 286 285 284 283 282 285 282 284 283 283 282 290 294 293 295 297 295 295 296 296
309 309 308 305 303 302 300 291 294 294 289 286 286 286 291 294 293 293 287 291 297 297 298 290 289 285 287 281 282 284 287 290 285 286 289 289 293 295 296 296 295 296 296 296
308 309 309 305 303 302 301 291 295 295 290 283 283 291 290 294 293 292 291 292 296 294 297 291 288 286 289 285 287 285 288 289 287 286 289 290 292 295 296 296 296 295 296 296
307 308 308 305 303 302 298 295 296 297 290 281 282 289 291 291 290 290 292 290 290 291 291 292 287 289 289 288 287 285 289 288 286 285 291 292 292 294 295 295 294 294 293 294
307 307 307 304 301 300 293 287 293 295 297 286 279 287 286 288 288 289 290 289 289 291 291 292 294 295 291 284 283 289 290 291 292 291 294 294 295 295 295 294 293 293 293 293
306 306 304 301 301 297 290 287 294 298 293 286 279 279 286 294 292 287 290 295 293 292 292 291 292 291 293 289 283 290 291 293 293 295 295 292 293 292 293 294 293 294 292 293
304 302 301 299 299 298 293 297 299 297 290 288 276 275 282 294 291 288 293 292 293 293 292 292 290 290 290 285 290 292 291 292 292 292 293 293 293 292 293 292 292 290 290 291
302 300 299 296 293 289 289 300 300 296 290 281 281 275 276 291 291 292 293 294 287 292 289 291 291 288 284 289 290 290 291 290 291 290 290 290 290 290 290 290 290 288 289 290
299 295 290 285 288 299 297 290 288 287 288 287 280 282 279 288 289 288 288 291 287 284 286 292 288 284 291 290 289 288 287 288 289 288 285 286 287 288 289 290 290 290 289 289
292 288 286 294 298 293 289 284 283 284 280 283 282 284 281 289 285 287 290 286 287 282 287 287 285 283 286 285 285 286 287 289 289 289 289 289 288 289 289 290 290 290 291 291
291 291 294 293 289 286 282 282 283 281 277 284 283 287 286 288 292 287 288 285 285 282 290 286 281 285 283 284 284 284 286 289 289 289 288 288 288 287 287 288 289 290 289 289
292 288 285 285 284 276 277 271 276 279 285 286 287 285 288 289 289 287 286 283 283 288 284 281 282 284 283 283 285 286 288 287 286 286 287 287 287 288 288 287 288 288 288 288
282 274 270 277 274 278 278 282 282 286 287 286 287 286 286 289 286 287 284 286 285 280 279 277 283 286 285 287 287 287 287 287 286 286 286 286 286 286 287 287 286 285 285 286
283 282 275 274 279 279 280 285 284 284 288 287 286 285 288 285 284 286 284 283 278 281 281 285 286 285 285 285 285 285 285 285 286 286 284 284 285 285 285 286 285 284 284 284
282 283 278 279 274 273 279 282 281 287 288 287 287 284 283 282 283 278 276 279 280 282 284 283 285 285 286 286 286 286 285 285 284 284 284 284 283 282 283 284 284 283 283 282
272 271 278 276 276 276 281 284 285 288 286 282 280 280 281 283 278 276 279 281 284 284 283 280 282 282 283 285 286 287 285 283 282 281 281 281 280 280 280 279 280 280 281 281

GFSNW_sfc_thetae_078.txt.gz
Theta_e
306 306 306 306 306 309 299 291 285 300 301 286 286 282 291 295 293 294 292 290 289 287 286 286 285 286 290 295 293 290 291 288 282 286 291 294 292 288 287 275 278 274 274 278
306 306 306 306 306 307 294 289 289 298 295 281 288 290 291 295 293 292 292 290 291 291 287 284 287 288 294 295 293 291 292 284 280 282 287 291 288 291 291 285 279 274 273 278
306 305 305 305 305 306 295 288 282 288 291 290 286 288 289 291 297 293 294 292 292 289 287 289 287 288 294 295 292 299 295 285 279 277 280 284 281 286 288 282 273 277 277 281
306 305 304 304 305 305 294 287 285 287 280 284 287 289 290 289 290 294 295 292 291 288 284 286 285 288 290 293 295 292 289 281 283 284 287 286 284 284 284 279 282 278 282 283
306 304 304 304 305 302 289 283 281 287 284 287 286 289 288 289 291 292 290 290 291 289 286 286 284 286 286 286 289 288 289 281 281 278 285 284 282 285 285 284 285 284 284 284
306 304 304 303 303 299 286 288 290 290 284 284 283 285 288 290 293 294 296 293 290 289 289 291 292 291 290 288 287 286 286 282 279 275 282 282 278 283 284 285 286 286 282 287
306 304 303 303 303 298 290 289 290 286 278 282 285 286 287 289 292 291 294 296 290 292 296 296 293 290 290 289 288 289 285 283 281 276 278 273 282 287 289 287 288 288 288 289
307 305 303 303 302 302 291 290 287 287 277 280 282 284 287 288 290 291 295 295 296 296 294 290 288 287 287 286 288 288 288 284 280 277 276 279 283 286 286 285 285 290 289 290
308 306 304 302 302 302 291 290 290 286 280 278 284 282 285 285 286 289 293 298 297 295 292 290 280 280 282 283 284 289 287 286 281 277 274 275 283 288 290 291 283 291 291 290
309 308 306 303 302 302 293 290 291 286 280 283 284 282 281 286 288 287 292 294 294 294 287 286 282 282 285 280 279 281 281 283 279 278 275 280 286 291 293 283 283 292 291 291
310 309 308 305 303 302 294 290 292 287 281 284 287 288 285 286 287 284 290 290 290 288 285 283 283 282 284 280 282 282 281 279 279 280 278 273 291 289 289 291 296 296 294 294
311 310 309 307 305 302 298 288 294 294 288 286 289 291 292 290 289 286 287 289 288 294 289 286 285 285 284 282 280 284 282 284 282 282 281 288 292 292 294 298 295 295 297 296
309 308 308 309 307 303 301 294 292 290 288 288 284 285 292 293 292 293 283 287 294 295 296 293 291 284 285 280 282 283 285 287 286 286 287 289 292 293 295 295 295 295 296 296
305 305 306 308 306 304 302 294 294 293 290 283 283 291 288 292 292 292 291 288 292 292 294 293 290 285 288 283 285 284 286 288 286 285 288 289 291 293 295 295 295 295 296 295
303 305 305 306 305 303 299 296 292 295 289 282 284 289 289 290 290 290 291 288 286 287 289 290 289 289 289 286 286 285 288 287 286 285 290 290 291 293 295 295 294 293 293 293
305 305 306 305 303 300 295 287 290 295 296 287 279 286 285 289 289 288 288 289 287 287 289 290 293 296 290 283 282 288 289 290 292 290 292 293 294 294 294 294 293 293 292 292
305 305 304 302 301 296 288 285 292 297 295 285 280 279 285 289 292 287 289 290 290 289 286 288 291 292 293 290 284 289 290 291 291 293 294 292 293 292 292 293 293 293 290 291
305 303 302 301 300 297 293 297 299 297 290 287 278 277 280 293 289 285 289 289 291 291 289 290 289 289 289 286 289 291 290 290 291 291 292 292 292 292 291 290 291 288 289 289
302 301 300 296 293 289 289 298 299 296 289 280 281 274 273 288 288 291 290 292 285 290 288 287 291 287 286 288 289 290 290 289 290 290 290 290 290 290 289 288 288 286 287 288
299 296 291 285 287 297 297 288 288 287 288 286 279 284 279 285 287 288 288 289 287 283 286 291 285 284 290 289 288 287 287 287 288 287 285 286 286 287 286 286 289 290 290 288
292 288 286 293 298 293 288 284 282 282 279 282 282 282 280 288 283 285 290 285 286 282 286 285 283 284 284 284 284 285 286 287 287 288 289 290 289 289 289 289 290 290 291 290
291 291 294 292 288 285 281 280 283 280 275 282 283 286 287 286 289 287 288 284 284 282 290 286 280 283 282 283 283 284 285 287 287 288 288 287 287 287 287 288 288 289 289 289
292 288 285 283 284 275 277 266 276 278 285 286 286 283 289 288 288 286 286 283 282 288 284 281 283 284 284 283 284 285 286 287 286 285 286 287 287 288 287 287 287 287 286 287
282 273 271 278 273 277 273 276 278 285 285 285 286 285 286 289 286 286 284 286 285 277 277 278 285 286 285 287 287 286 286 287 286 286 286 286 286 286 286 285 285 284 284 285
276 281 272 273 276 277 278 282 280 281 284 286 285 285 286 285 284 286 284 282 278 280 281 284 284 285 285 285 285 285 285 285 286 285 284 284 284 283 283 284 285 282 282 283
283 282 278 279 272 270 272 275 276 284 288 287 285 283 282 282 283 280 278 278 279 281 283 285 284 285 286 286 286 286 285 285 284 284 284 284 282 281 280 282 282 282 282 282
276 269 277 274 270 272 276 281 282 288 282 281 282 278 279 281 280 277 279 282 283 284 284 283 281 283 283 286 286 287 286 284 283 281 280 280 279 280 279 277 278 278 280 280

GFSNW_sfc_thetae_081.txt.gz
Theta_e
307 306 306 306 307 308 298 290 283 298 299 284 284 279 288 294 292 293 291 289 288 285 285 284 286 286 289 295 293 288 291 287 282 286 291 293 290 288 287 275 279 278 271 277
306 306 306 306 306 307 293 287 288 296 294 278 279 287 290 293 292 291 291 290 291 289 285 283 286 289 295 294 292 289 291 284 280 282 287 290 288 290 290 285 279 272 273 278
306 305 305 305 305 306 293 287 282 287 289 288 284 285 285 288 295 292 293 291 291 288 285 287 285 287 294 295 291 299 294 285 280 277 280 286 285 287 288 286 280 277 275 281
306 305 305 304 305 303 292 285 283 288 278 282 285 286 288 287 287 292 293 290 290 287 283 284 284 287 289 292 296 291 288 281 282 283 286 285 284 284 286 284 284 279 281 281
306 305 304 304 304 300 288 283 280 284 282 285 285 287 285 287 289 290 288 288 290 289 285 285 283 285 285 286 288 288 288 280 282 279 285 285 283 285 286 287 286 284 284 283
306 305 304 304 303 297 285 285 287 287 282 281 281 282 285 287 288 292 294 294 289 288 289 290 290 290 290 288 286 286 285 282 278 273 282 282 277 282 284 285 285 286 282 287
306 305 304 303 303 297 288 287 286 280 278 279 280 281 283 285 287 287 291 293 291 292 295 294 291 288 288 288 287 288 284 282 281 276 277 272 280 286 287 287 287 287 287 289
307 305 304 303 302 300 290 288 286 281 276 279 280 282 282 284 287 289 291 293 296 297 292 289 287 286 287 285 287 286 287 283 280 276 275 278 281 285 285 284 284 289 289 289
309 307 306 304 302 301 291 289 289 285 279 278 282 281 282 283 279 284 292 291 298 295 291 290 280 278 282 282 283 287 286 285 280 276 273 273 281 287 289 289 281 290 290 290
310 309 308 307 304 302 292 289 290 285 279 282 283 279 279 284 282 281 286 286 291 294 287 287 283 280 284 279 279 281 282 283 281 278 274 279 285 290 290 279 281 291 290 290
311 310 309 309 306 303 296 293 292 287 282 283 286 287 285 284 283 281 285 285 288 290 287 284 284 282 283 280 282 282 280 278 278 280 279 273 289 289 285 289 294 293 291 291
309 310 310 309 308 304 300 292 293 293 288 285 289 290 291 289 288 285 285 286 284 285 289 285 284 284 284 282 278 283 280 283 281 281 280 287 289 290 291 297 296 294 296 295
306 306 306 307 307 306 300 294 294 293 288 285 284 284 289 292 291 293 283 286 291 291 291 291 291 285 284 281 282 280 284 287 285 285 286 287 290 292 294 294 295 294 295 296
303 303 304 305 306 306 302 295 296 293 287 283 282 290 288 291 291 290 291 289 288 289 289 290 289 286 287 282 284 284 286 287 285 285 288 288 290 292 294 294 295 295 295 295
302 303 304 305 306 305 300 296 296 296 288 281 282 288 288 290 289 289 290 288 286 284 284 287 289 289 288 285 285 285 288 287 285 284 290 289 289 292 295 294 293 293 293 293
304 305 305 306 304 300 293 287 290 293 295 287 278 284 285 288 290 287 286 287 285 285 286 285 288 293 290 285 282 287 288 290 291 290 291 292 293 294 294 293 293 293 292 292
305 305 306 304 301 296 289 285 291 297 295 286 279 278 284 286 292 285 286 287 288 286 286 284 288 290 290 289 284 288 290 290 290 291 294 292 293 292 293 293 292 293 290 291
305 304 303 302 300 296 291 295 299 297 291 286 277 275 278 289 287 286 287 286 288 289 286 287 287 287 289 285 288 291 290 291 290 291 290 291 291 291 291 290 291 288 288 288
303 302 301 294 291 286 290 299 299 296 290 280 276 273 271 285 285 291 289 291 285 288 288 287 289 286 282 286 287 288 289 288 288 289 290 290 289 290 289 288 287 285 286 287
301 295 288 281 286 296 297 290 288 288 288 286 278 281 274 282 284 286 288 288 286 282 284 291 285 282 288 286 286 285 285 286 287 286 284 286 285 287 286 286 287 288 289 289
291 285 286 293 298 292 288 283 282 282 279 282 281 281 280 288 281 284 289 285 286 281 284 285 283 283 284 282 283 285 286 286 286 289 289 289 289 289 288 289 289 290 290 289
289 288 293 292 288 285 281 280 282 280 275 280 282 286 287 287 288 285 287 284 284 280 289 285 281 284 282 283 282 283 285 286 286 288 287 287 287 287 287 288 288 288 288 288
289 287 285 283 283 276 275 265 276 278 284 286 285 283 287 289 288 286 285 283 280 288 284 282 284 286 286 285 286 286 287 287 286 286 287 287 287 287 287 286 286 285 286 286
281 273 272 272 271 277 272 273 275 281 284 280 283 284 285 288 286 286 283 286 285 279 274 276 284 285 286 287 287 287 287 287 286 286 286 284 284 284 285 285 285 283 283 282
275 275 268 274 275 272 278 282 277 278 280 284 283 284 285 285 284 286 284 282 278 281 280 283 284 285 285 285 285 285 285 285 285 285 284 283 282 281 281 282 282 281 281 281
280 278 275 279 277 268 277 273 273 278 285 285 285 282 281 281 283 280 278 277 278 280 283 284 284 285 285 286 286 286 285 285 284 284 284 283 282 280 280 281 280 279 278 279
278 270 277 273 269 271 273 278 279 284 283 280 281 278 278 280 279 278 280 280 281 284 284 284 283 281 283 286 287 287 286 285 283 281 280 280 279 278 278 274 275 276 277 278

GFSNW_sfc_thetae_084.txt.gz
Theta_e
307 306 306 306 307 308 298 289 283 296 297 282 282 278 286 293 291 291 290 288 287 284 284 283 286 287 290 295 294 287 290 287 282 285 291 293 289 287 285 276 276 277 271 277
306 306 306 306 306 306 292 286 286 295 292 277 277 285 288 291 291 291 291 290 290 288 285 282 285 289 294 295 293 289 290 284 280 282 286 289 287 287 286 282 279 278 273 278
306 306 305 305 305 305 292 285 279 284 287 286 283 285 283 287 292 291 292 292 292 288 284 286 284 287 293 296 293 298 295 285 281 277 280 285 284 285 286 281 273 277 276 280
306 305 305 305 304 302 290 283 283 287 276 279 282 284 286 286 286 291 293 291 291 288 283 284 283 288 291 293 295 292 289 281 281 283 285 285 283 284 285 281 283 278 279 281
305 305 305 304 304 298 287 281 279 282 279 282 281 284 283 282 285 288 287 288 291 290 286 284 282 285 286 287 290 288 287 282 282 279 284 283 282 284 285 286 286 283 284 282
305 305 304 304 303 295 284 284 286 284 281 278 279 279 279 281 284 286 291 289 286 287 290 290 289 288 289 288 286 286 285 281 279 274 282 281 278 282 284 285 286 287 282 288
305 305 304 303 302 296 288 286 285 279 278 279 278 280 281 281 283 282 286 289 288 292 296 295 292 287 287 287 286 288 283 282 281 277 278 272 281 285 287 286 286 288 287 287
307 305 304 303 302 300 289 287 285 281 277 279 280 281 281 282 284 283 284 290 292 294 293 288 285 284 284 284 286 284 286 283 280 276 275 278 282 284 284 284 284 289 288 290
308 307 307 304 302 300 290 288 288 284 278 279 281 279 280 278 277 279 285 291 292 291 292 289 280 277 281 281 284 285 285 284 280 276 273 273 280 287 288 288 280 289 289 289
310 309 308 307 304 303 293 289 289 284 279 282 282 278 278 282 280 278 282 284 285 290 287 286 282 280 283 278 278 279 281 284 278 281 276 278 284 287 289 279 281 291 289 289
311 310 310 309 307 304 297 292 293 289 283 282 285 286 282 282 281 280 283 283 285 283 286 286 285 282 282 280 281 281 280 277 277 282 279 273 286 287 284 288 294 294 290 288
308 308 308 308 309 305 300 292 295 293 288 285 288 288 289 288 287 285 285 283 284 286 284 286 285 283 287 281 278 283 280 282 280 281 280 286 287 290 291 296 296 294 296 292
306 306 305 305 306 307 300 294 294 293 288 285 283 283 287 290 289 290 283 283 288 288 289 287 288 284 283 282 283 282 284 286 284 284 286 286 288 290 292 293 295 293 294 296
303 303 303 304 305 306 300 295 296 293 289 282 281 289 287 290 289 289 289 287 288 286 286 284 287 286 287 283 283 283 286 286 285 284 287 287 289 291 292 293 295 294 294 294
302 303 304 304 306 305 299 297 296 296 288 280 281 285 286 288 288 287 289 287 285 283 280 285 286 290 287 284 284 284 287 287 285 284 289 288 288 290 293 294 293 292 293 293
304 305 305 306 304 301 295 286 289 291 295 286 277 284 284 286 289 287 285 286 284 284 283 282 284 289 288 284 281 286 287 289 290 289 290 291 290 292 293 293 292 292 291 292
305 305 306 303 301 296 289 284 290 296 294 283 276 278 283 285 290 285 284 285 284 284 284 283 284 287 290 288 284 288 288 289 289 290 292 291 291 290 292 292 291 292 290 290
306 305 303 301 300 297 290 293 298 297 289 285 277 276 278 286 284 287 285 282 284 287 283 285 284 285 285 282 287 288 289 290 290 290 290 290 291 291 290 290 291 288 288 287
304 302 300 292 289 285 291 299 299 296 286 277 280 272 270 283 283 289 288 289 283 287 285 285 286 284 282 284 286 285 285 286 288 288 288 289 289 289 288 288 287 286 286 286
301 294 286 280 287 296 297 290 288 287 287 284 279 280 278 284 284 285 287 288 285 282 283 289 285 281 286 284 285 285 285 285 285 285 284 285 285 287 286 286 287 287 287 288
290 285 285 292 298 292 288 283 282 281 279 282 281 281 278 287 281 282 288 284 286 280 281 283 282 283 284 284 282 284 286 285 285 287 288 289 289 288 288 288 288 289 289 288
290 289 292 292 288 284 281 278 281 280 275 279 281 284 283 287 289 284 286 283 284 278 289 284 281 283 284 284 285 285 286 287 286 288 287 287 287 287 287 288 287 286 286 287
289 286 283 282 282 275 269 265 276 278 282 285 284 281 286 288 288 285 285 282 281 288 283 279 283 285 286 286 287 287 287 287 286 286 287 287 287 287 286 286 285 283 283 283
282 277 275 273 274 276 272 272 272 277 284 282 279 283 284 287 285 286 281 285 285 277 273 278 283 284 285 286 287 287 287 287 287 285 285 284 283 283 284 283 284 282 282 281
277 278 272 274 275 270 276 274 275 277 283 278 283 283 284 283 283 285 283 280 277 280 279 282 283 284 285 285 285 285 285 285 285 285 284 284 282 280 281 281 280 278 279 279
278 275 273 277 275 268 278 281 272 277 282 280 283 281 281 278 281 280 275 275 273 277 280 284 283 283 284 286 286 285 285 285 285 284 284 283 281 278 277 278 278 277 277 277
280 277 277 275 270 272 273 277 279 282 280 272 280 277 277 278 276 277 281 279 280 283 284 283 283 283 283 284 286 286 286 286 284 282 280 279 279 278 278 276 275 276 277 277

GFSNW_sfc_thetae_087.txt.gz
Theta_e
307 307 307 307 307 307 297 289 281 295 300 281 281 276 285 292 290 291 291 290 288 286 286 284 286 285 288 294 291 285 289 288 282 284 291 293 291 287 285 279 278 275 276 281
306 306 306 306 306 304 291 285 285 293 294 276 278 284 286 289 290 290 290 289 291 291 287 284 286 288 295 295 291 289 290 285 281 282 286 290 288 288 285 283 281 278 277 280
306 306 306 305 304 304 290 283 277 283 286 284 280 281 282 285 291 289 291 291 293 289 285 288 286 285 294 295 295 297 295 286 281 276 280 285 283 286 285 282 277 279 279 283
305 305 305 305 303 301 288 281 282 284 275 278 280 284 286 281 282 286 290 288 286 283 283 284 284 287 288 294 295 293 291 283 283 284 285 286 285 285 285 279 282 279 282 282
305 305 305 304 302 298 286 281 279 280 279 280 279 281 280 279 281 282 282 284 284 285 283 286 285 287 287 287 291 290 288 283 283 280 285 285 284 285 285 285 285 284 284 283
305 304 304 303 303 295 284 283 285 282 280 278 277 278 279 280 282 284 285 284 283 285 288 290 291 290 291 290 289 288 286 284 281 276 282 282 278 282 284 285 286 287 283 288
306 304 304 303 301 295 287 285 283 280 279 279 279 280 280 280 281 280 284 286 287 291 293 293 292 289 289 288 287 289 284 282 282 278 279 272 280 285 287 286 287 288 289 289
307 305 304 304 302 299 288 286 284 281 278 279 280 280 280 280 282 281 282 286 289 291 290 289 284 283 283 284 285 286 287 284 280 278 276 279 282 285 284 284 284 288 289 291
308 307 306 304 303 299 289 287 287 283 279 279 281 279 279 277 276 279 282 288 290 290 289 288 279 277 280 280 282 285 285 284 281 278 275 274 281 288 289 288 282 289 289 289
308 308 308 306 304 301 294 290 291 284 280 281 281 278 278 280 280 279 281 282 285 289 288 285 283 279 282 278 278 279 280 284 279 280 277 279 284 286 290 280 282 291 291 290
310 309 309 309 306 303 297 289 293 289 281 282 284 285 281 281 280 278 281 282 283 283 283 284 284 280 281 280 280 279 279 277 278 281 278 273 286 288 284 289 295 296 294 290
310 309 309 309 309 305 300 291 294 294 285 285 287 287 288 287 286 283 282 280 281 283 283 281 284 284 286 281 278 281 279 281 280 281 280 286 287 290 291 294 296 296 297 293
308 308 308 307 309 306 299 294 293 293 289 284 282 282 286 289 289 289 280 282 286 286 287 283 285 285 285 280 284 282 282 284 283 283 285 286 288 289 291 293 296 295 295 295
306 306 306 305 307 305 300 294 295 291 288 279 281 288 285 288 289 288 288 286 287 287 284 281 282 283 289 282 282 283 286 286 284 284 286 288 289 290 292 294 296 295 295 295
304 304 305 305 306 303 298 296 295 296 286 279 280 284 285 287 288 287 289 288 283 281 280 280 281 288 289 284 283 282 286 286 284 284 288 288 288 292 293 294 294 293 293 293
304 304 305 306 304 300 294 284 288 291 292 286 277 283 282 284 288 285 284 287 283 282 280 280 282 286 286 284 280 285 286 288 289 288 289 290 291 292 294 293 293 292 291 292
305 305 306 305 302 292 286 284 288 295 293 283 275 278 282 283 286 286 283 284 282 282 282 282 283 284 286 284 281 287 287 288 290 290 290 291 291 290 291 292 292 292 290 290
305 305 303 301 301 297 288 293 298 296 288 283 271 275 278 284 282 283 287 282 282 285 282 282 281 283 282 280 286 287 287 288 288 289 290 290 290 290 290 290 290 288 288 288
304 302 299 293 289 284 289 299 297 295 284 275 277 270 271 283 282 284 289 286 282 286 284 283 284 282 281 283 286 285 284 284 285 287 288 289 289 289 288 288 288 287 287 287
300 294 288 283 288 299 296 289 287 287 284 283 279 279 273 281 283 283 286 287 284 282 283 287 284 282 283 283 283 284 285 286 287 284 283 285 286 287 286 286 287 287 287 287
291 286 287 292 297 291 287 282 281 280 279 282 280 278 275 284 279 282 286 284 285 281 280 281 280 283 284 285 284 286 285 286 286 287 287 287 288 288 287 287 288 288 288 287
291 291 294 292 288 284 276 273 279 279 274 278 278 282 280 285 289 284 285 283 284 277 288 284 279 284 285 286 286 286 287 287 287 287 286 287 286 288 288 287 285 285 286 285
290 287 284 282 281 271 268 270 274 277 278 280 284 277 283 288 288 285 284 280 280 287 282 278 282 284 285 286 287 287 288 287 287 288 288 287 286 286 286 285 284 283 282 282
284 280 275 275 274 273 274 273 273 277 280 282 280 276 278 285 284 285 281 284 285 278 272 275 281 282 284 286 287 287 287 287 286 285 284 283 282 282 283 283 282 280 280 280
280 280 274 274 274 270 274 272 279 281 283 278 277 281 282 282 282 283 284 279 275 278 274 278 279 281 284 285 285 285 285 285 285 285 284 284 283 280 281 281 279 279 279 279
279 277 274 276 272 269 279 280 278 276 280 279 279 278 276 276 280 278 274 272 271 274 279 280 281 281 282 285 286 285 285 285 285 284 284 283 281 279 279 279 278 277 277 277
279 277 278 275 272 274 277 282 279 281 278 272 273 273 273 277 275 277 279 277 277 280 282 278 278 279 281 284 286 286 286 286 285 283 282 280 280 279 279 277 277 277 277 276

GFSNW_sfc_thetae_090.txt.gz
Theta_e
307 307 307 307 306 306 303 300 293 300 302 292 288 287 287 292 292 294 292 291 288 288 289 286 286 285 288 294 292 287 290 288 283 286 292 295 291 291 290 287 282 283 285 285
306 306 306 306 305 304 299 294 295 299 298 287 286 288 287 290 288 290 288 290 292 289 287 286 288 286 293 295 293 291 293 288 282 284 288 291 287 290 290 289 288 284 284 286
306 305 306 306 303 304 297 293 291 291 295 291 286 283 285 284 289 289 288 287 288 286 288 291 288 285 293 295 295 296 296 289 285 283 285 289 285 290 290 288 286 285 287 288
306 305 305 305 301 302 297 291 288 288 286 287 286 286 286 282 282 286 289 287 285 284 282 286 288 287 290 292 294 294 293 286 287 288 288 289 288 289 288 286 289 286 288 287
306 304 304 304 300 299 294 291 289 288 287 285 285 285 283 282 283 283 283 282 285 286 283 284 283 285 286 286 292 290 293 286 287 284 288 288 287 289 290 290 290 289 288 288
306 304 304 303 300 298 293 291 292 291 284 285 285 283 283 282 284 285 286 285 285 286 287 288 289 290 292 293 291 290 289 288 286 282 286 286 283 286 288 289 290 291 286 292
306 305 304 303 301 298 296 293 293 289 284 286 284 283 283 283 284 282 286 287 286 289 293 295 295 295 294 293 292 292 288 287 287 283 284 277 285 290 290 289 290 293 293 294
306 305 304 303 302 299 296 294 293 290 285 286 284 284 283 284 285 283 284 287 289 292 290 290 288 288 288 289 290 290 291 289 285 282 281 284 287 290 289 288 288 293 293 295
307 306 305 303 302 300 296 294 294 293 288 285 286 284 284 283 283 284 285 290 291 291 289 289 283 282 284 284 287 290 289 290 287 284 279 277 287 292 294 293 287 295 295 295
308 307 306 305 303 300 298 295 295 293 289 287 287 285 284 286 285 283 284 285 286 291 289 286 285 284 287 283 283 284 286 287 285 284 281 284 290 292 294 285 288 296 296 295
309 308 308 306 305 301 299 295 296 294 289 288 288 288 286 286 286 282 285 286 286 286 285 284 285 285 287 286 286 286 285 283 283 285 281 278 291 293 288 294 297 299 298 295
309 309 310 309 306 304 300 295 297 296 292 290 291 292 292 291 290 288 287 284 284 287 284 285 284 286 288 286 284 289 284 288 287 287 286 292 293 296 297 297 298 299 299 297
310 310 310 310 308 305 301 296 295 296 291 290 289 287 291 293 293 294 286 287 288 287 290 286 285 284 288 284 287 288 290 290 289 288 291 292 294 296 296 298 300 299 300 300
310 309 308 308 308 305 300 297 297 296 291 286 286 292 290 293 293 292 292 290 290 290 290 287 286 283 290 287 287 287 291 291 289 290 292 295 295 296 297 299 299 299 299 299
309 308 307 308 307 303 300 298 298 298 291 286 286 289 290 291 291 291 291 290 288 288 286 285 285 290 289 289 289 288 292 291 290 289 293 293 294 297 298 298 298 298 298 297
306 306 306 307 303 300 297 290 295 297 296 288 283 288 287 288 290 289 289 290 289 288 287 286 287 289 289 285 285 291 292 293 294 292 295 295 296 297 298 297 296 296 296 296
305 306 306 304 301 297 291 289 293 297 296 286 283 283 286 286 289 289 288 289 289 288 287 286 287 287 289 288 283 290 292 293 293 295 294 294 296 296 295 296 295 294 294 294
306 306 304 302 300 298 292 297 298 297 290 287 281 282 284 288 287 287 289 286 288 287 287 288 286 288 287 282 287 289 291 292 293 292 294 294 294 294 293 294 294 292 292 292
305 303 300 295 292 289 292 299 297 296 289 283 282 282 282 288 287 289 288 288 283 289 284 285 287 285 282 286 287 288 288 288 288 290 292 293 293 292 292 292 291 291 290 291
301 297 290 286 290 299 297 292 288 287 288 286 283 283 283 286 287 286 286 288 285 282 286 290 285 284 287 287 288 288 287 288 289 288 290 290 290 291 290 290 291 291 290 290
294 289 287 292 299 292 288 283 282 283 280 284 284 284 283 287 284 284 287 284 286 281 285 284 284 285 286 289 288 288 288 288 289 290 289 289 291 291 290 290 289 289 288 287
293 292 295 294 289 285 280 279 281 280 279 282 282 284 285 286 288 283 286 283 285 279 288 284 280 285 286 286 288 288 288 288 288 288 288 289 289 290 289 288 287 286 286 286
292 288 285 284 283 276 275 273 276 278 281 283 284 283 287 288 287 284 284 281 281 288 283 282 284 286 286 286 286 287 288 288 288 287 287 288 287 287 287 285 285 284 284 284
286 282 277 279 276 278 277 278 279 283 284 284 284 284 284 287 283 284 281 285 285 281 278 280 285 284 285 286 287 287 286 288 287 286 285 283 283 283 285 284 283 282 282 283
282 283 279 276 279 277 278 279 281 283 285 284 283 284 285 283 281 284 283 280 279 281 280 284 286 285 283 285 286 286 285 286 286 286 286 284 283 281 282 282 281 281 282 281
282 279 277 278 279 277 279 281 281 283 285 285 284 282 280 280 282 280 279 277 276 282 284 287 286 285 284 285 286 286 285 285 285 285 285 284 283 281 281 281 281 280 280 280
281 279 281 280 279 279 282 283 284 284 284 280 280 275 276 281 278 278 282 280 284 285 285 286 286 285 284 285 286 287 287 286 286 286 285 284 283 281 280 280 281 280 280 280

GFSNW_sfc_thetae_093.txt.gz
Theta_e
308 307 307 307 306 307 304 304 296 304 305 295 295 288 288 292 289 293 291 291 289 286 288 287 286 285 289 293 291 287 290 288 283 286 292 295 293 290 291 286 284 286 286 285
308 307 307 306 306 307 305 297 298 303 301 287 288 289 288 289 287 289 287 287 288 289 287 286 290 285 294 296 292 291 292 288 282 283 288 291 288 291 293 291 291 286 284 285
307 307 306 306 305 306 304 297 293 294 297 293 288 286 286 285 289 288 290 288 289 288 288 290 288 285 293 296 295 297 296 289 285 283 286 290 286 290 292 288 288 287 287 289
307 306 305 305 303 305 301 297 292 292 289 289 288 288 287 284 283 288 289 288 287 284 284 287 285 287 289 294 295 295 293 287 289 289 291 291 290 290 291 287 290 288 289 289
307 306 304 304 302 304 300 295 292 292 290 288 287 287 285 284 284 285 285 284 287 287 285 284 283 285 288 287 292 290 295 287 289 286 290 290 288 290 291 291 291 291 291 290
307 305 303 302 302 302 298 296 296 295 288 288 287 286 285 284 286 287 288 287 288 287 288 289 290 290 291 291 291 291 291 290 287 284 288 288 284 289 290 291 292 292 287 293
307 305 303 303 301 302 301 298 297 292 286 288 287 286 286 285 285 284 287 289 287 291 295 295 296 294 295 295 294 295 290 289 288 285 285 278 287 292 292 291 292 293 293 295
307 306 304 303 303 304 300 297 297 294 287 289 287 286 285 287 287 286 286 289 291 294 292 292 289 289 289 291 293 293 294 291 286 283 283 285 288 291 290 289 290 295 294 296
307 306 304 303 303 303 300 297 299 297 291 288 289 287 286 286 286 287 287 292 294 292 290 291 284 283 286 285 288 293 292 293 288 285 280 277 288 292 295 295 287 297 297 296
308 306 305 303 302 302 302 298 299 298 292 291 290 288 287 288 287 287 287 287 289 293 290 287 285 285 289 284 284 285 287 288 285 285 283 285 291 294 296 285 288 298 299 297
308 307 306 304 303 303 303 298 299 297 293 290 291 290 288 289 288 285 287 288 289 289 288 287 286 285 288 287 288 287 285 284 284 286 282 279 294 294 289 295 299 300 300 297
308 308 307 306 303 302 304 297 299 300 296 292 294 294 294 292 292 289 289 287 286 288 286 287 287 286 288 287 284 291 285 289 286 287 287 293 295 295 298 299 298 301 301 299
309 309 308 307 305 303 304 299 299 298 294 291 291 289 293 295 294 296 288 290 290 289 292 289 287 283 289 285 286 289 292 293 290 289 292 294 296 298 298 298 301 300 302 301
310 309 309 309 307 302 302 299 300 299 294 289 288 294 292 295 295 294 293 291 292 291 291 289 288 284 291 287 288 289 293 292 291 291 294 296 297 298 298 300 301 300 301 301
310 310 310 309 305 303 302 301 301 300 294 288 288 291 292 293 293 292 293 291 290 289 287 287 287 290 290 291 290 289 294 292 290 288 293 293 295 297 300 299 299 300 300 298
309 308 308 307 303 302 299 293 298 300 298 291 285 290 289 290 292 291 290 291 290 290 288 288 289 290 288 286 285 292 294 295 295 292 295 295 296 298 299 299 298 298 298 298
307 307 306 303 302 299 293 291 296 298 298 290 285 285 288 289 292 291 291 291 290 289 288 287 288 288 291 287 284 290 292 293 294 296 295 295 297 296 297 298 296 296 296 296
306 305 303 302 300 299 294 297 298 298 292 290 284 284 286 290 289 286 291 288 288 288 288 289 287 289 288 283 289 290 292 292 294 293 294 295 296 296 295 296 295 294 293 294
304 303 300 297 294 291 293 298 298 298 291 286 286 285 284 290 290 291 288 289 282 290 285 287 288 285 282 287 289 290 290 289 289 291 292 294 294 295 294 294 294 293 292 292
301 298 292 287 292 299 298 292 289 289 289 288 286 288 285 289 289 286 286 287 284 282 287 290 285 285 290 289 289 289 289 289 289 287 290 291 292 293 293 293 293 292 292 291
296 291 288 294 299 293 289 284 283 284 282 286 287 287 286 290 285 285 288 284 286 281 285 284 284 284 288 288 288 289 289 289 289 289 290 291 291 291 292 291 291 291 290 288
295 293 296 294 289 285 282 281 282 281 281 284 285 286 288 288 289 284 286 282 285 279 289 284 281 287 288 288 287 287 289 288 288 289 288 289 289 290 291 290 288 288 287 287
295 290 286 285 283 278 277 276 278 280 284 285 285 284 288 287 288 284 284 281 282 288 283 282 285 287 287 287 287 287 288 288 288 287 288 287 286 287 288 286 285 285 285 285
289 285 279 283 278 280 281 282 284 286 287 286 288 286 286 287 284 284 280 285 284 281 279 281 287 287 286 287 288 287 286 287 286 286 286 285 284 284 285 285 283 283 283 283
286 286 283 279 282 280 282 283 284 286 288 288 286 285 287 283 282 283 283 281 278 281 282 287 289 286 284 286 286 286 285 286 285 286 286 286 285 284 284 285 283 282 282 282
285 283 280 280 281 278 281 283 282 286 288 288 288 283 281 280 282 279 278 279 278 285 288 290 289 286 286 286 287 287 286 285 285 286 286 286 284 283 282 283 282 282 281 281
283 281 283 282 282 281 283 286 285 288 287 283 282 278 278 283 279 278 283 282 287 289 289 290 289 287 286 286 287 287 287 287 287 287 286 286 285 284 282 281 284 282 282 281

GFSNW_sfc_thetae_096.txt.gz
Theta_e
311 310 308 307 306 307 306 302 295 304 305 292 293 286 287 291 288 292 290 290 287 285 286 287 285 285 289 292 290 286 290 288 280 283 291 293 291 287 288 283 282 282 282 279
311 309 308 307 307 308 304 296 296 303 301 286 287 289 288 289 287 288 287 287 288 289 286 286 286 286 293 295 291 291 291 287 281 282 287 291 286 289 291 290 287 283 281 280
310 308 307 307 307 307 303 296 290 293 296 292 287 285 286 285 290 288 289 288 289 287 287 290 286 285 292 296 295 298 296 288 284 281 284 287 282 287 291 287 283 284 284 284
309 308 307 306 306 306 302 297 293 293 288 287 288 288 287 284 283 288 289 288 287 284 283 286 285 287 290 294 296 294 293 286 287 288 290 290 288 288 289 285 288 283 287 287
309 308 307 305 305 306 298 293 289 290 288 288 287 286 285 283 284 285 284 284 287 288 284 284 283 285 287 287 291 290 292 286 288 283 290 289 286 290 290 289 289 288 288 287
309 308 306 304 305 305 298 295 295 293 288 287 285 284 284 284 286 287 288 287 286 287 287 288 289 290 289 289 289 290 290 288 284 282 286 286 282 287 289 289 290 290 286 290
309 306 304 304 305 304 301 297 294 290 284 285 285 286 286 285 285 284 288 289 286 289 293 293 293 292 292 292 293 293 287 287 285 279 280 274 283 289 291 290 291 291 291 292
308 306 305 304 304 304 299 297 295 291 285 287 286 286 286 287 287 285 286 289 290 292 291 289 288 288 288 289 290 290 291 287 283 279 278 281 285 288 287 286 287 293 291 293
308 306 305 305 306 306 299 296 298 294 287 285 289 286 286 284 283 285 288 292 293 293 289 288 282 280 283 284 286 290 290 289 284 281 277 275 284 289 293 292 283 294 295 294
308 307 306 305 305 306 301 295 298 295 287 288 289 285 285 287 285 284 286 287 289 291 288 285 282 283 286 281 281 282 284 284 280 281 278 281 288 291 293 280 286 296 295 293
308 306 305 304 305 305 301 296 299 295 289 288 291 291 287 286 286 283 285 285 287 288 286 285 285 282 285 283 284 283 283 280 281 282 278 276 292 291 287 292 296 297 296 293
308 306 305 304 304 305 304 294 298 299 293 289 294 293 293 292 291 287 287 285 285 287 285 284 286 283 286 285 282 286 282 285 283 284 284 290 291 290 293 294 293 296 297 295
308 307 306 305 304 304 303 296 297 297 291 288 288 288 292 294 293 294 285 287 290 289 290 287 286 283 285 282 285 284 288 289 285 286 289 290 293 294 294 294 296 297 298 298
307 308 307 305 304 304 302 296 298 296 292 285 285 293 290 293 294 293 292 289 290 289 287 287 286 284 289 285 286 285 288 289 288 287 291 291 293 293 295 297 298 298 298 298
308 309 308 306 303 304 301 299 298 298 292 285 284 290 291 292 292 291 292 290 287 287 284 284 284 287 288 289 288 284 291 287 285 287 290 289 289 293 296 296 296 297 296 295
308 309 308 305 304 303 298 291 296 297 295 288 281 288 287 288 291 289 288 290 288 288 286 286 286 287 284 281 283 289 289 291 291 288 292 292 293 294 296 295 295 295 296 296
309 308 305 304 302 297 292 289 294 298 296 288 281 282 286 289 290 289 288 288 288 287 286 283 285 285 287 283 280 286 288 290 291 292 292 291 293 291 294 295 294 295 293 293
307 305 303 302 300 299 293 295 297 297 290 288 281 280 281 288 286 286 290 286 287 286 284 286 284 285 284 279 285 287 288 289 291 290 290 290 292 293 292 293 293 292 291 292
304 302 301 297 294 291 292 298 298 296 290 284 283 279 277 287 288 289 287 289 282 289 284 285 287 284 280 284 286 286 287 287 287 288 290 291 291 292 291 289 290 290 290 290
301 298 292 287 292 299 297 292 288 288 287 287 284 285 280 286 287 285 286 287 284 281 285 289 284 282 287 287 288 288 288 289 288 286 286 288 288 289 292 290 291 291 291 289
295 289 287 294 298 293 289 283 283 283 280 284 284 284 281 287 284 284 287 283 285 279 283 283 282 282 285 286 285 288 288 289 288 289 289 290 290 290 291 291 290 290 288 286
294 293 295 294 289 285 282 280 282 280 280 283 282 283 284 286 288 284 285 282 281 277 287 283 279 283 285 285 284 287 288 287 287 288 288 288 288 288 289 289 288 287 286 285
294 290 286 285 283 278 276 275 277 278 283 283 284 282 285 286 287 284 283 279 276 286 281 280 282 284 285 284 287 287 288 288 287 287 286 286 286 286 287 285 285 284 284 284
287 284 278 281 278 280 281 282 282 285 285 285 285 283 284 286 283 283 279 283 282 278 277 276 279 281 282 286 287 287 286 287 286 286 285 284 283 283 284 283 283 282 282 282
285 286 281 278 281 281 282 284 284 286 288 285 282 281 283 282 281 283 282 280 277 279 274 278 279 280 285 285 286 286 285 286 285 285 284 284 285 283 283 284 283 282 281 281
285 283 278 281 280 278 281 283 283 287 286 284 283 278 274 275 279 278 277 277 271 275 278 280 281 279 278 283 286 286 286 285 285 285 284 284 282 280 280 282 282 282 282 280
284 280 283 282 282 280 282 284 284 287 282 277 276 271 272 277 278 277 278 275 277 280 280 280 282 282 282 283 284 284 284 286 285 285 284 284 284 284 281 279 281 282 281 280

GFSNW_sfc_thetae_099.txt.gz
Theta_e
313 312 311 309 308 308 305 297 288 300 300 283 284 277 285 291 287 289 290 287 285 282 286 286 283 284 286 293 288 286 288 286 279 281 290 291 287 285 289 278 280 278 274 278
312 312 310 309 308 309 299 293 290 298 296 276 276 284 287 287 286 286 286 285 287 287 285 285 286 285 291 294 292 288 289 286 278 281 287 290 287 288 290 289 284 279 278 279
312 311 310 309 308 310 301 291 283 287 289 285 282 282 283 283 288 287 288 287 288 286 286 288 285 285 291 295 295 296 294 288 282 276 280 284 281 286 288 283 278 283 283 283
312 311 309 309 308 308 298 291 287 288 280 282 283 284 284 283 282 286 287 286 285 285 280 285 285 286 289 293 295 292 292 285 286 287 288 288 286 286 288 284 287 283 286 286
312 310 309 308 307 308 294 287 284 284 283 285 283 283 281 282 283 284 283 283 286 287 282 283 283 285 286 286 290 288 289 284 286 280 288 288 285 288 288 289 288 287 288 286
311 310 308 308 308 302 291 290 290 287 285 282 280 280 281 283 284 286 287 286 283 286 285 286 288 289 289 289 288 290 289 287 282 277 284 286 281 286 288 289 290 290 284 288
311 309 308 307 308 303 293 291 289 285 280 281 282 284 284 284 284 283 286 287 284 287 291 291 289 288 290 290 290 290 286 284 282 277 280 275 283 288 290 290 290 290 289 290
310 308 306 306 307 307 293 292 290 287 280 282 283 284 284 284 284 283 285 287 288 290 291 286 284 284 285 287 289 288 289 285 281 277 276 280 283 287 287 286 286 292 290 292
309 307 306 306 307 307 294 291 294 290 283 281 286 283 283 280 279 281 286 290 290 291 290 286 280 277 282 281 284 288 288 287 282 279 275 274 283 288 291 290 282 293 293 291
308 307 307 307 307 305 295 292 295 290 283 284 285 282 281 284 282 280 283 284 284 288 286 284 276 281 284 279 279 280 281 281 278 279 277 280 287 289 291 279 284 296 293 291
307 307 307 306 306 303 296 292 295 291 284 284 288 289 283 284 283 280 282 283 285 283 283 284 284 280 282 280 283 281 281 277 278 279 278 275 291 290 285 290 293 296 293 291
308 307 306 306 305 303 300 291 296 296 288 285 290 289 290 289 288 285 284 283 283 287 285 284 286 282 283 283 281 286 280 283 282 282 282 289 290 289 292 293 292 295 294 294
307 307 306 305 305 305 299 292 294 293 286 284 285 285 289 292 291 291 282 284 290 289 289 287 286 283 284 280 284 285 288 288 283 285 288 289 291 293 294 295 295 296 297 297
307 306 306 305 305 303 300 294 295 292 288 281 281 291 288 290 292 291 290 288 288 288 285 286 286 284 287 283 284 282 286 289 286 286 287 288 291 292 294 295 296 296 296 297
307 306 305 305 304 303 298 296 294 295 289 281 281 287 288 289 290 290 290 288 285 282 281 281 283 286 285 287 288 281 286 285 284 283 288 288 290 292 296 295 295 296 296 294
307 306 305 305 303 300 295 287 293 295 292 283 278 285 284 286 289 288 287 287 286 285 283 283 286 286 282 278 282 287 286 288 289 287 291 292 292 293 294 294 294 294 295 295
307 306 305 304 300 295 290 287 292 296 293 284 279 279 283 288 288 287 287 287 288 286 286 282 284 284 284 281 278 284 286 287 288 289 290 290 291 289 292 293 293 294 293 294
307 305 303 301 300 297 289 292 297 295 288 287 278 277 279 286 286 285 289 286 287 285 285 284 281 284 282 278 283 284 286 286 286 286 288 289 291 292 292 292 292 291 290 291
303 303 301 295 292 289 288 297 297 293 288 282 280 273 273 285 287 288 286 288 282 288 283 285 286 282 279 282 284 283 284 285 287 288 287 288 288 289 291 290 289 289 289 290
301 297 291 286 292 298 296 290 285 284 285 286 281 282 277 283 286 285 285 286 284 280 284 288 284 281 285 285 285 287 288 288 288 286 285 286 286 288 290 291 291 291 290 289
293 288 287 293 298 292 288 281 280 280 279 283 283 281 280 287 283 283 287 282 284 279 282 281 282 280 283 284 284 285 288 288 288 289 288 289 289 289 289 290 289 288 288 287
293 292 294 292 288 284 281 276 280 279 279 282 279 281 281 285 286 284 285 281 280 273 286 281 275 281 283 283 283 284 287 288 287 287 287 287 288 288 289 288 287 286 286 285
293 289 285 285 283 276 274 273 276 277 282 282 281 278 284 284 286 283 283 279 273 283 280 276 277 281 283 282 284 286 287 288 288 287 287 286 285 285 286 284 285 285 284 283
288 284 279 281 278 278 279 281 281 284 284 284 283 280 281 284 281 283 271 281 283 277 270 271 276 280 281 283 285 287 286 287 287 286 285 285 284 282 282 281 281 281 281 281
285 285 280 277 280 280 282 283 284 284 287 284 282 281 283 282 281 280 277 279 276 274 272 275 276 277 280 285 286 286 286 286 285 285 284 284 284 283 283 282 281 281 281 281
284 282 277 280 278 278 281 284 284 287 286 283 281 277 273 276 277 278 272 270 268 273 274 276 279 279 283 284 285 286 286 285 285 285 285 285 284 281 280 279 278 280 281 281
283 278 282 282 281 280 282 285 285 286 283 278 276 272 273 276 271 271 276 272 274 282 280 276 280 280 280 281 282 282 281 282 285 285 285 284 284 284 282 280 280 282 281 281

GFSNW_sfc_thetae_102.txt.gz
Theta_e
315 313 313 311 309 310 307 298 288 299 298 282 281 276 284 290 286 288 289 286 286 281 285 285 283 281 284 292 289 285 288 283 277 279 290 290 286 284 286 275 277 274 272 277
314 313 312 311 310 311 300 293 289 297 292 276 275 283 285 286 285 285 285 284 286 288 286 283 285 285 290 294 291 288 288 284 277 277 286 288 285 287 287 285 280 276 271 277
313 312 312 310 310 310 300 290 281 286 287 283 281 281 282 281 287 286 287 286 287 286 285 286 283 281 290 294 294 295 294 287 279 273 279 283 280 285 287 281 274 278 276 281
313 312 311 310 310 310 297 291 283 286 279 280 282 283 283 281 281 285 286 285 286 284 282 285 283 284 287 291 294 291 292 284 286 287 287 286 284 284 287 279 285 283 285 285
312 311 310 310 309 310 295 288 283 283 281 283 282 283 280 281 282 283 282 282 285 285 282 282 284 285 286 286 288 287 288 282 283 280 286 287 284 287 287 287 287 288 288 287
312 310 309 309 309 304 292 289 289 285 284 280 279 279 281 282 284 285 286 285 282 283 284 285 288 288 289 288 288 289 288 284 281 277 283 284 278 286 287 288 288 288 284 288
312 310 309 309 309 303 292 289 289 283 280 281 281 283 283 283 283 282 285 286 283 286 289 289 288 286 289 290 289 288 284 283 281 276 279 273 283 288 291 289 289 289 289 290
311 310 309 309 308 302 293 291 289 284 279 281 282 283 282 283 283 282 284 286 287 289 288 284 285 283 284 286 287 286 287 284 280 276 275 279 284 288 287 285 286 291 290 291
310 309 308 308 308 304 293 291 292 287 283 280 285 282 281 278 277 280 284 288 289 289 290 284 278 276 280 280 282 287 286 285 281 278 274 274 282 288 291 289 283 292 292 290
309 308 308 308 308 305 294 291 294 288 282 284 284 281 281 282 281 279 282 283 283 287 284 281 275 281 282 278 278 279 280 280 277 278 278 279 285 288 290 278 283 296 293 290
308 307 307 308 308 303 296 292 294 289 283 284 287 287 282 283 282 280 282 283 282 281 281 283 283 279 281 279 281 279 280 277 277 278 276 274 289 289 285 288 291 294 292 291
305 307 308 307 305 303 298 291 295 294 287 285 288 289 288 288 287 283 283 282 282 283 280 281 283 281 282 280 280 285 279 282 281 281 281 287 289 289 292 292 291 293 292 292
306 307 307 307 305 303 297 292 292 290 285 284 284 284 288 291 289 290 282 283 287 286 286 285 284 282 285 279 282 280 286 286 282 284 287 287 290 291 293 294 294 295 296 295
307 307 306 307 306 303 299 292 294 290 286 281 281 290 287 290 290 290 288 287 287 286 284 283 285 282 285 283 282 280 284 286 284 284 285 287 289 290 293 294 295 295 296 296
307 306 306 305 303 302 296 293 293 293 287 280 281 286 287 288 289 289 288 287 284 282 281 280 280 285 283 287 287 280 284 283 283 282 287 287 289 291 293 293 293 294 294 293
306 305 304 304 302 299 291 286 291 294 290 282 279 284 283 286 288 287 286 286 284 283 281 280 282 285 282 278 280 284 288 287 288 287 288 290 292 292 292 292 293 293 294 294
305 305 304 302 300 294 289 286 290 295 291 282 278 278 283 287 287 288 287 288 284 283 281 281 281 282 283 280 277 283 285 285 286 286 287 287 289 287 290 291 292 293 292 293
305 303 302 301 300 296 289 291 296 293 288 286 276 276 279 286 285 284 289 286 286 283 282 281 280 282 281 278 281 283 284 284 285 285 286 285 288 289 290 291 292 290 290 290
303 302 300 295 292 286 287 297 296 291 287 280 277 272 271 286 287 287 286 288 278 285 279 281 282 280 277 281 282 284 284 284 284 286 289 287 286 287 290 290 289 289 289 290
301 297 291 286 290 298 295 288 284 283 284 284 280 280 276 285 286 284 283 285 282 276 281 285 281 279 284 284 285 285 285 286 288 286 285 286 286 287 288 290 290 290 290 288
293 288 287 292 298 290 287 279 278 279 278 282 281 280 281 286 281 283 285 280 283 272 277 279 275 277 281 283 283 284 285 286 288 289 288 288 288 288 288 290 289 289 288 286
293 292 294 292 288 285 284 274 278 277 277 280 279 280 280 281 284 284 284 279 281 271 284 281 274 279 282 282 282 283 284 285 287 287 287 287 287 287 288 288 287 286 286 285
294 290 286 286 284 280 278 273 273 274 279 280 280 279 281 282 283 283 282 279 273 285 279 275 275 279 282 282 283 284 286 287 288 287 287 286 286 286 286 285 285 285 284 283
288 284 280 281 278 279 278 279 280 280 282 282 280 279 280 282 277 282 274 278 283 277 272 271 275 279 281 282 283 285 285 287 287 286 286 285 284 284 282 280 280 281 281 280
285 285 281 278 279 281 282 280 283 284 286 282 280 280 281 278 277 279 277 277 276 274 271 274 275 276 279 280 283 286 286 286 286 286 285 285 284 284 283 284 281 279 280 281
284 282 276 279 278 280 282 283 284 286 285 283 281 277 274 275 276 273 274 271 268 273 273 275 277 279 280 283 284 282 281 286 285 285 285 285 284 283 281 282 281 281 282 281
282 276 281 280 281 280 283 285 285 286 282 276 276 273 273 276 269 270 274 272 273 273 282 280 277 281 282 280 281 282 281 280 281 283 284 285 285 285 282 277 276 279 282 281

GFSNW_sfc_thetae_105.txt.gz
Theta_e
308 308 314 314 312 311 305 297 288 298 298 281 278 276 282 289 285 288 287 285 285 283 285 284 283 279 283 290 289 285 286 280 273 279 287 290 286 283 284 276 276 276 271 278
308 310 312 313 312 311 300 291 291 298 295 275 274 282 284 285 284 284 285 283 285 286 286 281 284 282 289 292 290 287 289 282 270 274 283 288 284 286 286 283 279 279 270 277
308 310 313 311 312 310 298 290 283 287 287 281 280 281 281 281 286 284 286 285 286 284 284 284 281 280 290 294 293 296 295 287 278 272 279 282 280 283 285 277 273 280 276 279
308 313 312 310 311 311 297 291 284 287 279 280 281 281 282 281 280 284 285 284 284 280 279 282 280 281 288 291 293 291 291 283 287 287 287 284 283 283 284 277 280 276 283 283
309 311 311 310 311 309 294 288 285 283 281 282 282 282 280 281 281 282 281 282 286 284 281 280 283 282 285 281 289 288 290 283 282 279 285 285 283 284 285 286 286 286 286 283
311 312 310 310 310 305 293 290 288 286 283 280 279 279 280 282 283 284 285 284 283 282 284 285 287 286 287 286 286 287 288 281 278 275 281 283 278 283 284 286 287 287 284 288
312 311 310 310 310 304 294 291 288 283 279 280 281 281 282 282 282 281 284 285 282 285 288 288 286 286 289 289 289 287 283 281 281 276 278 273 282 287 289 287 288 288 288 289
307 310 310 310 310 306 294 291 289 284 279 280 281 282 281 282 282 282 283 285 285 288 287 285 284 283 282 284 286 284 285 282 279 276 275 278 282 287 287 286 285 291 289 289
309 310 310 310 309 303 293 291 291 287 283 280 284 281 280 278 277 279 283 287 288 287 290 284 278 276 278 279 281 286 285 284 280 277 274 274 281 286 289 289 282 292 291 289
311 310 309 309 309 304 294 292 293 288 283 283 283 280 280 281 280 279 281 283 283 286 282 279 275 278 281 277 277 278 279 279 277 277 275 278 284 288 290 278 281 293 292 289
310 309 309 309 308 304 296 291 293 289 283 284 286 286 282 282 281 279 281 283 282 281 280 279 279 278 279 277 279 277 279 276 277 277 275 272 287 288 283 287 291 293 291 290
309 308 308 309 309 303 298 289 293 292 286 284 288 288 287 286 286 283 282 282 281 282 280 279 280 280 275 278 276 282 279 281 280 280 280 286 288 288 290 292 290 292 291 291
307 308 309 309 307 304 297 290 291 290 285 283 284 283 288 290 288 289 282 282 286 285 285 282 281 279 281 275 278 278 283 285 281 283 284 284 287 289 291 292 292 293 294 294
306 308 309 306 305 303 298 292 292 289 285 280 281 289 286 289 289 289 287 286 286 285 284 282 281 279 283 279 281 280 282 284 283 282 283 284 287 289 290 292 294 294 295 295
308 307 307 306 303 301 296 293 292 292 286 280 280 285 286 287 288 287 287 286 283 281 281 280 280 282 282 283 283 279 283 283 282 284 286 286 288 289 292 291 291 292 293 293
306 306 305 304 303 299 291 287 291 293 290 283 279 283 283 286 287 286 285 285 283 281 281 280 281 283 281 277 277 283 285 285 286 286 285 288 289 290 289 289 291 292 292 292
305 305 304 302 300 294 288 286 289 294 290 282 278 278 283 285 285 285 285 285 283 282 281 280 280 281 281 279 276 282 284 285 284 283 285 285 286 284 288 289 290 292 290 291
304 303 302 301 299 296 288 291 296 292 286 284 275 277 282 288 285 284 288 283 282 282 280 281 280 281 280 277 281 281 284 284 283 283 284 284 285 286 287 288 289 288 288 289
303 301 300 295 291 287 287 297 294 290 287 278 277 273 271 286 286 284 285 284 275 284 279 280 281 279 277 281 281 282 283 283 284 285 285 286 285 285 287 288 290 290 289 290
302 297 291 285 289 297 294 288 284 283 283 284 277 280 278 283 285 282 280 282 278 269 279 282 279 278 282 283 283 284 284 285 286 282 281 284 286 287 287 287 290 289 289 288
294 288 286 290 297 289 285 279 278 278 277 281 279 279 279 284 277 279 282 274 276 269 276 277 274 276 280 282 283 283 284 285 285 286 288 288 288 287 287 288 289 289 288 287
293 291 293 292 288 284 281 273 277 277 277 279 278 279 280 281 283 281 281 274 279 268 282 279 274 278 280 281 281 282 283 284 284 285 287 287 287 287 287 288 288 287 286 286
294 291 287 287 284 278 279 275 273 272 278 279 280 279 281 282 282 282 279 273 271 283 279 274 275 278 281 281 282 282 283 285 285 286 287 287 286 286 285 285 286 286 284 284
289 285 281 282 278 280 279 278 276 278 280 282 280 280 279 281 277 281 269 277 282 277 272 272 273 277 280 281 282 283 283 284 286 287 287 286 285 284 284 281 279 280 282 281
286 286 282 280 280 282 282 276 280 280 285 281 280 278 280 276 276 278 276 277 275 274 271 273 275 275 280 280 281 281 281 282 285 286 285 285 285 284 284 284 282 278 278 280
284 282 278 280 279 281 281 278 281 283 284 281 281 277 272 274 275 271 269 270 269 272 273 275 273 276 278 280 283 282 279 277 279 285 285 285 285 284 283 283 283 281 280 281
282 278 281 280 281 281 282 284 284 286 283 280 277 271 272 275 269 269 273 272 275 273 273 282 279 280 280 280 281 282 280 280 277 280 283 283 285 285 283 281 281 280 282 282

GFSNW_sfc_thetae_108.txt.gz
Theta_e
307 308 307 309 310 310 305 296 286 299 298 285 278 275 282 288 284 288 286 285 283 283 285 280 273 279 281 289 290 284 284 279 275 282 286 290 286 283 285 275 276 275 273 278
306 307 307 309 312 310 299 291 291 298 296 277 275 281 283 284 283 283 284 282 284 286 285 278 281 278 288 291 289 288 288 279 267 273 280 285 284 286 287 282 280 279 274 278
306 307 306 308 311 311 297 289 285 290 291 283 280 280 280 280 285 284 286 284 285 285 285 283 280 279 289 292 291 296 293 286 277 273 279 282 278 283 284 276 274 278 277 280
307 307 307 308 311 311 297 288 285 289 283 280 280 280 281 280 280 283 285 283 283 280 279 280 279 281 287 291 292 291 290 282 286 286 287 284 283 283 284 276 279 275 281 282
306 306 311 311 310 310 293 287 285 283 281 282 281 282 279 280 280 281 280 282 285 282 279 279 279 281 285 279 289 289 290 281 282 279 283 285 283 284 283 284 284 285 283 283
305 307 308 309 309 305 292 289 288 286 282 280 279 278 279 281 282 283 284 284 283 282 283 284 284 284 285 284 286 287 287 280 277 275 280 282 277 281 284 286 285 286 284 286
306 310 310 309 310 302 294 291 287 283 280 280 280 281 282 281 282 281 283 284 283 285 288 288 286 286 288 287 288 287 282 280 280 275 276 272 280 286 287 286 287 287 288 289
306 311 310 310 311 302 292 291 287 284 279 280 280 281 281 282 282 281 283 284 285 287 287 285 284 282 281 283 284 283 284 281 279 275 274 276 282 285 288 286 285 289 287 288
304 306 310 310 311 302 293 291 289 286 282 279 283 280 280 278 276 279 283 287 287 286 289 285 277 275 278 278 280 284 284 282 278 277 273 273 279 285 287 290 282 290 290 288
305 307 309 310 310 304 295 291 291 287 281 282 282 279 280 281 279 278 281 282 283 285 282 279 274 277 279 277 277 278 278 279 276 277 274 277 282 287 289 277 279 292 291 288
306 310 309 309 309 303 295 290 292 288 282 283 285 285 281 281 280 279 281 283 281 280 280 279 278 278 278 276 278 276 278 276 276 277 274 272 286 286 281 285 289 291 290 289
306 310 309 309 307 303 297 288 292 292 286 283 287 287 286 285 284 282 281 281 280 283 280 279 280 279 274 277 275 280 278 280 279 279 279 285 286 286 288 290 289 290 289 290
308 309 309 309 309 304 296 289 290 289 284 283 283 282 287 289 287 288 283 282 285 283 284 281 281 279 280 275 277 277 280 282 280 282 283 283 285 287 288 290 290 291 292 292
309 310 309 309 308 302 297 290 291 290 286 280 280 288 285 288 288 288 287 286 285 284 283 282 280 279 282 278 279 278 282 282 281 281 282 283 285 286 288 290 291 292 293 293
309 309 309 308 305 301 295 292 291 290 286 280 280 284 285 287 287 286 286 285 282 281 281 280 279 281 281 280 281 278 282 282 281 281 285 285 286 288 289 289 289 290 291 292
307 306 306 305 303 300 291 287 292 291 289 282 278 282 282 285 286 285 284 284 282 281 281 279 280 282 281 277 277 281 283 284 286 285 285 287 287 289 287 287 288 289 290 291
306 305 305 303 300 293 288 286 290 293 289 282 277 278 283 284 284 284 284 284 281 281 280 280 279 280 281 278 275 281 283 285 283 283 285 284 285 284 286 288 289 290 288 289
305 304 303 301 300 296 289 291 295 292 285 283 275 278 282 286 282 280 284 281 281 281 280 280 279 280 279 277 280 279 283 283 283 283 284 284 283 284 285 287 288 286 287 287
303 302 300 295 291 287 287 297 294 290 287 279 277 275 274 285 283 282 282 282 275 282 279 279 280 279 277 281 280 281 282 283 284 284 284 284 283 283 285 285 286 286 289 290
301 297 291 286 289 296 293 288 285 283 284 283 277 280 279 282 281 278 279 281 277 269 279 281 279 278 282 282 282 283 284 284 284 282 281 282 282 286 287 288 288 288 288 288
294 289 286 290 297 288 284 279 278 279 278 281 279 279 278 283 276 276 281 273 274 268 276 276 273 276 279 281 282 282 284 284 284 285 286 286 287 287 287 287 289 289 288 287
293 291 293 291 287 284 278 273 277 277 277 279 278 279 279 280 283 279 279 273 272 268 279 275 272 277 279 280 280 281 283 284 284 285 285 285 287 288 287 287 288 287 287 286
294 291 287 285 283 276 276 275 273 273 277 280 281 279 281 281 282 278 275 268 273 282 278 274 275 277 280 279 281 281 282 284 284 284 285 286 286 286 286 285 286 286 285 284
289 285 282 282 279 279 279 280 279 277 279 281 281 280 279 281 277 277 269 276 280 276 268 271 272 276 278 280 281 282 281 283 283 284 284 285 286 285 284 284 281 279 281 281
286 286 282 280 279 282 281 279 280 279 285 281 279 279 280 275 275 277 276 276 274 273 271 273 274 274 278 279 281 280 281 281 281 280 281 285 285 284 284 284 283 280 278 278
285 283 279 281 280 281 281 277 280 282 284 280 280 275 273 273 275 271 269 270 268 273 273 274 270 273 277 280 282 281 279 278 278 278 280 284 285 284 284 284 283 283 282 278
282 279 281 279 279 280 282 282 282 285 282 276 275 271 272 275 269 269 273 271 274 274 272 275 278 278 279 279 281 281 280 279 278 277 279 279 283 285 283 282 283 282 282 282

GFSNW_sfc_thetae_111.txt.gz
Theta_e
307 308 308 307 307 309 304 296 287 299 299 287 281 275 281 287 284 288 285 284 282 281 283 279 272 279 283 288 291 285 286 280 276 281 287 291 287 284 284 278 278 276 278 280
307 307 307 307 306 308 300 292 291 299 296 279 275 280 282 283 283 283 284 283 284 285 282 277 281 279 288 290 291 289 290 281 272 277 283 286 283 286 286 282 282 278 275 280
306 306 307 307 307 309 299 291 285 291 292 286 279 279 280 280 284 283 285 284 285 283 283 283 281 277 289 292 290 295 293 286 278 278 281 284 281 284 285 278 279 279 279 282
306 306 306 305 308 311 298 290 287 289 283 284 280 280 280 280 280 282 285 283 283 280 278 280 279 281 285 290 292 291 288 282 285 286 287 286 284 284 285 281 282 278 283 283
306 307 306 305 306 308 295 286 284 283 280 282 280 282 279 280 280 281 281 282 284 282 279 279 279 281 281 280 287 287 287 279 282 279 285 284 282 284 285 286 286 285 285 285
306 307 306 306 310 307 292 289 287 285 282 279 278 278 279 281 282 283 283 284 282 282 283 284 284 284 285 284 285 284 284 280 278 275 280 283 277 282 285 286 286 286 283 287
306 306 306 307 309 306 294 290 287 283 278 280 280 280 281 281 281 281 282 285 283 285 288 287 286 287 287 287 287 286 282 280 281 275 277 272 281 287 287 287 287 288 288 289
305 305 310 310 309 302 293 290 287 283 278 280 280 281 280 281 281 281 282 283 284 287 286 283 282 280 281 283 284 284 284 281 279 276 274 277 282 285 288 287 286 290 289 289
305 309 310 310 307 302 293 291 289 285 282 279 282 280 279 277 276 279 282 286 287 286 288 283 277 275 277 278 280 284 284 282 279 277 273 273 281 285 288 289 283 291 290 289
304 308 309 309 307 303 295 290 289 286 281 281 280 279 279 280 279 278 280 282 283 285 282 279 274 276 279 277 277 277 278 279 276 278 274 278 283 286 288 278 281 293 291 290
304 305 308 309 309 303 295 288 289 287 281 281 284 284 280 280 280 279 280 282 281 280 280 278 278 277 278 276 277 276 278 275 276 277 275 273 286 286 282 285 289 292 292 290
304 306 310 309 309 303 296 288 291 291 284 283 286 286 285 284 283 281 281 281 280 283 280 279 279 279 273 276 275 279 277 279 278 279 279 284 287 287 289 290 289 291 291 292
304 308 310 309 306 303 296 289 288 287 283 282 283 282 286 288 286 287 283 281 285 283 283 281 280 279 279 275 277 277 280 282 280 282 283 283 286 288 289 291 291 291 292 293
306 310 309 307 304 302 296 289 289 287 284 279 280 287 284 287 287 287 286 285 285 284 283 281 280 279 281 277 279 279 282 283 280 280 282 283 286 287 288 290 291 291 292 293
309 309 308 308 303 301 295 291 290 289 286 280 280 283 285 286 286 286 286 285 282 281 281 280 279 281 280 279 279 277 281 282 281 280 285 285 285 289 289 289 289 290 291 291
308 308 307 305 303 299 291 287 290 290 289 282 278 282 282 285 285 284 284 283 281 281 280 279 280 281 280 277 276 281 282 284 286 285 286 287 288 288 288 288 288 289 289 290
307 306 305 303 300 293 288 286 290 292 289 281 277 279 283 284 284 283 283 282 281 281 280 280 279 280 280 278 275 280 282 284 284 284 286 284 285 285 286 287 288 290 288 289
305 304 303 302 300 296 290 291 295 291 285 283 274 278 281 284 281 280 283 281 281 281 279 280 279 280 279 277 279 278 282 283 283 283 283 285 285 285 285 285 287 286 287 287
303 302 300 295 290 287 289 296 294 289 286 278 276 275 275 283 281 281 281 281 275 281 278 279 280 278 277 280 279 280 281 283 283 283 284 284 284 284 285 284 285 284 286 288
302 297 291 286 288 296 293 287 285 283 283 282 277 279 278 281 280 278 278 280 277 269 278 281 278 278 281 281 281 282 283 284 285 282 281 282 282 284 285 285 288 289 288 286
294 289 286 290 297 289 284 280 281 280 279 281 279 279 279 282 276 276 280 275 274 268 275 276 274 275 278 280 281 281 284 284 284 284 285 285 285 284 285 287 289 289 288 288
294 291 293 292 288 284 279 276 277 277 277 279 278 279 279 280 282 278 278 272 270 268 278 273 271 277 279 279 279 280 283 283 283 284 284 284 285 286 287 288 288 288 287 287
294 292 287 286 283 276 273 273 274 274 279 280 281 279 280 281 281 277 274 268 270 279 277 272 274 276 279 278 280 280 282 283 284 283 284 285 285 285 286 286 287 286 286 286
289 286 277 278 277 278 278 279 281 280 279 281 281 280 279 281 277 276 269 276 277 275 268 270 272 274 277 279 280 281 281 282 282 283 283 283 284 283 285 285 283 281 280 282
286 286 282 280 280 281 280 277 279 279 284 281 279 279 279 276 276 278 276 275 274 273 271 274 274 273 275 278 281 279 280 281 280 279 280 281 281 282 284 285 283 281 279 278
285 283 279 281 281 281 281 278 280 281 283 280 280 276 273 273 275 272 271 270 269 273 274 274 269 271 274 279 281 280 279 278 277 278 279 281 279 279 281 284 284 283 283 280
282 279 281 279 278 279 280 281 282 284 281 276 275 272 273 275 269 270 273 272 274 273 272 272 277 277 278 279 280 280 280 279 277 277 280 279 282 281 279 278 279 283 283 282

GFSNW_sfc_thetae_114.txt.gz
Theta_e
307 307 307 308 307 308 306 297 288 300 300 289 287 286 284 288 288 291 289 289 287 285 286 284 282 283 286 292 292 287 290 286 283 284 290 292 290 288 287 284 281 282 284 281
307 307 307 308 307 306 300 291 291 299 297 284 284 285 285 287 287 288 287 287 288 289 286 282 285 284 292 293 292 290 292 286 282 282 286 290 287 290 289 286 287 281 282 282
306 306 306 307 307 307 301 293 286 291 294 290 285 284 284 284 288 287 288 287 289 288 286 288 285 285 290 293 292 295 295 288 284 280 283 287 285 289 289 286 286 284 284 286
306 306 306 307 307 306 299 293 289 291 284 286 286 286 285 283 283 287 289 287 288 287 283 285 284 286 288 291 293 294 293 285 287 288 289 288 288 288 289 285 286 285 286 287
306 306 306 307 305 306 298 289 288 289 287 290 287 285 284 284 284 286 285 286 288 287 285 285 284 286 287 287 292 291 292 286 287 285 288 289 287 288 290 289 289 289 290 288
305 305 306 306 306 305 296 292 292 292 286 287 286 285 284 285 287 286 288 289 289 287 288 290 290 291 290 290 289 289 289 287 285 281 285 286 284 286 289 290 290 291 287 290
305 305 306 307 307 306 298 294 293 289 283 286 286 285 286 285 286 285 287 290 289 289 293 293 293 293 292 292 291 291 288 287 287 283 284 277 286 292 291 291 291 293 292 293
305 305 306 307 307 306 297 295 293 290 284 287 284 285 285 287 287 286 287 288 289 294 293 289 286 287 288 288 289 290 290 287 284 283 281 283 286 289 290 289 289 294 292 293
304 306 306 307 309 305 297 294 294 292 287 285 287 286 287 285 285 286 286 291 293 294 292 288 282 282 283 283 286 289 289 288 287 284 279 277 286 290 293 293 286 295 294 294
306 310 310 308 306 303 298 293 294 293 286 287 287 286 286 288 286 286 287 289 290 292 290 286 284 283 286 282 282 284 285 286 284 284 281 284 289 291 293 283 287 296 295 295
305 308 307 306 305 302 297 292 294 293 287 287 287 287 286 286 288 286 287 289 289 289 287 286 286 285 286 285 285 285 284 283 284 284 282 278 291 291 287 292 295 297 296 296
306 309 309 308 305 302 299 293 294 294 290 287 290 290 290 289 288 289 288 288 289 292 289 287 288 286 285 285 283 287 283 286 286 285 285 290 293 293 295 296 297 297 298 297
306 310 310 310 306 302 299 293 293 293 289 288 289 287 291 292 290 291 291 289 290 290 290 291 289 285 288 284 285 286 288 289 288 287 289 291 292 294 296 297 297 298 299 298
305 310 310 309 304 301 298 295 294 293 290 286 285 291 289 291 292 291 291 291 290 291 291 290 289 287 288 286 286 287 289 289 287 287 289 291 292 294 295 295 296 296 297 299
310 310 308 306 303 300 297 295 294 294 292 284 285 287 290 291 291 290 291 291 290 290 289 289 287 289 288 287 287 286 289 289 288 288 293 293 293 295 295 294 294 295 296 297
308 307 305 304 302 299 297 292 295 294 294 289 283 287 288 290 290 289 289 289 288 289 289 287 287 286 287 285 284 288 290 291 293 293 294 294 295 294 294 294 294 294 295 295
307 306 305 304 301 298 292 290 293 294 294 287 282 283 288 289 289 289 289 289 288 289 287 286 287 287 288 285 282 287 289 291 291 293 293 291 292 292 293 293 293 294 294 294
306 304 304 303 300 298 293 295 296 294 289 288 281 280 284 289 286 286 288 287 288 287 286 286 285 286 286 282 287 285 288 290 290 292 290 293 293 292 291 292 292 292 292 293
304 303 302 298 294 292 292 296 294 294 292 284 282 280 280 288 286 287 287 287 284 287 284 284 285 284 282 287 287 286 288 289 290 289 290 290 290 290 290 290 290 290 290 292
302 300 294 289 291 297 295 293 290 289 288 286 282 285 282 286 285 284 285 285 283 282 284 286 282 283 287 287 288 289 290 290 290 287 286 287 288 289 289 289 291 291 290 290
296 292 288 293 297 292 288 286 286 284 284 284 283 284 282 287 283 283 285 281 282 280 282 282 282 281 285 286 287 288 291 290 291 291 292 291 291 289 289 289 290 291 290 290
296 293 295 294 291 287 284 282 282 281 282 281 282 283 285 285 287 284 283 280 279 278 283 280 278 284 284 284 285 286 289 290 289 290 290 290 290 290 290 290 290 290 290 289
297 294 290 288 287 282 280 277 279 279 281 282 283 282 285 284 286 283 281 278 278 283 279 278 282 284 284 284 285 285 289 289 289 288 289 289 289 290 289 289 289 289 288 288
290 285 283 282 281 282 283 284 285 284 284 283 284 282 284 284 282 281 278 280 281 277 274 278 284 284 284 284 285 286 287 288 288 288 288 288 288 287 288 288 288 287 286 286
287 287 281 280 284 283 282 282 283 283 286 284 283 283 284 281 279 281 279 276 275 277 279 283 285 282 281 283 285 286 286 286 286 286 286 286 286 286 286 287 287 285 283 282
285 285 283 283 283 282 282 282 283 285 286 284 285 280 279 279 280 277 276 276 276 282 283 285 281 279 280 284 286 286 285 284 284 285 285 286 285 285 286 287 286 286 285 284
283 282 283 284 283 284 284 284 285 287 285 283 281 277 279 279 276 276 279 278 284 283 282 281 281 282 283 285 286 285 285 284 285 285 286 286 287 286 284 284 285 285 286 285

GFSNW_sfc_thetae_117.txt.gz
Theta_e
306 307 307 307 308 306 306 297 287 300 301 290 291 288 286 290 289 293 291 291 289 287 288 285 285 284 288 294 293 288 291 287 284 285 291 293 291 289 288 285 283 286 283 281
306 307 307 307 306 305 301 291 291 299 300 286 287 288 287 289 289 290 289 289 290 291 288 284 287 287 293 294 292 291 293 287 282 285 289 292 289 291 290 289 290 284 281 283
306 306 306 307 306 306 301 292 286 291 294 294 290 286 286 285 290 291 290 290 291 289 287 289 287 286 292 294 294 296 295 288 285 281 284 288 286 289 290 288 285 284 285 286
305 306 307 307 307 306 301 295 291 292 285 288 289 289 287 285 285 290 291 289 289 288 285 286 286 288 290 293 296 295 294 285 287 289 290 290 289 289 290 287 289 285 286 287
304 306 306 308 307 306 299 293 292 294 290 291 289 287 286 286 286 288 287 287 290 290 287 287 286 288 289 288 293 293 294 287 288 286 290 290 287 290 290 290 291 290 290 289
305 307 306 307 307 306 298 298 297 295 290 290 288 288 287 287 289 288 290 291 290 288 290 292 293 294 294 293 291 291 291 289 287 283 288 287 284 287 289 291 292 292 287 291
306 306 306 307 307 307 300 299 297 292 287 289 289 288 288 287 289 287 290 293 291 292 296 295 295 295 294 294 293 294 290 289 288 285 286 279 287 294 294 292 292 294 293 294
306 306 307 307 307 306 302 300 297 294 288 290 288 288 288 289 290 290 290 290 292 296 295 291 288 288 289 290 292 292 293 290 286 284 283 285 287 291 291 290 289 294 293 295
306 306 306 307 307 306 302 300 299 296 290 288 290 288 289 288 289 289 289 293 296 296 294 290 284 283 285 284 287 292 291 291 288 286 280 279 287 292 295 295 285 295 296 295
305 305 306 307 308 307 303 298 299 298 290 289 291 288 288 292 291 290 290 291 292 295 292 288 286 285 288 284 283 285 286 287 285 285 283 285 291 293 295 284 287 296 297 297
310 310 308 308 308 305 303 296 299 297 291 289 290 290 289 290 292 290 291 290 291 292 289 288 288 287 288 286 288 286 285 285 284 285 283 280 294 293 288 294 299 298 298 298
309 309 309 308 304 302 303 296 298 299 294 289 293 292 292 291 291 292 293 291 292 295 292 290 291 288 289 287 284 290 285 288 287 287 286 293 295 295 297 298 298 298 299 299
308 307 307 306 305 303 302 297 298 298 292 291 292 289 293 295 293 295 292 294 294 294 294 294 292 287 290 286 287 288 290 291 289 289 291 293 295 297 298 299 299 300 300 300
309 310 307 306 304 303 303 298 298 298 295 289 287 294 291 294 295 294 294 294 294 295 295 293 292 289 291 289 288 289 291 291 290 289 292 293 295 297 298 298 299 299 300 301
309 310 307 305 303 302 301 299 298 298 295 287 287 291 292 294 295 294 295 295 294 294 292 291 290 292 290 290 289 288 292 291 289 289 294 295 295 297 298 297 296 297 298 298
309 308 306 304 303 302 300 295 298 298 299 292 285 291 290 292 293 293 292 292 293 293 292 291 290 290 289 286 285 291 294 296 297 294 297 297 298 297 298 296 296 296 297 298
308 306 304 303 303 301 295 293 296 296 298 291 285 286 290 291 291 292 292 292 292 292 290 289 290 289 289 287 284 291 292 295 295 297 296 293 295 294 296 296 296 296 296 296
306 304 304 303 301 299 296 297 298 297 294 293 286 284 286 291 288 288 292 290 291 290 289 289 287 288 288 283 289 289 292 294 294 295 294 297 297 296 295 296 295 294 294 295
304 303 303 302 299 296 295 297 296 298 295 289 287 285 284 290 289 290 290 290 286 289 287 287 287 286 283 288 290 289 291 292 293 295 293 294 294 294 293 293 293 292 293 293
303 301 297 293 295 298 297 295 293 293 292 290 286 288 285 289 288 287 288 288 287 284 287 288 284 285 290 291 291 292 292 294 295 290 289 291 291 292 292 292 293 293 293 292
300 296 292 296 297 295 291 290 290 288 287 287 286 288 284 289 286 287 288 285 286 282 285 283 285 284 288 290 290 292 294 295 294 295 295 294 294 292 292 291 292 292 292 291
298 296 298 297 294 290 287 286 285 284 285 284 284 285 289 288 290 287 285 284 282 281 286 282 281 288 288 288 289 290 293 293 294 294 294 294 293 293 293 292 291 291 292 291
299 296 291 290 290 284 282 279 282 283 284 285 285 284 287 287 289 286 284 281 281 285 281 281 287 288 286 287 288 289 293 293 293 292 292 292 292 292 292 291 291 291 291 291
293 287 284 284 284 285 287 288 289 288 288 287 289 286 287 287 285 284 281 283 283 279 277 281 290 289 288 287 288 289 290 291 291 290 290 290 290 290 290 290 290 289 288 288
288 287 284 285 288 286 285 286 285 285 289 288 286 286 287 284 282 283 281 278 277 280 283 289 290 286 284 286 287 288 288 289 289 289 289 289 289 289 288 289 289 288 287 285
286 286 285 286 284 284 283 285 285 288 288 287 289 284 282 282 283 279 279 279 280 288 288 290 285 282 283 286 288 288 287 286 286 286 287 288 287 286 287 288 288 287 286 285
285 284 286 288 286 288 287 287 287 289 287 286 285 281 283 282 280 279 283 282 290 290 288 286 285 285 284 287 288 287 287 287 287 288 288 288 289 288 286 285 286 286 286 286